[[{"header":{"parameterUnit":"m.s-1","parameterCategory":1,"la1":31.0,"la2":29.5877,"lo1":-88.7671,"lo2":-86.6584,"dy":0.0162,"dx":0.0185,"nx":115,"ny":88,"refTime":"2023-06-28T18:00:00:Z","depth":0,"parameterNumber":2,"parameterNumberName":"U-component_of_WINDS"},"data":[0.0,0.0,0.0,0.0,0.0,0.0,0.0,0.0,0.0,0.0,0.0,0.0,0.0,0.0,0.0,0.0,0.0,0.0,0.0,0.0,0.0,0.0,0.0,0.0,0.0,0.0,0.0,0.0,0.0,0.0,0.0,0.0,0.0,0.0,0.0,0.0,0.0,0.0,0.0,0.0,0.0,0.0,0.0,0.0,0.0,0.0,0.0,0.0,0.0,0.0,0.0,0.0,0.0,0.0,0.0,0.0,0.0,0.0,0.0,0.0,0.0,0.0,0.0,0.0,0.0,0.0,0.0,0.0,0.0,0.0,0.0,0.0,0.0,0.0,0.0,0.0,0.0,0.0,0.0,0.0,0.0,0.0,0.0,0.0,0.0,0.0,0.0,0.0,0.0,0.0,0.0,0.0,0.0,0.0,0.0,0.0,0.0,0.0,0.0,0.0,0.0,0.0,0.0,0.0,0.0,0.0,0.0,0.0,0.0,0.0,0.0,0.0,0.0,0.0,0.0,0.0,0.0,0.0,0.0,0.0,0.0,0.0,0.0,0.0,0.0,0.0,0.0,0.0,0.0,0.0,0.0,0.0,0.0,0.0,0.0,0.0,0.0,0.0,0.0,0.0,0.0,0.0,0.0,0.0,0.0,0.0,0.0,0.0,0.0,0.0,0.0,0.0,0.0,0.0,0.0,0.0,0.0,0.0,0.0,0.0,0.0,0.0,0.0,0.0,0.0,0.0,0.0,0.0,0.0,0.0,0.0,0.0,0.0,0.0,0.0,0.0,0.0,0.0,0.0,0.0,0.0,0.0,0.0,0.0,0.0,0.0,0.0,0.0,0.0,0.0,0.0,0.0,0.0,0.0,0.0,0.0,0.0,0.0,0.0,0.0,0.0,0.0,0.0,0.0,0.0,0.0,0.0,0.0,0.0,0.0,0.0,0.0,0.0,0.0,0.0,0.0,0.0,0.0,0.0,0.0,0.0,0.0,0.0,0.0,0.0,0.0,0.0,0.0,0.0,0.0,0.0,0.0,0.0,0.0,0.0,0.0,0.0,0.0,0.0,0.0,0.0,0.0,0.0,0.0,0.0,0.0,0.0,0.0,0.0,0.0,0.0,0.0,0.0,0.0,0.0,0.0,0.0,0.0,0.0,0.0,0.0,0.0,0.0,0.0,0.0,0.0,0.0,0.0,0.0,0.0,0.0,0.0,0.0,0.0,0.0,0.0,0.0,0.0,0.0,0.0,0.0,0.0,0.0,0.0,0.0,0.0,0.0,0.0,0.0,0.0,0.0,0.0,0.0,0.0,0.0,0.0,0.0,0.0,0.0,0.0,0.0,0.0,0.0,0.0,0.0,0.0,0.0,0.0,0.0,0.0,0.0,0.0,0.0,0.0,0.0,0.0,0.0,0.0,0.0,0.0,0.0,0.0,0.0,0.0,0.0,0.0,0.0,0.0,0.0,0.0,0.0,0.0,0.0,0.0,0.0,0.0,0.0,0.0,0.0,0.0,0.0,0.0,0.0,0.0,0.0,0.0,0.0,0.0,0.0,0.0,0.0,0.0,0.0,0.0,0.0,0.0,0.0,0.0,0.0,0.0,0.0,0.0,0.0,0.0,0.0,0.0,0.0,0.0,0.0,0.0,0.0,0.0,0.0,0.0,0.0,0.0,0.0,0.0,0.0,0.0,0.0,0.0,0.0,0.0,0.0,0.0,0.0,0.0,0.0,0.0,0.0,0.0,0.0,0.0,0.0,0.0,0.0,0.0,0.0,0.0,0.0,0.0,0.0,0.0,0.0,0.0,0.0,0.0,0.0,0.0,0.0,0.0,0.0,0.0,0.0,0.0,0.0,0.0,0.0,0.0,0.0,0.0,0.0,0.0,0.0,0.0,0.0,0.0,0.0,0.0,0.0,0.0,0.0,0.0,0.0,0.0,0.0,0.0,0.0,0.0,0.0,0.0,0.0,0.0,0.0,0.0,0.0,0.0,0.0,0.0,0.0,0.0,0.0,0.0,0.0,0.0,0.0,0.0,0.0,0.0,0.0,0.0,0.0,0.0,0.0,0.0,0.0,0.0,0.0,0.0,0.0,0.0,0.0,0.0,0.0,0.0,0.0,0.0,0.0,0.0,0.0,0.0,0.0,0.0,0.0,0.0,0.0,0.0,0.0,0.0,0.0,0.0,0.0,0.0,0.0,0.0,0.0,0.0,0.0,0.0,0.0,0.0,0.0,0.0,0.0,0.0,0.0,0.0,0.0,0.0,0.0,0.0,0.0,0.0,0.0,0.0,0.0,0.0,0.0,0.0,0.0,0.0,0.0,0.0,0.0,0.0,0.0,0.0,0.0,0.0,0.0,0.0,0.0,0.0,0.0,0.0,0.0,0.0,0.0,0.0,0.0,0.0,0.0,0.0,0.0,0.0,0.0,0.0,0.0,0.0,0.0,0.0,0.0,0.0,0.0,0.0,0.0,0.0,0.0,0.0,0.0,0.0,0.0,0.0,0.0,0.0,0.0,0.0,0.0,0.0,0.0,0.0,0.0,0.0,0.0,0.0,0.0,0.0,0.0,0.0,0.0,0.0,0.0,0.0,0.0,0.0,0.0,0.0,0.0,0.0,0.0,0.0,0.0,0.0,0.0,0.0,0.0,0.0,0.0,0.0,0.0,0.0,0.0,0.0,0.0,0.0,0.0,0.0,0.0,0.0,0.0,0.0,0.0,0.0,0.0,0.0,0.0,0.0,0.0,0.0,0.0,0.0,0.0,0.0,0.0,0.0,0.0,0.0,0.0,0.0,0.0,0.0,0.0,0.0,0.0,0.0,0.0,0.0,0.0,0.0,0.0,0.0,0.0,0.0,0.0,0.0,0.0,0.0,0.0,0.0,0.0,0.0,0.0,0.0,0.0,0.0,0.0,0.0,0.0,0.0,0.0,0.0,0.0,0.0,0.0,0.0,0.0,0.0,0.0,0.0,0.0,0.0,0.0,0.0,0.0,0.0,0.0,0.0,0.0,0.0,0.0,0.0,0.0,0.0,0.0,0.0,0.0,0.0,0.0,0.0,0.0,0.0,0.0,0.0,0.0,0.0,0.0,0.0,0.0,0.0,0.0,0.0,0.0,0.0,0.0,0.0,0.0,0.0,0.0,0.0,0.0,0.0,0.0,0.0,0.0,0.0,0.0,0.0,0.0,0.0,0.0,0.0,0.0,0.0,0.0,0.0,0.0,0.0,0.0,0.0,0.0,0.0,0.0,0.0,0.0,0.0,0.0,0.0,0.0,0.0,0.0,0.0,0.0,0.0,0.0,0.0,0.0,0.0,0.0,0.0,0.0,0.0,0.0,0.0,0.0,0.0,0.0,0.0,0.0,0.0,0.0,0.0,0.0,0.0,0.0,0.0,0.0,0.0,0.0,0.0,0.0,0.0,0.0,0.0,0.0,0.0,0.0,0.0,0.0,0.0,0.0,0.0,0.0,0.0,0.0,0.0,0.0,0.0,0.0,0.0,0.0,0.0,0.0,0.0,0.0,0.0,0.0,0.0,0.0,0.0,0.0,0.0,0.0,0.0,0.0,0.0,0.0,0.0,0.0,0.0,0.0,0.0,0.0,0.0,0.0,0.0,0.0,0.0,0.0,0.0,0.0,0.0,0.0,0.0,0.0,0.0,0.0,0.0,0.0,0.0,0.0,0.0,0.0,0.0,0.0,0.0,0.0,0.0,0.0,0.0,0.0,0.0,0.0,0.0,0.0,0.0,0.0,0.0,0.0,0.0,0.0,0.0,0.0,0.0,0.0,0.0,0.0,0.0,0.0,0.0,0.0,0.0,0.0,0.0,0.0,0.0,0.0,0.0,0.0,0.0,0.0,0.0,0.0,0.0,0.0,0.0,0.0,0.0,0.0,0.0,0.0,0.0,0.0,0.0,0.0,0.0,0.0,0.0,0.0,0.0,0.0,0.0,0.0,0.0,0.0,0.0,0.0,0.0,0.0,0.0,0.0,0.0,0.0,0.0,0.0,0.0,0.0,0.0,0.0,0.0,0.0,0.0,0.0,0.0,0.0,0.0,0.0,0.0,0.0,0.0,0.0,0.0,0.0,0.0,0.0,0.0,0.0,0.0,0.0,0.0,0.0,0.0,0.0,0.0,0.0,0.0,0.0,0.0,0.0,0.0,0.0,0.0,0.0,0.0,0.0,0.0,0.0,0.0,0.0,0.0,0.0,0.0,0.0,0.0,0.0,0.0,0.0,0.0,0.0,0.0,0.0,0.0,0.0,0.0,0.0,0.0,-1.3827,0.0,0.0,0.0,0.0,0.0,0.0,0.0,0.0,0.0,0.0,0.0,0.0,0.0,0.0,0.0,0.0,0.0,0.0,0.0,0.0,0.0,0.0,0.0,0.0,0.0,0.0,0.0,0.0,0.0,0.0,0.0,0.0,0.0,0.0,0.0,0.0,0.0,0.0,0.0,0.0,0.0,0.0,0.0,0.0,0.0,0.0,0.0,0.0,0.0,0.0,0.0,0.0,0.0,0.0,0.0,0.0,0.0,0.0,0.0,0.0,0.0,0.0,0.0,0.0,0.0,0.0,0.0,0.0,0.0,0.0,0.0,0.0,0.0,0.0,0.0,0.0,0.0,0.0,0.0,0.0,0.0,0.0,0.0,0.0,0.0,0.0,0.0,0.0,0.0,0.0,0.0,0.0,0.0,0.0,0.0,0.0,0.0,0.0,0.0,0.0,0.0,0.0,0.0,0.0,0.0,0.0,0.0,0.0,0.0,0.0,-1.4108,-1.4163,-1.3361,-1.2945,-1.3004,0.0,0.0,0.0,0.0,0.0,0.0,0.0,0.0,0.0,0.0,0.0,0.0,0.0,0.0,0.0,0.0,0.0,0.0,0.0,0.0,0.0,0.0,0.0,0.0,0.0,0.0,0.0,0.0,0.0,0.0,0.0,0.0,0.0,0.0,0.0,0.0,0.0,0.0,0.0,0.0,0.0,0.0,0.0,0.0,0.0,0.0,0.0,0.0,0.0,0.0,0.0,0.0,0.0,0.0,0.0,0.0,0.0,0.0,0.0,0.0,0.0,0.0,0.0,0.0,0.0,0.0,0.0,0.0,0.0,0.0,0.0,0.0,0.0,0.0,0.0,0.0,0.0,0.0,0.0,0.0,0.0,0.0,0.0,0.0,0.0,0.0,0.0,0.0,0.0,0.0,0.0,0.0,0.0,0.0,0.0,0.0,0.0,0.0,0.0,0.0,0.0,0.0,0.0,0.0,0.0,0.0,0.0,0.0,0.0,0.0,0.0,0.0,-1.3014,-1.239,-1.2122,0.0,0.0,0.0,0.0,0.0,0.0,0.0,0.0,0.0,0.0,0.0,0.0,0.0,0.0,0.0,0.0,0.0,0.0,0.0,0.0,0.0,0.0,0.0,0.0,0.0,0.0,0.0,0.0,0.0,0.0,0.0,0.0,0.0,0.0,0.0,0.0,0.0,0.0,0.0,0.0,0.0,0.0,0.0,0.0,0.0,0.0,0.0,0.0,0.0,0.0,0.0,0.0,0.0,0.0,0.0,0.0,0.0,0.0,0.0,0.0,0.0,0.0,0.0,0.0,0.0,0.0,0.0,0.0,0.0,0.0,0.0,0.0,0.0,0.0,0.0,0.0,0.0,0.0,0.0,0.0,0.0,0.0,0.0,0.0,0.0,0.0,0.0,0.0,0.0,0.0,0.0,0.0,0.0,0.0,0.0,0.0,0.0,0.0,0.0,0.0,0.0,0.0,0.0,0.0,0.0,0.0,0.0,0.0,0.0,0.0,-1.3695,-1.3808,-1.3243,0.0,-1.1923,0.0,0.0,0.0,0.0,0.0,0.0,0.0,0.0,0.0,0.0,0.0,0.0,0.0,0.0,0.0,0.0,0.0,0.0,0.0,0.0,0.0,0.0,0.0,0.0,0.0,0.0,0.0,0.0,0.0,0.0,0.0,0.0,0.0,0.0,0.0,0.0,0.0,0.0,0.0,0.0,0.0,0.0,0.0,0.0,0.0,0.0,0.0,0.0,0.0,0.0,0.0,0.0,0.0,0.0,0.0,0.0,0.0,0.0,0.0,0.0,0.0,0.0,0.0,0.0,0.0,0.0,0.0,0.0,0.0,0.0,0.0,0.0,0.0,0.0,0.0,0.0,0.0,0.0,0.0,0.0,0.0,0.0,0.0,0.0,0.0,0.0,0.0,0.0,0.0,0.0,0.0,0.0,0.0,0.0,0.0,0.0,0.0,0.0,0.0,0.0,0.0,0.0,0.0,0.0,0.0,0.0,0.0,0.0,0.0,0.0,-1.3577,-1.3624,-1.3168,-1.254,0.0,0.0,0.0,0.0,0.0,0.0,0.0,0.0,0.0,0.0,0.0,0.0,0.0,0.0,0.0,0.0,0.0,0.0,0.0,0.0,0.0,0.0,0.0,0.0,0.0,0.0,0.0,0.0,0.0,0.0,0.0,0.0,0.0,0.0,0.0,0.0,0.0,0.0,0.0,0.0,0.0,0.0,0.0,0.0,0.0,0.0,0.0,0.0,0.0,0.0,0.0,0.0,0.0,0.0,0.0,0.0,0.0,0.0,0.0,0.0,0.0,0.0,0.0,0.0,0.0,0.0,0.0,0.0,0.0,0.0,0.0,0.0,0.0,0.0,0.0,0.0,0.0,0.0,0.0,0.0,0.0,0.0,0.0,0.0,0.0,0.0,0.0,0.0,0.0,0.0,0.0,0.0,0.0,0.0,0.0,0.0,0.0,0.0,0.0,0.0,0.0,0.0,0.0,0.0,0.0,0.0,0.0,0.0,0.0,0.0,-1.3909,-1.3493,-1.3471,-1.3084,-1.252,-1.1853,0.0,0.0,0.0,0.0,0.0,0.0,0.0,0.0,0.0,0.0,0.0,0.0,0.0,0.0,0.0,0.0,0.0,0.0,0.0,0.0,0.0,0.0,0.0,0.0,0.0,0.0,0.0,0.0,0.0,0.0,0.0,0.0,0.0,0.0,0.0,0.0,0.0,0.0,0.0,0.0,0.0,0.0,0.0,0.0,0.0,0.0,0.0,0.0,0.0,0.0,0.0,0.0,0.0,0.0,0.0,0.0,0.0,0.0,0.0,0.0,0.0,0.0,0.0,0.0,0.0,0.0,0.0,0.0,0.0,0.0,0.0,0.0,0.0,0.0,0.0,0.0,0.0,0.0,0.0,0.0,0.0,0.0,0.0,0.0,0.0,0.0,0.0,0.0,0.0,0.0,0.0,0.0,0.0,0.0,0.0,0.0,0.0,0.0,0.0,0.0,0.0,0.0,0.0,0.0,0.0,0.0,0.0,0.0,-1.4154,-1.3661,-1.3442,-1.3484,-1.299,-1.2685,0.0,0.0,0.0,0.0,0.0,0.0,0.0,0.0,0.0,0.0,0.0,0.0,0.0,0.0,0.0,0.0,0.0,0.0,0.0,0.0,0.0,0.0,0.0,0.0,0.0,0.0,0.0,0.0,0.0,0.0,0.0,0.0,0.0,0.0,0.0,0.0,0.0,0.0,0.0,0.0,0.0,0.0,0.0,0.0,0.0,0.0,0.0,0.0,0.0,0.0,0.0,0.0,0.0,0.0,0.0,0.0,0.0,0.0,0.0,0.0,0.0,0.0,0.0,0.0,0.0,0.0,0.0,0.0,0.0,0.0,0.0,0.0,0.0,0.0,0.0,0.0,0.0,0.0,0.0,0.0,0.0,0.0,0.0,0.0,0.0,0.0,0.0,0.0,0.0,0.0,0.0,0.0,0.0,0.0,0.0,0.0,0.0,0.0,0.0,0.0,0.0,0.0,0.0,0.0,0.0,0.0,0.0,0.0,0.0,-1.4091,-1.3561,-1.3284,-1.3293,-1.3217,-1.297,0.0,0.0,0.0,0.0,0.0,0.0,0.0,0.0,0.0,0.0,0.0,0.0,0.0,0.0,0.0,0.0,0.0,0.0,0.0,0.0,0.0,0.0,0.0,0.0,0.0,0.0,0.0,0.0,0.0,0.0,0.0,0.0,0.0,0.0,0.0,0.0,0.0,0.0,0.0,0.0,0.0,0.0,0.0,0.0,0.0,0.0,0.0,0.0,0.0,0.0,0.0,0.0,0.0,0.0,0.0,0.0,0.0,0.0,0.0,0.0,0.0,0.0,0.0,0.0,0.0,0.0,0.0,0.0,0.0,0.0,0.0,0.0,0.0,0.0,0.0,0.0,0.0,0.0,0.0,0.0,0.0,0.0,0.0,0.0,0.0,0.0,0.0,0.0,0.0,0.0,0.0,0.0,0.0,0.0,0.0,0.0,0.0,0.0,0.0,0.0,0.0,0.0,0.0,0.0,0.0,0.0,0.0,0.0,0.0,-1.3803,0.0,-1.321,-1.321,-1.3284,-1.3129,0.0,0.0,0.0,0.0,0.0,0.0,0.0,0.0,0.0,0.0,0.0,0.0,0.0,0.0,0.0,0.0,0.0,0.0,0.0,0.0,0.0,0.0,0.0,0.0,0.0,0.0,0.0,0.0,0.0,0.0,0.0,0.0,0.0,0.0,0.0,0.0,0.0,0.0,0.0,0.0,0.0,0.0,0.0,0.0,0.0,0.0,0.0,0.0,0.0,0.0,0.0,0.0,0.0,0.0,0.0,0.0,0.0,0.0,0.0,0.0,0.0,0.0,0.0,0.0,0.0,0.0,0.0,0.0,0.0,0.0,0.0,0.0,0.0,0.0,0.0,0.0,0.0,0.0,0.0,0.0,0.0,0.0,0.0,0.0,0.0,0.0,0.0,0.0,0.0,0.0,0.0,0.0,0.0,0.0,0.0,0.0,0.0,0.0,0.0,0.0,0.0,0.0,0.0,0.0,0.0,0.0,0.0,0.0,-1.3833,-1.3248,-1.3248,-1.3286,-1.3235,-1.3235,-1.3228,0.0,0.0,0.0,0.0,0.0,0.0,0.0,0.0,0.0,0.0,0.0,0.0,0.0,0.0,0.0,0.0,0.0,0.0,0.0,0.0,0.0,0.0,0.0,0.0,0.0,0.0,0.0,0.0,0.0,0.0,0.0,0.0,0.0,0.0,0.0,0.0,0.0,0.0,0.0,0.0,0.0,0.0,0.0,0.0,0.0,0.0,0.0,0.0,0.0,0.0,0.0,0.0,0.0,0.0,0.0,0.0,0.0,0.0,0.0,0.0,0.0,0.0,0.0,0.0,0.0,0.0,0.0,0.0,0.0,0.0,0.0,0.0,0.0,0.0,0.0,0.0,0.0,0.0,0.0,0.0,0.0,0.0,0.0,0.0,0.0,0.0,0.0,0.0,0.0,0.0,0.0,0.0,0.0,0.0,0.0,0.0,0.0,0.0,0.0,0.0,0.0,0.0,0.0,0.0,0.0,0.0,0.0,0.0,0.0,-1.384,-1.4161,-1.4381,-1.4368,-1.4016,-1.3833,0.0,0.0,0.0,0.0,0.0,0.0,0.0,0.0,0.0,0.0,0.0,0.0,0.0,0.0,0.0,0.0,0.0,0.0,0.0,0.0,0.0,0.0,0.0,0.0,0.0,0.0,0.0,0.0,0.0,0.0,0.0,0.0,0.0,0.0,0.0,0.0,0.0,0.0,0.0,0.0,0.0,0.0,0.0,0.0,0.0,0.0,0.0,0.0,0.0,0.0,0.0,0.0,0.0,0.0,0.0,0.0,0.0,0.0,0.0,0.0,0.0,0.0,0.0,0.0,0.0,0.0,0.0,0.0,0.0,0.0,0.0,0.0,0.0,0.0,0.0,0.0,0.0,0.0,0.0,0.0,0.0,0.0,0.0,0.0,0.0,0.0,0.0,0.0,0.0,0.0,0.0,0.0,0.0,0.0,0.0,0.0,0.0,0.0,0.0,0.0,0.0,0.0,0.0,0.0,0.0,0.0,0.0,0.0,0.0,-1.5331,-1.5437,-1.548,-1.5492,-1.5173,-1.4727,-1.411,0.0,0.0,0.0,0.0,0.0,0.0,0.0,0.0,0.0,0.0,0.0,0.0,0.0,0.0,0.0,0.0,0.0,0.0,0.0,0.0,0.0,0.0,0.0,0.0,0.0,0.0,0.0,0.0,0.0,0.0,0.0,0.0,0.0,0.0,0.0,0.0,0.0,0.0,0.0,0.0,0.0,0.0,0.0,0.0,0.0,0.0,0.0,0.0,0.0,0.0,0.0,0.0,0.0,0.0,0.0,0.0,0.0,0.0,0.0,0.0,0.0,0.0,0.0,0.0,0.0,0.0,0.0,0.0,0.0,0.0,0.0,0.0,0.0,0.0,0.0,0.0,0.0,0.0,0.0,0.0,0.0,0.0,0.0,0.0,0.0,0.0,0.0,0.0,0.0,0.0,0.0,0.0,0.0,0.0,0.0,0.0,0.0,0.0,0.0,0.0,0.0,0.0,0.0,0.0,0.0,0.0,0.0,0.0,-1.7513,-1.7049,-1.6776,-1.6701,-1.6588,-1.5819,0.0,0.0,0.0,0.0,0.0,0.0,0.0,0.0,0.0,0.0,0.0,0.0,0.0,0.0,0.0,0.0,0.0,0.0,0.0,0.0,0.0,0.0,0.0,0.0,0.0,0.0,0.0,0.0,0.0,0.0,0.0,0.0,0.0,0.0,0.0,0.0,0.0,0.0,0.0,0.0,0.0,0.0,0.0,0.0,0.0,0.0,0.0,0.0,0.0,0.0,0.0,0.0,0.0,0.0,0.0,0.0,0.0,0.0,0.0,0.0,0.0,0.0,0.0,0.0,0.0,0.0,0.0,0.0,0.0,0.0,0.0,0.0,0.0,0.0,0.0,0.0,0.0,0.0,0.0,0.0,0.0,0.0,0.0,0.0,0.0,0.0,0.0,0.0,0.0,0.0,0.0,0.0,0.0,0.0,0.0,0.0,0.0,0.0,0.0,0.0,0.0,0.0,0.0,0.0,0.0,0.0,0.0,0.0,0.0,-1.912,-1.9836,-1.9798,-1.8957,-1.779,-1.676,0.0,0.0,0.0,0.0,0.0,0.0,0.0,0.0,0.0,0.0,0.0,0.0,0.0,0.0,0.0,0.0,0.0,0.0,0.0,0.0,0.0,0.0,0.0,0.0,0.0,0.0,0.0,0.0,0.0,0.0,0.0,0.0,0.0,0.0,0.0,0.0,0.0,0.0,0.0,0.0,0.0,0.0,0.0,0.0,0.0,0.0,0.0,0.0,0.0,0.0,0.0,0.0,0.0,0.0,0.0,0.0,0.0,0.0,0.0,0.0,0.0,0.0,0.0,0.0,0.0,0.0,0.0,0.0,0.0,0.0,0.0,0.0,0.0,0.0,0.0,0.0,0.0,0.0,0.0,0.0,0.0,0.0,0.0,0.0,0.0,0.0,0.0,0.0,0.0,0.0,0.0,0.0,0.0,0.0,0.0,0.0,0.0,0.0,0.0,0.0,0.0,0.0,0.0,0.0,0.0,0.0,0.0,0.0,-1.8744,-2.0137,-2.1493,-2.187,-2.1177,-1.9384,-1.7915,0.0,0.0,0.0,0.0,0.0,0.0,0.0,0.0,0.0,0.0,0.0,0.0,0.0,0.0,0.0,0.0,0.0,0.0,0.0,0.0,0.0,0.0,0.0,0.0,0.0,0.0,0.0,0.0,0.0,0.0,0.0,0.0,0.0,0.0,0.0,0.0,0.0,0.0,0.0,0.0,0.0,0.0,0.0,0.0,0.0,0.0,0.0,0.0,0.0,0.0,0.0,0.0,0.0,0.0,0.0,0.0,0.0,0.0,0.0,0.0,0.0,0.0,0.0,0.0,0.0,0.0,0.0,0.0,0.0,0.0,0.0,0.0,0.0,0.0,0.0,0.0,0.0,0.0,0.0,0.0,0.0,0.0,0.0,0.0,0.0,0.0,0.0,0.0,0.0,0.0,0.0,0.0,0.0,0.0,0.0,0.0,0.0,0.0,0.0,0.0,0.0,0.0,0.0,0.0,0.0,0.0,0.0,0.0,-1.9811,-2.0943,-2.2485,-2.3271,-2.3221,-2.1064,-1.9158,0.0,0.0,0.0,0.0,0.0,0.0,0.0,0.0,0.0,0.0,0.0,0.0,0.0,0.0,0.0,0.0,0.0,0.0,0.0,0.0,0.0,0.0,0.0,0.0,0.0,0.0,0.0,0.0,0.0,0.0,0.0,0.0,0.0,0.0,0.0,0.0,0.0,0.0,0.0,0.0,0.0,0.0,0.0,0.0,0.0,0.0,0.0,0.0,0.0,0.0,0.0,0.0,0.0,0.0,0.0,0.0,0.0,0.0,0.0,0.0,0.0,0.0,0.0,0.0,0.0,0.0,0.0,0.0,0.0,0.0,0.0,0.0,0.0,0.0,0.0,0.0,0.0,0.0,0.0,0.0,0.0,0.0,0.0,0.0,0.0,0.0,0.0,0.0,0.0,0.0,0.0,0.0,0.0,0.0,0.0,0.0,0.0,0.0,0.0,0.0,0.0,0.0,0.0,0.0,0.0,0.0,0.0,0.0,-2.1493,-2.2569,-2.3785,-2.4437,-2.4412,-2.1882,-1.9937,0.0,0.0,0.0,0.0,0.0,0.0,0.0,0.0,0.0,0.0,0.0,0.0,0.0,0.0,0.0,0.0,0.0,0.0,0.0,0.0,0.0,0.0,0.0,0.0,0.0,0.0,0.0,0.0,0.0,0.0,0.0,0.0,0.0,0.0,0.0,0.0,0.0,0.0,0.0,0.0,0.0,0.0,0.0,0.0,0.0,0.0,0.0,0.0,-1.0575,0.0,0.0,0.0,0.0,0.0,0.0,0.0,0.0,0.0,0.0,0.0,0.0,0.0,0.0,0.0,0.0,0.0,0.0,0.0,0.0,0.0,0.0,0.0,0.0,0.0,0.0,0.0,0.0,0.0,0.0,0.0,0.0,0.0,0.0,0.0,0.0,0.0,0.0,0.0,0.0,0.0,0.0,0.0,0.0,0.0,0.0,0.0,0.0,0.0,0.0,0.0,0.0,0.0,0.0,0.0,0.0,0.0,0.0,0.0,-2.2159,-2.3471,-2.4336,-2.48,-2.477,-2.3138,-2.1496,0.0,0.0,0.0,0.0,0.0,0.0,0.0,0.0,0.0,0.0,0.0,0.0,0.0,0.0,0.0,0.0,0.0,0.0,0.0,0.0,0.0,0.0,0.0,0.0,0.0,0.0,0.0,0.0,0.0,0.0,0.0,0.0,0.0,0.0,0.0,0.0,0.0,0.0,0.0,0.0,0.0,0.0,0.0,0.0,0.0,0.0,0.0,0.0,0.0,0.0,0.0,0.0,0.0,0.0,0.0,0.0,0.0,0.0,0.0,0.0,0.0,0.0,0.0,0.0,0.0,0.0,0.0,0.0,0.0,0.0,0.0,0.0,0.0,0.0,0.0,0.0,0.0,0.0,0.0,0.0,0.0,0.0,0.0,0.0,0.0,0.0,0.0,0.0,0.0,0.0,0.0,0.0,0.0,0.0,0.0,0.0,0.0,0.0,0.0,0.0,0.0,0.0,0.0,0.0,0.0,0.0,0.0,-2.1066,-2.2686,-2.4305,-2.4833,-2.5084,-2.5059,-2.4456,-2.3215,-2.1142,0.0,0.0,0.0,0.0,0.0,0.0,0.0,0.0,0.0,0.0,0.0,0.0,0.0,0.0,0.0,0.0,0.0,0.0,0.0,0.0,0.0,0.0,0.0,0.0,0.0,0.0,0.0,0.0,0.0,0.0,0.0,0.0,0.0,0.0,0.0,0.0,0.0,0.0,-1.1962,-1.2359,0.0,0.0,0.0,0.0,0.0,0.0,0.0,0.0,-1.2574,0.0,0.0,0.0,0.0,0.0,0.0,0.0,0.0,0.0,0.0,0.0,0.0,0.0,0.0,0.0,0.0,0.0,0.0,0.0,0.0,0.0,0.0,0.0,0.0,0.0,0.0,0.0,0.0,0.0,0.0,0.0,0.0,0.0,0.0,0.0,0.0,0.0,0.0,0.0,0.0,0.0,0.0,0.0,0.0,0.0,0.0,0.0,0.0,0.0,0.0,0.0,0.0,0.0,0.0,0.0,0.0,-2.1716,-2.2975,-2.4393,-2.6034,-2.6172,-2.6223,-2.6197,-2.5327,-2.407,-2.241,0.0,0.0,0.0,0.0,0.0,0.0,0.0,0.0,0.0,0.0,0.0,0.0,0.0,0.0,0.0,0.0,0.0,0.0,0.0,0.0,0.0,0.0,0.0,0.0,0.0,0.0,0.0,0.0,0.0,0.0,0.0,0.0,0.0,0.0,0.0,0.0,0.0,0.0,0.0,-1.2526,-1.3002,0.0,0.0,0.0,0.0,0.0,0.0,0.0,0.0,-1.3202,0.0,0.0,0.0,0.0,0.0,0.0,0.0,0.0,0.0,0.0,0.0,0.0,0.0,0.0,0.0,0.0,0.0,0.0,0.0,0.0,0.0,0.0,0.0,0.0,0.0,0.0,0.0,0.0,0.0,0.0,0.0,0.0,0.0,0.0,0.0,0.0,0.0,0.0,0.0,0.0,0.0,0.0,0.0,0.0,0.0,0.0,0.0,0.0,0.0,0.0,0.0,0.0,0.0,0.0,0.0,-2.223,-2.3703,-2.5084,-2.6436,-2.6487,-2.6487,-2.6461,-2.5529,-2.4467,0.0,0.0,0.0,0.0,0.0,0.0,0.0,0.0,0.0,0.0,0.0,0.0,0.0,0.0,0.0,0.0,0.0,0.0,0.0,0.0,0.0,0.0,0.0,0.0,0.0,0.0,0.0,0.0,0.0,0.0,0.0,0.0,0.0,0.0,0.0,0.0,0.0,0.0,0.0,0.0,-1.3891,-1.4572,-1.4717,0.0,0.0,0.0,0.0,0.0,0.0,-1.4461,-1.4023,0.0,0.0,0.0,0.0,0.0,0.0,0.0,0.0,0.0,0.0,0.0,0.0,0.0,0.0,0.0,0.0,0.0,0.0,0.0,0.0,0.0,0.0,0.0,0.0,0.0,0.0,0.0,0.0,0.0,0.0,0.0,0.0,0.0,0.0,0.0,0.0,0.0,0.0,0.0,0.0,0.0,0.0,0.0,0.0,0.0,0.0,0.0,0.0,0.0,0.0,0.0,0.0,0.0,0.0,0.0,-2.2443,-2.4086,-2.5448,-2.6436,-2.6487,-2.6487,-2.6461,-2.5469,-2.4573,0.0,0.0,0.0,0.0,0.0,0.0,0.0,0.0,0.0,0.0,0.0,0.0,0.0,0.0,0.0,0.0,0.0,0.0,0.0,0.0,0.0,0.0,0.0,0.0,0.0,0.0,0.0,0.0,0.0,0.0,0.0,0.0,0.0,0.0,0.0,0.0,0.0,0.0,0.0,0.0,0.0,-1.5618,-1.5879,-1.5662,0.0,0.0,0.0,0.0,-1.5441,-1.5236,0.0,0.0,0.0,0.0,0.0,0.0,0.0,0.0,0.0,0.0,0.0,0.0,0.0,0.0,0.0,0.0,0.0,0.0,0.0,0.0,0.0,0.0,0.0,0.0,0.0,0.0,0.0,0.0,0.0,0.0,0.0,0.0,0.0,0.0,0.0,0.0,0.0,0.0,0.0,0.0,0.0,0.0,0.0,0.0,0.0,0.0,0.0,0.0,0.0,0.0,0.0,0.0,0.0,0.0,0.0,0.0,-2.2995,-2.4669,-2.5858,-2.6449,-2.6487,-2.6487,-2.6461,-2.5282,-2.4408,0.0,0.0,0.0,0.0,0.0,0.0,0.0,0.0,0.0,0.0,0.0,0.0,0.0,0.0,0.0,0.0,0.0,0.0,0.0,0.0,0.0,0.0,0.0,0.0,0.0,0.0,0.0,0.0,0.0,0.0,0.0,0.0,0.0,0.0,0.0,0.0,0.0,0.0,0.0,0.0,0.0,-1.4464,-1.5802,-1.5649,-1.5335,0.0,0.0,-1.6029,-1.6039,-1.6365,0.0,0.0,0.0,0.0,0.0,0.0,0.0,0.0,0.0,0.0,0.0,0.0,0.0,0.0,0.0,0.0,0.0,0.0,0.0,0.0,0.0,0.0,0.0,0.0,0.0,0.0,0.0,0.0,0.0,0.0,0.0,0.0,0.0,0.0,0.0,0.0,0.0,0.0,0.0,0.0,0.0,0.0,0.0,0.0,0.0,0.0,0.0,0.0,0.0,0.0,0.0,0.0,0.0,0.0,0.0,-2.1794,-2.3108,-2.5071,-2.6235,-2.6487,-2.6487,-2.6726,-2.7162,-2.5699,-2.4886,0.0,0.0,0.0,0.0,0.0,0.0,0.0,0.0,0.0,0.0,0.0,0.0,0.0,0.0,0.0,0.0,0.0,0.0,0.0,0.0,0.0,0.0,0.0,0.0,0.0,0.0,0.0,0.0,0.0,0.0,0.0,0.0,0.0,0.0,0.0,0.0,0.0,0.0,0.0,0.0,0.0,0.0,-1.6089,-1.6337,0.0,0.0,0.0,-1.6165,-1.6125,0.0,0.0,0.0,0.0,0.0,0.0,0.0,0.0,0.0,0.0,0.0,0.0,0.0,0.0,0.0,0.0,0.0,0.0,0.0,0.0,0.0,0.0,0.0,0.0,0.0,0.0,0.0,0.0,0.0,0.0,0.0,0.0,0.0,0.0,0.0,0.0,0.0,0.0,0.0,0.0,0.0,0.0,0.0,0.0,0.0,0.0,0.0,0.0,0.0,0.0,0.0,0.0,0.0,0.0,0.0,0.0,0.0,-2.312,-2.5322,-2.6487,-2.6487,-2.6726,-2.7095,-2.7644,-2.6441,0.0,0.0,0.0,0.0,0.0,0.0,0.0,0.0,0.0,0.0,0.0,0.0,0.0,0.0,0.0,0.0,0.0,0.0,0.0,0.0,0.0,0.0,0.0,0.0,0.0,0.0,0.0,-1.4824,0.0,0.0,0.0,0.0,0.0,0.0,0.0,0.0,0.0,0.0,0.0,0.0,0.0,0.0,-1.698,-1.643,-1.7068,-1.7386,0.0,0.0,-1.63,-1.6408,-1.6758,-1.6572,0.0,0.0,0.0,0.0,0.0,0.0,0.0,0.0,0.0,0.0,0.0,0.0,0.0,0.0,0.0,0.0,0.0,0.0,0.0,0.0,0.0,0.0,0.0,0.0,0.0,0.0,0.0,0.0,0.0,0.0,0.0,0.0,0.0,0.0,0.0,0.0,0.0,0.0,0.0,0.0,0.0,0.0,0.0,0.0,0.0,0.0,0.0,0.0,0.0,0.0,0.0,0.0,0.0,0.0,-2.2033,-2.3133,-2.5368,-2.6487,-2.6521,-2.7229,-2.7637,-2.769,-2.7605,-2.7031,0.0,0.0,0.0,0.0,0.0,0.0,0.0,0.0,0.0,0.0,0.0,0.0,0.0,0.0,0.0,0.0,0.0,0.0,0.0,0.0,0.0,0.0,0.0,0.0,0.0,0.0,0.0,0.0,0.0,0.0,0.0,0.0,0.0,0.0,0.0,0.0,0.0,0.0,0.0,0.0,0.0,-1.683,-1.685,-1.7478,-1.7802,0.0,-1.6973,-1.6794,-1.7227,-1.7637,-1.7311,-1.5615,0.0,0.0,0.0,0.0,0.0,0.0,0.0,0.0,0.0,0.0,0.0,0.0,0.0,0.0,0.0,0.0,0.0,0.0,0.0,0.0,0.0,0.0,0.0,0.0,0.0,0.0,0.0,0.0,0.0,0.0,0.0,0.0,0.0,0.0,0.0,0.0,0.0,0.0,0.0,0.0,0.0,0.0,0.0,0.0,0.0,0.0,0.0,0.0,0.0,0.0,0.0,0.0,0.0,-2.2343,-2.312,-2.5355,-2.6748,-2.7229,-2.7537,-2.8201,-2.9272,-2.881,-2.8226,0.0,0.0,0.0,0.0,0.0,0.0,0.0,0.0,0.0,0.0,0.0,0.0,0.0,0.0,0.0,0.0,0.0,0.0,0.0,0.0,0.0,0.0,0.0,0.0,0.0,0.0,0.0,0.0,-1.8894,-1.9334,-1.902,0.0,0.0,0.0,0.0,0.0,0.0,0.0,0.0,0.0,0.0,-1.7872,-1.7837,-1.8142,0.0,0.0,-1.7246,-1.7132,-1.7152,-1.7409,-1.7161,-1.5812,-1.5154,0.0,0.0,0.0,0.0,0.0,0.0,0.0,0.0,0.0,0.0,0.0,0.0,0.0,0.0,0.0,0.0,0.0,0.0,0.0,0.0,0.0,0.0,0.0,0.0,0.0,0.0,0.0,0.0,0.0,0.0,0.0,0.0,0.0,0.0,0.0,0.0,0.0,0.0,0.0,0.0,0.0,0.0,0.0,0.0,0.0,0.0,0.0,0.0,0.0,0.0,0.0,0.0,-2.269,-2.3501,-2.5735,-2.7263,-2.8071,-2.8084,-2.8812,-3.0224,-2.9747,-2.9233,0.0,0.0,0.0,0.0,0.0,0.0,0.0,0.0,0.0,0.0,0.0,0.0,0.0,0.0,0.0,0.0,0.0,0.0,0.0,0.0,0.0,0.0,0.0,0.0,0.0,0.0,0.0,0.0,-1.9849,-1.9987,-1.887,0.0,0.0,0.0,0.0,0.0,0.0,0.0,0.0,0.0,0.0,-1.9408,-1.8802,-1.8966,-1.8807,-1.7704,-1.7392,-1.7243,-1.7189,-1.7302,-1.7129,-1.6307,0.0,0.0,0.0,0.0,0.0,0.0,0.0,0.0,0.0,0.0,0.0,0.0,0.0,0.0,0.0,0.0,0.0,0.0,0.0,0.0,0.0,0.0,0.0,0.0,0.0,0.0,0.0,-1.8141,0.0,0.0,-1.7348,0.0,0.0,0.0,0.0,0.0,0.0,0.0,0.0,0.0,0.0,0.0,0.0,0.0,0.0,0.0,0.0,0.0,0.0,0.0,0.0,0.0,0.0,-2.301,-2.4368,-2.653,-2.8084,-2.8925,-2.8971,-2.9397,-3.0269,-3.027,-3.0061,-2.9537,0.0,0.0,0.0,0.0,0.0,0.0,0.0,0.0,0.0,0.0,0.0,0.0,0.0,0.0,0.0,0.0,0.0,0.0,0.0,0.0,0.0,0.0,0.0,0.0,0.0,0.0,-1.892,-1.9497,-1.9397,0.0,0.0,0.0,0.0,0.0,0.0,0.0,0.0,0.0,-1.8234,-2.0382,-2.1299,-1.9634,-2.0037,-1.9912,-1.8184,-1.7438,-1.7172,-1.7564,-1.7502,-1.7367,0.0,0.0,0.0,0.0,0.0,0.0,0.0,0.0,0.0,0.0,0.0,0.0,0.0,0.0,0.0,0.0,0.0,0.0,0.0,0.0,0.0,0.0,0.0,0.0,0.0,0.0,0.0,-1.843,-1.9221,0.0,0.0,0.0,0.0,0.0,0.0,0.0,0.0,0.0,0.0,0.0,-2.228,-2.2322,0.0,0.0,0.0,0.0,0.0,0.0,0.0,0.0,0.0,0.0,0.0,0.0,-2.375,-2.5135,-2.681,-2.8395,-2.9813,-2.9858,-3.0254,-3.1102,-3.1102,-3.064,-2.9624,0.0,0.0,0.0,0.0,0.0,0.0,0.0,0.0,0.0,0.0,0.0,0.0,0.0,0.0,0.0,0.0,0.0,0.0,0.0,0.0,0.0,0.0,0.0,0.0,0.0,-1.9145,0.0,0.0,0.0,0.0,0.0,0.0,0.0,0.0,0.0,0.0,0.0,-2.0146,-2.0745,-2.1531,-2.1633,-2.0467,-2.0565,-2.0454,0.0,0.0,0.0,0.0,0.0,0.0,0.0,0.0,0.0,0.0,0.0,0.0,0.0,0.0,-1.6429,-1.4267,-1.4001,-1.4082,-1.3945,0.0,0.0,0.0,0.0,0.0,0.0,0.0,0.0,0.0,0.0,0.0,0.0,0.0,0.0,-2.005,-2.0732,-2.0704,0.0,0.0,0.0,0.0,0.0,0.0,0.0,0.0,-2.3598,-2.4131,-2.44,-2.4103,-2.4046,-2.4119,-2.3636,-2.2569,0.0,0.0,0.0,0.0,0.0,0.0,0.0,0.0,-2.4657,-2.6091,-2.7752,-2.9272,-3.0614,-3.0434,-3.0688,-3.1467,-3.1496,-3.1107,-3.0283,-2.9415,-2.8143,0.0,0.0,0.0,0.0,0.0,0.0,0.0,0.0,0.0,0.0,0.0,0.0,0.0,0.0,0.0,0.0,0.0,0.0,0.0,0.0,0.0,0.0,0.0,-2.0313,0.0,0.0,0.0,0.0,0.0,0.0,0.0,0.0,0.0,-1.9533,-2.0824,-2.1952,-2.2418,-2.2787,-2.2584,-2.1356,0.0,0.0,0.0,0.0,0.0,0.0,0.0,-1.905,-1.9113,-1.9467,-1.9933,-2.0415,-2.0621,-2.0748,-2.0706,0.0,0.0,-1.6693,-1.6257,-1.6227,-1.5802,-1.5566,-1.5371,-1.5069,-1.5011,-1.5137,0.0,0.0,0.0,0.0,-1.9119,0.0,0.0,0.0,-2.2438,-2.2578,0.0,-2.2559,0.0,0.0,0.0,0.0,-2.1675,-2.2883,0.0,0.0,-2.6134,-2.6699,-2.6873,-2.6101,-2.5877,-2.6109,-2.4851,-2.4816,-2.5812,-2.4504,0.0,0.0,0.0,0.0,0.0,0.0,-2.5771,-2.7298,-2.9259,-3.0688,-3.1438,-3.0748,-3.0703,-3.1467,-3.1496,-3.1481,-3.1451,-3.0313,-2.9651,-2.9547,-2.6527,0.0,0.0,0.0,0.0,0.0,0.0,0.0,0.0,0.0,0.0,0.0,0.0,0.0,0.0,0.0,0.0,0.0,0.0,0.0,0.0,-2.1287,0.0,0.0,0.0,0.0,0.0,0.0,0.0,0.0,0.0,-2.1343,-2.0905,-2.213,-2.312,-2.3133,0.0,0.0,0.0,0.0,-2.2627,-2.0828,-2.0269,-2.0118,-2.0176,-2.0461,-2.0881,-2.1523,0.0,0.0,-2.292,-2.2586,-2.2282,-2.227,-2.2696,-2.218,-1.9639,-1.8699,-1.8114,-1.7553,-1.71,-1.6804,-1.6775,-1.6775,-1.6924,-2.3646,0.0,0.0,0.0,0.0,-2.2574,-2.3591,-2.529,-2.5276,-2.5563,-2.5898,-2.5285,0.0,0.0,0.0,0.0,0.0,0.0,-2.5788,-2.7338,-2.7686,-2.8053,-2.8407,-2.8138,-2.8075,-2.8134,-2.7751,-2.7775,-2.8133,-2.8312,-2.6764,-2.365,0.0,0.0,0.0,0.0,-2.6932,-2.89,-2.9868,-3.0673,-3.1467,-3.1278,-3.1248,-3.1496,-3.1496,-3.1496,-3.1496,-3.1137,-3.0509,-2.9636,-2.8682,0.0,0.0,0.0,0.0,0.0,0.0,0.0,0.0,0.0,0.0,0.0,0.0,0.0,0.0,0.0,0.0,0.0,0.0,0.0,-2.1826,-2.2334,-2.1958,0.0,0.0,0.0,0.0,0.0,0.0,0.0,0.0,0.0,-2.3012,-2.3439,-2.374,0.0,0.0,-2.3223,-2.2171,-2.2595,-2.2985,-2.2856,-2.222,0.0,-2.2992,-2.2718,-2.2448,-2.265,-2.361,-2.4367,-2.4447,-2.489,-2.5244,-2.5219,-2.5379,-2.4766,-2.2667,-2.1272,-2.0142,-1.9062,-1.8633,-1.8555,-1.8555,-1.8555,-1.8584,-2.7812,-2.6818,-2.4844,-2.4376,-2.4984,-2.4998,-2.5939,-2.748,-2.7494,-2.7593,-2.7688,-2.7032,-2.614,-2.5116,-2.4606,0.0,0.0,0.0,-2.7508,-2.9017,-2.8759,-2.8923,-2.9473,-2.9146,-2.9192,-2.9473,-2.9146,-2.9348,-2.9981,-2.9889,-2.8915,-2.7059,0.0,-2.6101,-2.6601,-2.7172,-2.8225,-2.9783,-3.0485,-3.1014,-3.1482,-3.1496,-3.1496,-3.1496,-3.1496,-3.1496,-3.1496,-3.1496,-3.1137,-3.0387,-2.9864,-2.8682,0.0,0.0,0.0,0.0,0.0,0.0,0.0,0.0,0.0,0.0,0.0,-2.212,-2.2089,0.0,0.0,0.0,-2.2801,-2.2888,-2.3263,-2.317,0.0,0.0,0.0,0.0,0.0,0.0,0.0,-2.1581,-2.2711,-2.3615,-2.3954,-2.4192,-2.4406,-2.4607,-2.433,-2.3854,-2.3267,0.0,-2.401,-2.4166,-2.3715,-2.3614,-2.4352,-2.4234,-2.4079,-2.4398,-2.5086,-2.5642,-2.5679,-2.6136,-2.6474,-2.6487,-2.6487,-2.5978,-2.4409,-2.3388,-2.2142,-2.0255,-1.9832,-1.9795,-1.9832,-1.9822,-1.9832,-3.135,-3.1096,-2.658,-2.5551,-2.6877,-2.6905,-2.7785,-2.9164,-2.9209,-2.8996,-2.8612,-2.8133,-2.736,-2.6444,-2.6377,0.0,-2.8219,-2.8382,-2.9128,-3.0287,-2.9594,-2.9699,-3.0431,-2.9738,-2.9783,-3.0548,-2.9752,-3.0154,-3.1529,-3.0206,-2.9798,-3.0461,-2.9811,-2.8994,-2.8102,-2.8908,-2.9668,-3.0275,-3.1156,-3.16,-3.166,-3.166,-3.163,-3.16,-3.1585,-3.1555,-3.1496,-3.1496,-3.1496,-3.1466,-3.0387,-2.9711,-2.9517,0.0,0.0,0.0,0.0,0.0,0.0,0.0,0.0,0.0,0.0,0.0,0.0,0.0,0.0,0.0,-2.44,0.0,-2.4845,-2.3873,0.0,0.0,0.0,-2.1845,-2.2355,-2.2498,-2.2681,-2.317,0.0,0.0,-2.4117,-2.4569,-2.5071,-2.5598,-2.5586,-2.536,-2.4883,-2.5197,-2.5423,-2.4933,-2.4803,-2.4743,-2.4842,-2.5141,-2.5606,-2.618,-2.6487,-2.6427,-2.6414,-2.6474,-2.6487,-2.6487,-2.6487,-2.6164,-2.5194,-2.4874,-2.4156,-2.1382,-2.0855,-2.0875,-2.0913,-2.0941,-2.0931,-3.144,-3.1452,-3.0774,-3.0408,-3.0292,-3.0292,-3.0528,-3.0881,-3.0911,-3.0837,-3.072,-3.0001,-2.8898,-2.7595,-2.7056,-2.7367,-2.831,-2.8825,-2.958,-3.0479,-3.1309,-3.1781,-3.199,-3.2267,-3.2533,-3.2717,-3.2533,-3.2626,-3.299,-3.2645,-3.2287,-3.196,-3.1796,-3.1038,-2.9799,-3.0448,-3.1173,-3.1945,-3.2139,-3.2527,-3.3006,-3.3036,-3.2796,-3.2258,-3.2287,-3.2019,-3.1525,-3.1496,-3.1496,-3.1496,-3.1212,-3.0612,-2.9651,-2.7884,0.0,0.0,0.0,0.0,0.0,0.0,0.0,0.0,0.0,-2.4093,-2.3789,0.0,-2.5709,0.0,-2.514,-2.5272,-2.5398,-2.4788,0.0,0.0,-2.3133,-2.2962,-2.354,-2.3979,-2.4249,-2.4374,-2.4895,-2.5222,-2.5222,-2.5322,-2.5624,-2.6185,-2.5523,-2.4958,-2.4813,-2.5272,-2.5548,-2.5473,-2.5762,-2.6029,-2.6017,-2.6129,-2.6302,-2.6474,-2.6487,-2.6487,-2.6487,-2.6487,-2.6487,-2.6487,-2.6487,-2.6082,-2.5229,-2.5004,-2.4528,-2.3147,-2.2813,-2.2787,-2.2824,-2.2787,-2.2787,-3.1929,-3.1944,-3.2034,-3.1824,-3.154,-3.2123,-3.2378,-3.2363,-3.2064,-3.1944,-3.1885,-3.0789,-2.9825,-2.9001,-2.8633,-2.8939,-2.9739,-3.0119,-3.0512,-3.0987,-3.2033,-3.2497,-3.2512,-3.3185,-3.3499,-3.3499,-3.3499,-3.3499,-3.3499,-3.3499,-3.3305,-3.2961,-3.3245,-3.2841,-3.1766,-3.1499,-3.1588,-3.2049,-3.2333,-3.2826,-3.3469,-3.3499,-3.3185,-3.2542,-3.2198,-3.172,-3.1091,-3.0793,-3.0629,-3.0672,-3.0657,-3.0342,-2.9636,-2.8319,-2.6971,0.0,0.0,0.0,0.0,0.0,0.0,0.0,0.0,0.0,0.0,0.0,-2.6178,-2.513,-2.5389,-2.5511,-2.5272,-2.4951,-2.4795,-2.472,-2.4431,-2.4456,-2.5021,-2.536,-2.5548,-2.5548,-2.5833,-2.6021,-2.5988,-2.6009,-2.6122,-2.6449,-2.5971,-2.5548,-2.5561,-2.5845,-2.6021,-2.6,-2.6285,-2.6487,-2.6487,-2.6487,-2.6487,-2.6487,-2.6487,-2.6487,-2.6487,-2.6487,-2.6487,-2.6487,-2.6487,-2.6349,-2.5804,-2.5664,-2.5476,-2.5063,-2.4838,-2.4505,-2.3708,-2.3478,-2.3478,-3.2647,-3.2572,-3.2079,-3.1869,-3.1959,-3.323,-3.3559,-3.32,-3.2632,-3.2363,-3.2288,-3.0924,-3.0319,-3.0334,-3.0247,-3.0588,-3.1256,-3.1331,-3.1376,-3.1421,-3.2138,-3.2497,-3.2542,-3.3185,-3.3529,-3.3619,-3.3619,-3.3649,-3.3754,-3.3754,-3.3694,-3.3649,-3.4219,-3.4174,-3.3484,-3.2362,-3.1765,-3.1765,-3.2497,-3.3185,-3.3724,-3.3679,-3.3305,-3.2662,-3.1974,-3.1316,-3.0672,-3.0118,-2.9834,-2.9861,-2.9786,-2.9771,-2.9789,-2.8513,-2.751,0.0,-2.5663,0.0,0.0,0.0,0.0,0.0,0.0,0.0,0.0,-2.6624,-2.6184,-2.5185,-2.5421,-2.5435,-2.5059,-2.5034,-2.5209,-2.5649,-2.5699,-2.59,-2.6424,-2.6487,-2.6487,-2.6487,-2.6487,-2.6487,-2.6474,-2.6487,-2.6487,-2.6487,-2.6449,-2.6386,-2.6461,-2.6449,-2.6449,-2.6487,-2.6487,-2.6487,-2.6487,-2.6487,-2.6487,-2.6487,-2.6487,-2.6487,-2.6487,-2.6487,-2.6487,-2.6487,-2.6487,-2.6487,-2.6487,-2.6452,-2.6452,-2.6349,-2.6302,-2.5838,-2.4469,-2.4072,-2.3891,-3.3305,-3.335,-3.3754,-3.3918,-3.3993,-3.4786,-3.3857,-3.1869,-3.1735,-3.169,-3.163,-3.0815,-3.0446,-3.0401,-2.9969,-2.9801,-2.9983,-3.0477,-3.0702,-3.0746,-3.1929,-3.2497,-3.2527,-3.3185,-3.3769,-3.4294,-3.4324,-3.4577,-3.513,-3.513,-3.4846,-3.4307,-3.4459,-3.4189,-3.3514,0.0,0.0,0.0,-3.4322,-3.5011,-3.51,-3.4577,-3.3963,-3.332,-3.2677,0.0,-3.1346,-3.1197,-3.1137,-3.1122,-3.0627,0.0,0.0,0.0,0.0,0.0,0.0,0.0,0.0,0.0,0.0,0.0,-2.67,-2.6176,-2.6325,-2.5891,-2.5614,-2.5706,-2.5648,-2.5749,-2.6147,-2.6185,-2.6223,-2.6311,-2.6336,-2.6386,-2.6487,-2.6487,-2.6487,-2.6487,-2.6487,-2.6487,-2.6487,-2.6487,-2.6487,-2.6487,-2.6487,-2.6487,-2.6487,-2.6487,-2.6487,-2.6487,-2.6487,-2.6487,-2.6487,-2.6487,-2.6487,-2.6487,-2.6487,-2.6487,-2.6487,-2.6487,-2.6487,-2.6487,-2.6487,-2.6487,-2.6487,-2.6487,-2.6487,-2.6487,-2.6487,-2.6383,-2.6013,-2.5908,-2.5943,-3.371,-3.3978,-3.4024,-3.4024,0.0,-3.4367,-3.3754,-3.2527,-3.2841,-3.2811,-3.2482,-3.2123,-3.1973,-3.1958,-3.1659,-3.1509,-3.1524,-3.1839,-3.1973,-3.2033,-3.3021,-3.3484,-3.3499,-3.4173,-3.4666,-3.4966,-3.4981,-3.5175,-3.5489,-3.5489,-3.5325,-3.5028,-3.4981,-3.4816,-3.4502,-3.4487,-3.4307,-3.4009,-3.4651,-3.516,-3.5474,-3.5175,-3.4666,-3.4024,-3.335,0.0,0.0,0.0,0.0,0.0,0.0,0.0,0.0,-3.0073,-2.9549,-2.9564,-2.8599,-2.8263,-2.8845,-2.8286,-2.8266,-2.9131,-2.8396,-2.74,-2.6302,-2.602,-2.597,-2.6181,-2.6093,-2.6172,-2.6461,-2.6487,-2.6487,-2.6487,-2.6487,-2.6487,-2.6487,-2.6487,-2.6487,-2.6487,-2.6487,-2.6487,-2.6487,-2.6487,-2.6487,-2.6487,-2.6487,-2.6487,-2.6487,-2.6487,-2.6487,-2.6487,-2.6487,-2.6487,-2.6487,-2.6487,-2.6487,-2.6487,-2.6487,-2.6487,-2.6487,-2.6487,-2.6487,-2.6487,-2.6487,-2.6487,-2.6487,-2.6487,-2.6487,-2.6487,-2.6487,-2.6487,-2.6487,-2.6487,-2.6487,-3.4173,-3.4638,-3.4068,-3.3858,-3.3858,-3.3858,-3.3858,-3.3873,-3.4158,0.0,0.0,-3.3499,-3.3499,-3.3499,-3.3499,-3.3499,-3.3499,-3.3499,-3.3499,-3.3529,-3.4084,-3.4339,-3.4369,-3.4891,-3.528,-3.5489,-3.5489,-3.5624,-3.5833,-3.5744,-3.5669,-3.5669,-3.5579,-3.5489,-3.5489,-3.5489,-3.5235,-3.4681,-3.4683,-3.4921,-3.5474,-3.5385,-3.5055,-3.4518,-3.3874,-3.3245,-3.2706,-3.2138,-3.1854,-3.1854,-3.175,-3.1466,-3.1061,-3.0806,-3.0447,-2.9939,-2.931,-2.9355,-3.0268,-2.937,-2.9167,-3.0058,-2.9711,-2.8654,-2.6746,-2.6683,-2.6714,-2.6714,-2.6589,-2.6487,-2.6487,-2.6487,-2.6487,-2.6487,-2.6487,-2.6487,-2.6487,-2.6487,-2.6487,-2.6487,-2.6487,-2.6487,-2.6487,-2.6487,-2.6487,-2.6487,-2.6487,-2.6487,-2.6487,-2.6487,-2.6487,-2.6487,-2.6487,-2.6487,-2.6487,-2.6487,-2.6487,-2.6487,-2.6487,-2.6487,-2.6487,-2.6487,-2.6487,-2.6487,-2.6487,-2.6487,-2.6487,-2.6487,-2.6487,-2.6487,-2.6487,-2.6487,-2.6487,-2.6487,-2.6487,-3.5265,-3.5355,-3.5265,-3.522,-3.522,-3.522,-3.522,-3.513,-3.4098,-3.3574,-3.3499,-3.3499,-3.3499,-3.3499,-3.3499,-3.3499,-3.3499,-3.3499,-3.3499,-3.3499,-3.3604,-3.3634,-3.3634,-3.3724,-3.4382,-3.5444,-3.5504,-3.6073,-3.6971,-3.6596,-3.6342,-3.6282,-3.5789,-3.5504,-3.5489,-3.5489,-3.5459,-3.537,-3.5355,-3.54,-3.5489,-3.4921,-3.4608,-3.4488,-3.3844,-3.3455,-3.3365,-3.3275,-3.3215,-3.3215,-3.2691,-3.2587,-3.2991,-3.1974,-3.1316,-3.1212,-3.0612,-3.0088,-2.9771,-2.9562,-2.9218,-2.8726,-2.9564,-2.9716,-2.8688,-2.7946,-2.755,-2.7517,-2.6905,-2.6487,-2.6487,-2.6487,-2.6487,-2.6487,-2.6487,-2.6487,-2.6487,-2.6487,-2.6487,-2.6487,-2.6487,-2.6487,-2.6487,-2.6487,-2.6487,-2.6487,-2.6487,-2.6487,-2.6487,-2.6487,-2.6487,-2.6487,-2.6487,-2.6487,-2.6487,-2.6487,-2.6487,-2.6487,-2.6487,-2.6487,-2.6487,-2.6487,-2.6487,-2.6487,-2.6487,-2.6487,-2.6487,-2.6487,-2.6487,-2.6487,-2.6487,-2.6487,-2.6487,-2.6487,-2.6487,-3.5489,-3.5489,-3.5489,-3.5489,-3.5489,-3.5489,-3.5489,-3.5444,-3.4861,-3.4577,-3.4592,-3.4592,-3.4592,-3.4592,-3.4592,-3.4592,-3.4592,-3.4592,-3.4592,-3.4577,-3.4592,-3.4592,-3.4577,-3.4592,-3.51,-3.5998,-3.6043,-3.6507,-3.7315,-3.7105,-3.6985,-3.6941,-3.6342,-3.5863,-3.5519,-3.5489,-3.5489,-3.5489,-3.5489,-3.5489,-3.5489,-3.5205,-3.504,-3.5026,-3.4726,-3.4592,-3.4577,-3.4592,-3.4577,-3.4592,-3.4307,-3.4098,-3.3993,-3.3125,-3.2407,-3.2048,-3.0761,-3.0028,-3.0088,-2.943,-2.8866,-2.85,-2.9029,-2.9373,-2.9319,-2.8315,-2.7558,-2.7203,-2.6734,-2.6487,-2.6487,-2.6487,-2.6487,-2.6487,-2.6487,-2.6487,-2.6487,-2.6487,-2.6487,-2.6487,-2.6487,-2.6487,-2.6487,-2.6487,-2.6487,-2.6487,-2.6487,-2.6487,-2.6487,-2.6487,-2.6487,-2.6487,-2.6487,-2.6487,-2.6487,-2.6487,-2.6487,-2.6487,-2.6487,-2.6487,-2.6487,-2.6487,-2.6487,-2.6487,-2.6487,-2.6487,-2.6487,-2.6487,-2.6487,-2.6487,-2.6487,-2.6487,-2.6487,-2.6487,-2.6487,-3.5923,-3.5938,-3.5938,-3.5848,-3.5714,-3.5564,-3.5489,-3.5489,-3.5489,-3.5489,-3.5489,-3.5489,-3.5489,-3.5489,-3.5489,-3.5489,-3.5489,-3.5489,-3.5489,-3.5489,-3.5489,-3.5489,-3.5489,-3.5489,-3.5848,-3.6432,-3.6492,-3.6806,-3.7345,-3.7404,-3.7404,-3.733,-3.6791,-3.6222,-3.5729,-3.5579,-3.5489,-3.5489,-3.5489,-3.5489,-3.5489,-3.5489,-3.5489,-3.5489,-3.5489,-3.5489,-3.5489,-3.5489,-3.5489,-3.5489,-3.5489,-3.519,-3.4548,-3.4008,-3.329,-3.2302,-3.0866,-3.0088,-3.0223,-2.9535,-2.8891,-2.8637,-2.8876,-2.9056,-2.9056,-2.835,-2.769,-2.7327,-2.7066,-2.694,-2.7056,-2.6871,-2.6782,-2.6769,-2.6589,-2.6487,-2.6487,-2.6487,-2.6487,-2.6487,-2.6487,-2.6487,-2.6487,-2.6487,-2.6487,-2.6487,-2.6487,-2.6487,-2.6487,-2.6487,-2.6487,-2.6487,-2.6487,-2.6487,-2.6487,-2.6487,-2.6487,-2.6487,-2.6487,-2.6487,-2.6487,-2.6487,-2.6487,-2.6487,-2.6487,-2.6487,-2.6487,-2.6487,-2.6487,-2.6487,-2.6487,-2.6487,-2.6487,-2.6487,-2.6487,-3.721,-3.724,-3.718,-3.6911,-3.6357,-3.5789,-3.5549,-3.5549,-3.5504,-3.5489,-3.5534,-3.5504,-3.5519,-3.5489,-3.5489,-3.5489,-3.5489,-3.5489,-3.5489,-3.5489,-3.5489,-3.5489,-3.5489,-3.5489,-3.5848,-3.6432,-3.6492,-3.6806,-3.7389,-3.7434,-3.7419,-3.733,-3.6791,-3.6507,-3.6342,-3.5818,-3.5504,-3.5504,-3.5489,-3.5489,-3.5489,-3.5489,-3.5489,-3.5489,-3.5489,-3.5489,-3.5489,-3.5489,-3.5489,-3.5489,-3.5489,-3.519,-3.4593,-3.4429,-3.3544,-3.178,-3.1406,-3.0868,-2.9849,-3.0073,-2.9774,-2.8831,-2.9639,-2.9549,-2.8143,-2.8128,-2.851,-2.8733,-2.8299,-2.8044,-2.8634,-2.8038,-2.7597,-2.7516,-2.7003,-2.6487,-2.6562,-2.6487,-2.6487,-2.6487,-2.6587,-2.6499,-2.6549,-2.6524,-2.6487,-2.6487,-2.6487,-2.6487,-2.6487,-2.6487,-2.6487,-2.6487,-2.6487,-2.6487,-2.6487,-2.6487,-2.6487,-2.6487,-2.6487,-2.6487,-2.6487,-2.6487,-2.6487,-2.6487,-2.6487,-2.6487,-2.6487,-2.6487,-2.6487,-2.6487,-2.6487,-2.6487,-2.6487,-2.6487,-2.6487,-3.7404,-3.7404,-3.7404,-3.727,-3.7,-3.6731,-3.6641,-3.6641,-3.6626,-3.6432,-3.6103,-3.6088,-3.5878,-3.5504,-3.5489,-3.5489,-3.5489,-3.5489,-3.5489,-3.5489,-3.5489,-3.5489,-3.5489,-3.5489,-3.5863,-3.6432,-3.6492,-3.6806,-3.7375,-3.7793,-3.7808,-3.7494,-3.7509,-3.7419,-3.7015,-3.6402,-3.6088,-3.6073,-3.5699,-3.5489,-3.5489,-3.5489,-3.5489,-3.5489,-3.5489,-3.5489,-3.5489,-3.5489,-3.5489,-3.5489,-3.5489,-3.519,-3.4548,-3.4144,-3.3365,-3.2138,-3.1316,-3.0537,-2.9681,-2.9819,-2.9771,-2.9232,-2.9639,-2.9592,-2.8903,-2.8954,-2.9335,-2.9723,-2.8801,-2.8123,-2.8429,-2.8448,-2.84,-2.8199,-2.7866,-2.7631,-2.7465,-2.7454,-2.7431,-2.7419,-2.7178,-2.6977,-2.6927,-2.67,-2.6512,-2.6487,-2.6487,-2.6487,-2.6487,-2.6487,-2.6487,-2.6487,-2.6487,-2.6487,-2.6487,-2.6487,-2.6487,-2.6487,-2.6487,-2.6487,-2.6487,-2.6487,-2.6487,-2.6487,-2.6487,-2.6487,-2.6487,-2.6487,-2.6487,-2.6487,-2.6487,-2.6487,-2.6487,-2.6487,-2.6487,-3.7923,-3.7928,-3.7778,-3.7689,-3.7659,-3.7479,-3.7404,-3.7404,-3.7404,-3.715,-3.6761,-3.6731,-3.6477,-3.6013,-3.5684,-3.5489,-3.5489,-3.5489,-3.5489,-3.5489,-3.5489,-3.5489,-3.5489,-3.5504,-3.5744,-3.6148,-3.6207,-3.6537,-3.7195,-3.8018,-3.8153,-3.7823,-3.8153,-3.8138,-3.7659,-3.7045,-3.6656,-3.6447,-3.5998,-3.5699,-3.5534,-3.5489,-3.5489,-3.5489,-3.5489,-3.5489,-3.5489,-3.5489,-3.5489,-3.5489,-3.5489,-3.519,-3.4548,-3.4023,-3.3395,-3.2527,-3.1406,-3.0597,-3.0148,-3.0118,-3.0043,-2.9864,-2.9834,-2.9771,-2.9651,-2.9621,-2.9801,-3.008,-2.9449,-2.9096,-2.9261,-2.9613,-2.973,-2.9536,-2.9342,-2.9024,-2.8549,-2.8471,-2.8361,-2.8132,-2.772,-2.7507,-2.7444,-2.7067,-2.6763,-2.6751,-2.66,-2.6487,-2.6487,-2.6487,-2.6487,-2.6487,-2.6487,-2.6487,-2.6487,-2.6487,-2.6487,-2.6487,-2.6487,-2.6487,-2.6487,-2.6487,-2.6487,-2.6487,-2.6487,-2.6487,-2.6487,-2.6487,-2.6487,-2.6487,-2.6487,-2.6487,-2.6487,-2.6487,-2.6487,-3.9298,-3.9215,-3.8601,-3.8347,-3.8302,-3.7734,-3.7449,-3.7554,-3.7479,-3.7419,-3.7389,-3.736,-3.7345,-3.718,-3.6103,-3.5519,-3.5519,-3.5504,-3.5489,-3.5489,-3.5489,-3.5489,-3.5489,-3.5489,-3.5534,-3.5714,-3.5654,-3.5953,-3.6611,-3.7778,-3.8377,-3.8332,-3.8407,-3.8392,-3.8257,-3.7704,-3.709,-3.6656,-3.6447,-3.6133,-3.5609,-3.5519,-3.5489,-3.5489,-3.5489,-3.5489,-3.5489,-3.5489,-3.5489,-3.5489,-3.5489,-3.519,-3.4593,-3.4429,-3.3754,-3.2617,-3.1824,-3.1421,-3.1346,-3.1301,-3.1077,-3.0597,-3.0477,-3.0238,-2.9834,-2.9774,-2.9846,-2.9726,-3.0741,-3.1471,-3.1856,-3.1791,-3.1797,-3.1699,-3.1269,-3.0494,-2.9504,-2.9508,-2.9009,-2.8488,-2.828,-2.8143,-2.8058,-2.7582,-2.7306,-2.719,-2.6851,-2.6562,-2.6575,-2.6537,-2.6537,-2.6499,-2.6487,-2.6487,-2.6487,-2.6487,-2.6487,-2.6487,-2.6487,-2.6487,-2.6487,-2.6487,-2.6487,-2.6487,-2.6487,-2.6487,-2.6487,-2.6487,-2.6487,-2.6487,-2.6487,-2.6487,-2.6487,-2.6487,-2.6487,-3.9388,-3.9373,-3.9155,-3.905,-3.902,-3.876,-3.8691,-3.8706,-3.8691,-3.8437,-3.8093,-3.8033,-3.7808,-3.7375,-3.6941,-3.6507,-3.6118,-3.5699,-3.5489,-3.5489,-3.5489,-3.5489,-3.5489,-3.5504,-3.5744,-3.6028,-3.5699,-3.5848,-3.6567,-3.7778,-3.8377,-3.8482,-3.8841,-3.905,-3.8931,-3.8377,-3.7928,-3.7644,-3.6974,-3.6372,-3.6103,-3.5729,-3.5489,-3.5489,-3.5489,-3.5489,-3.5489,-3.5489,-3.5489,-3.5489,-3.5489,-3.519,-3.4533,-3.3664,-3.3036,-3.2527,-3.1884,-3.1496,-3.1496,-3.1496,-3.1406,-3.1197,-3.1137,-3.1032,-3.0881,-3.0821,-3.0793,-3.1017,-3.2018,-3.2751,-3.2557,-3.2806,-3.2681,-3.2018,-3.2117,-3.166,-3.0444,-3.0718,-3.1124,-3.0302,-2.98,-2.922,-2.8417,-2.7921,-2.7808,-2.7795,-2.762,-2.7392,-2.7102,-2.7014,-2.6927,-2.66,-2.6487,-2.6487,-2.6487,-2.6487,-2.6487,-2.6487,-2.6487,-2.6487,-2.6487,-2.6487,-2.6487,-2.6487,-2.6487,-2.6487,-2.6487,-2.6487,-2.6487,-2.6487,-2.6487,-2.6487,-2.6487,-2.6487,-2.6487,-3.9388,-3.9388,-3.9388,-3.9388,-3.9388,-3.9388,-3.9388,-3.9388,-3.9388,-3.9155,-3.8766,-3.8721,-3.8467,-3.8063,-3.7823,-3.7524,-3.7015,-3.6237,-3.5833,-3.5804,-3.5594,-3.5489,-3.5489,-3.5489,-3.5744,-3.6133,-3.6178,-3.6372,-3.6881,-3.8093,-3.8586,-3.8452,-3.908,-3.9388,-3.9298,-3.8945,-3.8646,-3.8272,-3.7524,-3.6974,-3.6522,-3.6058,-3.5699,-3.5534,-3.5489,-3.5489,-3.5489,-3.5489,-3.5489,-3.5489,-3.5489,-3.519,-3.4503,-3.3634,-3.2946,-3.2527,-3.2079,-3.1705,-3.154,-3.1496,-3.1496,-3.1496,-3.1496,-3.1496,-3.1496,-3.1496,-3.16,-3.1974,-3.2766,-3.332,-3.338,-3.3769,-3.3682,-3.2873,-3.3326,-3.3141,-3.1496,-3.2307,-3.2473,-3.178,-3.132,-3.05,-2.9387,-2.9025,-2.874,-2.8434,-2.8235,-2.7934,-2.7645,-2.7532,-2.7492,-2.709,-2.6914,-2.6839,-2.6751,-2.6688,-2.6537,-2.6499,-2.6487,-2.6487,-2.6487,-2.6487,-2.6487,-2.6487,-2.6487,-2.6487,-2.6487,-2.6487,-2.6487,-2.6487,-2.6487,-2.6487,-2.6487,-2.6487,-2.6487,-3.9388,-3.9388,-3.9388,-3.9388,-3.9388,-3.9388,-3.9388,-3.9388,-3.9388,-3.9343,-3.9254,-3.9328,-3.9239,-3.9185,-3.8631,-3.8397,-3.8247,-3.7274,-3.6592,-3.639,-3.5899,-3.5632,-3.5619,-3.5733,-3.5825,-3.6036,-3.6985,-3.7526,-3.7752,-3.8843,-3.9148,-3.8702,-3.9146,-3.9445,-3.946,-3.9391,-3.9071,-3.8662,-3.8392,-3.7719,-3.6686,-3.6522,-3.6207,-3.5654,-3.5579,-3.5564,-3.5504,-3.5489,-3.5489,-3.5489,-3.5489,-3.519,-3.4698,-3.4367,-3.3858,-3.2871,-3.2542,-3.2153,-3.1645,-3.1525,-3.1496,-3.1496,-3.1496,-3.1496,-3.1496,-3.1511,-3.172,-3.2258,-3.3006,-3.3649,-3.4188,-3.4846,-3.4971,-3.4618,-3.4768,-3.4684,-3.391,-3.3842,-3.3636,-3.2806,-3.2524,-3.2186,-3.1353,-3.0702,-3.0121,-2.9272,-2.8759,-2.8407,-2.8184,-2.8109,-2.8109,-2.7921,-2.757,-2.7304,-2.7102,-2.6889,-2.6675,-2.6512,-2.6499,-2.6487,-2.6487,-2.6487,-2.6487,-2.6487,-2.6487,-2.6487,-2.6487,-2.6487,-2.6487,-2.6487,-2.6487,-2.6487,-2.6487,-2.6487,-2.6487,-3.9388,-3.9388,-3.9388,-3.9388,-3.9388,-3.9388,-3.9388,-3.9388,-3.9388,-3.9388,-3.9388,-3.9388,-3.9388,-3.9394,-3.917,-3.9441,-3.986,-3.9051,-3.7925,-3.6815,-3.6829,-3.6673,-3.6476,-3.6845,-3.7367,-3.8104,-3.969,-4.0303,-3.9984,-4.0171,-4.0171,-3.9975,-3.9581,-3.9737,-4.0239,-3.9722,-3.9495,-3.9833,-3.8937,-3.8153,-3.7764,-3.736,-3.6821,-3.6252,-3.6178,-3.5998,-3.5549,-3.5489,-3.5489,-3.5489,-3.5489,-3.54,-3.5145,-3.4726,-3.4324,-3.3844,-3.2976,-3.2422,-3.2183,-3.1765,-3.1555,-3.1511,-3.1511,-3.1496,-3.1496,-3.1525,-3.163,-3.1959,-3.2811,-3.3469,-3.344,-3.4607,-3.5053,-3.4299,-3.4934,-3.4887,-3.3671,-3.3705,-3.3808,-3.3671,-3.3567,-3.3136,-3.2415,-3.1932,-3.1483,-3.0618,-3.0214,-2.9848,-2.8973,-2.8699,-2.8461,-2.8172,-2.7896,-2.7841,-2.7756,-2.7452,-2.7019,-2.6813,-2.67,-2.6499,-2.6487,-2.6487,-2.6487,-2.6487,-2.6487,-2.6487,-2.6487,-2.6487,-2.6487,-2.6487,-2.6487,-2.6487,-2.6487,-2.6487,-2.6487,-3.9388,-3.9388,-3.9388,-3.9388,-3.9388,-3.9388,-3.9388,-3.9388,-3.9388,-3.9388,-3.9445,-3.9758,-3.9864,-3.9955,-4.0185,-4.0638,-4.11,-4.0727,-3.9854,-3.8592,-3.8044,-3.7979,-3.7883,-3.835,-3.9001,-3.9754,-4.0989,-4.1549,-4.1373,-4.1241,-4.118,-4.1046,-4.0638,-4.0638,-4.1113,-4.0672,-4.0585,-4.056,-3.9757,-3.8952,-3.8417,-3.7988,-3.7464,-3.6896,-3.6611,-3.6282,-3.5878,-3.5654,-3.5489,-3.5489,-3.5489,-3.5489,-3.5459,-3.51,-3.4788,-3.4384,-3.3754,-3.3155,-3.2886,-3.2542,-3.2093,-3.1944,-3.1869,-3.1869,-3.1869,-3.1869,-3.1929,-3.2348,-3.326,-3.3679,-3.3604,-3.4532,-3.5091,-3.4691,-3.5133,-3.4935,-3.3973,-3.4177,-3.4543,-3.4543,-3.4576,-3.4075,-3.3415,-3.3101,-3.2749,-3.196,-3.1426,-3.104,-2.9919,-2.9454,-2.9076,-2.8712,-2.8549,-2.8494,-2.8513,-2.8045,-2.7402,-2.7132,-2.696,-2.6687,-2.6487,-2.6487,-2.6487,-2.6487,-2.6487,-2.6487,-2.6487,-2.6487,-2.6487,-2.6487,-2.6487,-2.6487,-2.6487,-2.6487,-2.6487,-3.9388,-3.9388,-3.9388,-3.9388,-3.9424,-3.9502,-3.9574,-3.9517,-3.9646,-3.9717,-3.9829,-4.0466,-4.0805,-4.1008,-4.1603,-4.206,-4.219,-4.219,-4.2317,-4.1706,-4.0637,-3.9844,-4.0178,-4.0413,-4.0799,-4.1118,-4.141,-4.1735,-4.2296,-4.2157,-4.2062,-4.2062,-4.1853,-4.1997,-4.1997,-4.2029,-4.1543,-4.1147,-4.0847,-4.0062,-3.8881,-3.8752,-3.8316,-3.7684,-3.7188,-3.676,-3.6357,-3.5833,-3.5489,-3.5489,-3.5489,-3.5489,-3.5489,-3.5489,-3.5145,-3.4637,-3.4548,-3.4068,-3.3679,-3.3335,-3.311,-3.2587,-3.2452,-3.2497,-3.2392,-3.2378,-3.2542,-3.3066,-3.3903,-3.4429,-3.4488,-3.504,-3.5412,-3.5472,-3.5457,-3.5359,-3.5457,-3.5392,-3.5311,-3.5344,-3.5424,-3.518,-3.4177,-3.4109,-3.3636,-3.282,-3.196,-3.1372,-3.0817,-3.0265,-2.9909,-2.9605,-2.934,-2.9505,-2.9601,-2.9077,-2.8514,-2.8307,-2.791,-2.7314,-2.6683,-2.6521,-2.6487,-2.6487,-2.6487,-2.6487,-2.6487,-2.6487,-2.6487,-2.6487,-2.6487,-2.6487,-2.6487,-2.6487,-2.6487,-3.9388,-3.9388,-3.9388,-3.9388,-3.9481,-4.0045,-4.0378,-4.0432,-4.1028,-4.1196,-4.1362,-4.1543,-4.1912,-4.2472,-4.2685,-4.3412,-4.4134,-4.3983,-4.4519,-4.5187,-4.3893,-4.2857,-4.2712,-4.3079,-4.3101,-4.2894,-4.3202,-4.3747,-4.3856,-4.3229,-4.297,-4.2909,-4.241,-4.2379,-4.2785,-4.2379,-4.2284,-4.2442,-4.1933,-4.1513,-4.1094,-4.0932,-4.037,-3.92,-3.8888,-3.7989,-3.6652,-3.5848,-3.5504,-3.5489,-3.5489,-3.5489,-3.5489,-3.5489,-3.54,-3.5175,-3.4773,-3.4474,-3.4219,-3.3799,-3.3455,-3.323,-3.2886,-3.2497,-3.2497,-3.2527,-3.2587,-3.2976,-3.3754,-3.4518,-3.4623,-3.51,-3.5444,-3.5489,-3.5489,-3.5489,-3.5489,-3.5489,-3.5489,-3.5489,-3.5489,-3.5311,-3.5133,-3.4938,-3.4658,-3.3754,-3.2855,-3.2055,-3.1573,-3.0809,-3.0317,-3.0444,-3.0361,-3.0605,-3.0618,-3.0115,-2.9729,-2.9597,-2.9058,-2.8259,-2.739,-2.6521,-2.6521,-2.6487,-2.6487,-2.6487,-2.6487,-2.6487,-2.6487,-2.6487,-2.6487,-2.6487,-2.6487,-2.6487,-2.6487,-3.9388,-3.9388,-3.9388,-3.9388,-3.9517,-4.0328,-4.0724,-4.0894,-4.1593,-4.1981,-4.2062,-4.241,-4.2762,-4.3215,-4.3869,-4.4651,-4.5477,-4.5474,-4.6099,-4.6971,-4.6625,-4.5645,-4.4829,-4.4891,-4.4807,-4.4434,-4.4513,-4.4536,-4.4485,-4.4064,-4.3873,-4.3785,-4.335,-4.338,-4.3785,-4.3426,-4.3092,-4.3199,-4.2754,-4.2379,-4.2013,-4.1981,-4.1629,-4.0618,-4.0088,-3.8716,-3.6778,-3.6118,-3.5804,-3.5579,-3.5489,-3.5489,-3.5489,-3.5489,-3.5489,-3.5474,-3.51,-3.4921,-3.4861,-3.4532,-3.4203,-3.3933,-3.3514,-3.338,-3.338,-3.3335,-3.3335,-3.3529,-3.4384,-3.4698,-3.4683,-3.51,-3.5444,-3.5489,-3.5489,-3.5489,-3.5489,-3.5489,-3.5489,-3.5489,-3.5489,-3.5489,-3.5489,-3.5489,-3.5198,-3.4658,-3.3788,-3.3136,-3.2522,-3.1549,-3.1033,-3.1291,-3.1499,-3.1766,-3.1864,-3.1512,-3.1144,-3.096,-2.9577,-2.8862,-2.8119,-2.6956,-2.6521,-2.6487,-2.6487,-2.6487,-2.6487,-2.6487,-2.6487,-2.6487,-2.6487,-2.6487,-2.6487,-2.6487,-2.6487,-3.9538,-3.9553,-3.9553,-3.9538,-3.9702,-4.0451,-4.0946,-4.1046,-4.2013,-4.2475,-4.2729,-4.327,-4.3872,-4.3866,-4.5394,-4.5966,-4.6034,-4.6397,-4.6849,-4.7564,-4.7919,-4.7648,-4.6046,-4.6007,-4.5821,-4.5483,-4.4942,-4.4733,-4.4621,-4.4542,-4.4542,-4.444,-4.444,-4.4497,-4.444,-4.444,-4.4121,-4.3651,-4.3515,-4.3152,-4.2707,-4.2567,-4.2393,-4.1885,-4.0361,-3.9003,-3.7467,-3.667,-3.6193,-3.5639,-3.5564,-3.5504,-3.5489,-3.5489,-3.5489,-3.5489,-3.5429,-3.5415,-3.5474,-3.534,-3.519,-3.4666,-3.4503,-3.4503,-3.4339,-3.4247,-3.4247,-3.4218,-3.5085,-3.5115,-3.4891,-3.5205,-3.5444,-3.5489,-3.5489,-3.5489,-3.5489,-3.5489,-3.5489,-3.5489,-3.5489,-3.5489,-3.5489,-3.5489,-3.5457,-3.5133,-3.4375,-3.3705,-3.3157,-3.2464,-3.2285,-3.2571,-3.2749,-3.2925,-3.2981,-3.2928,-3.2606,-3.2231,-3.0192,-2.9108,-2.8741,-2.7808,-2.6888,-2.6487,-2.6487,-2.6487,-2.6487,-2.6487,-2.6487,-2.6487,-2.6487,-2.6487,-2.6487,-2.6487,-2.6487,-4.0397,-4.0447,-4.0397,-4.0432,-4.0554,-4.1346,-4.1739,-4.182,-4.335,-4.4202,-4.4788,-4.5098,-4.5732,-4.677,-4.7038,-4.7415,-4.7175,-4.6921,-4.6633,-4.6397,-4.824,-4.8392,-4.75,-4.731,-4.6769,-4.6024,-4.5585,-4.5162,-4.4784,-4.4682,-4.4598,-4.4615,-4.4598,-4.4598,-4.4598,-4.4598,-4.4542,-4.431,-4.4281,-4.415,-4.396,-4.3827,-4.3575,-4.2843,-4.0943,-3.9672,-3.8811,-3.7389,-3.6465,-3.6193,-3.5818,-3.5579,-3.5504,-3.5489,-3.5489,-3.5489,-3.5489,-3.5489,-3.5489,-3.5489,-3.5459,-3.522,-3.4833,-3.4503,-3.4503,-3.4517,-3.4533,-3.4623,-3.507,-3.537,-3.5265,-3.5385,-3.5489,-3.5489,-3.5489,-3.5489,-3.5489,-3.5489,-3.5489,-3.5489,-3.5489,-3.5489,-3.5489,-3.5489,-3.5457,-3.5359,-3.4887,-3.4163,-3.3739,-3.3345,-3.3449,-3.3671,-3.3567,-3.3671,-3.4028,-3.3902,-3.3503,-3.3059,-3.1251,-2.9951,-2.9605,-2.8597,-2.7722,-2.7016,-2.6487,-2.6521,-2.6589,-2.6487,-2.6487,-2.6487,-2.6487,-2.6487,-2.6487,-2.6487,-2.6487,-4.0724,-4.0758,-4.1147,-4.1313,-4.1462,-4.2221,-4.263,-4.2878,-4.3989,-4.4993,-4.5585,-4.5703,-4.6346,-4.7394,-4.7686,-4.7703,-4.7361,-4.6989,-4.6397,-4.6278,-4.7564,-4.7851,-4.7394,-4.7851,-4.78,-4.6819,-4.6363,-4.5805,-4.528,-4.5089,-4.497,-4.4632,-4.4598,-4.4598,-4.4598,-4.4598,-4.4598,-4.457,-4.4598,-4.4598,-4.4598,-4.457,-4.4196,-4.3273,-4.1645,-4.0521,-3.9575,-3.8277,-3.7357,-3.6866,-3.6327,-3.5804,-3.5549,-3.5489,-3.5489,-3.5489,-3.5489,-3.5489,-3.5489,-3.5489,-3.5489,-3.5489,-3.5145,-3.504,-3.4951,-3.4951,-3.4966,-3.5026,-3.5265,-3.5489,-3.5489,-3.5489,-3.5489,-3.5489,-3.5489,-3.5489,-3.5489,-3.5489,-3.5489,-3.5489,-3.5489,-3.5489,-3.5489,-3.5489,-3.5489,-3.5424,-3.5424,-3.4791,-3.4824,-3.4509,-3.4509,-3.4558,-3.4327,-3.4413,-3.4898,-3.4792,-3.4265,-3.3603,-3.2498,-3.1593,-3.1148,-2.9879,-2.8524,-2.7868,-2.7245,-2.6714,-2.6714,-2.6611,-2.6624,-2.6555,-2.6555,-2.6521,-2.6487,-2.6521,-2.6521,-4.108,-4.1131,-4.1885,-4.2205,-4.2316,-4.2939,-4.3246,-4.3396,-4.4224,-4.501,-4.5652,-4.5805,-4.643,-4.7039,-4.7618,-4.7428,-4.6802,-4.6566,-4.6109,-4.572,-4.7242,-4.7242,-4.687,-4.7817,-4.8612,-4.8037,-4.7327,-4.6583,-4.6024,-4.572,-4.5331,-4.4869,-4.4615,-4.4615,-4.4598,-4.4598,-4.4598,-4.4598,-4.4598,-4.4598,-4.4598,-4.457,-4.4196,-4.3588,-4.2658,-4.1646,-4.0556,-3.9336,-3.8325,-3.7759,-3.7057,-3.6327,-3.5818,-3.5519,-3.5489,-3.5489,-3.5489,-3.5489,-3.5489,-3.5489,-3.5489,-3.5489,-3.5474,-3.5474,-3.5444,-3.5415,-3.54,-3.5415,-3.5489,-3.5489,-3.5489,-3.5489,-3.5489,-3.5489,-3.5489,-3.5489,-3.5489,-3.5489,-3.5489,-3.5489,-3.5489,-3.5489,-3.5489,-3.5489,-3.5489,-3.5489,-3.5489,-3.5489,-3.5489,-3.5457,-3.5246,-3.5166,-3.492,-3.4806,-3.5219,-3.532,-3.4822,-3.4352,-3.3439,-3.3047,-3.2562,-3.1679,-3.0364,-2.8818,-2.8073,-2.7734,-2.7429,-2.7451,-2.733,-2.6884,-2.6782,-2.6939,-2.6837,-2.6577,-2.6521,-4.2878,-4.2878,-4.3017,-4.3078,-4.3108,-4.3246,-4.3366,-4.3472,-4.4253,-4.501,-4.572,-4.6329,-4.6904,-4.7547,-4.777,-4.7145,-4.621,-4.5906,-4.5517,-4.5314,-4.6769,-4.7208,-4.6769,-4.8088,-4.8781,-4.868,-4.8088,-4.7361,-4.6633,-4.6024,-4.572,-4.5415,-4.4942,-4.4682,-4.4547,-4.4598,-4.4598,-4.4598,-4.4598,-4.4598,-4.4598,-4.457,-4.4542,-4.415,-4.338,-4.2811,-4.2198,-4.0654,-3.9421,-3.9185,-3.7978,-3.7087,-3.6447,-3.5923,-3.5639,-3.5489,-3.5489,-3.5489,-3.5489,-3.5489,-3.5489,-3.5489,-3.5489,-3.5489,-3.5489,-3.5489,-3.5489,-3.5489,-3.5489,-3.5489,-3.5489,-3.5489,-3.5489,-3.5489,-3.5489,-3.5489,-3.5489,-3.5489,-3.5489,-3.5489,-3.5489,-3.5489,-3.5489,-3.5489,-3.5489,-3.5489,-3.5489,-3.5489,-3.5489,-3.5489,-3.5424,-3.5424,-3.5424,-3.5377,-3.5442,-3.5442,-3.5262,-3.5066,-3.4503,-3.422,-3.3813,-3.3446,-3.2353,-3.086,-2.9757,-2.928,-2.8972,-2.8619,-2.8414,-2.8272,-2.7934,-2.751,-2.7196,-2.6905,-2.6521,-4.3306,-4.3353,-4.3785,-4.3977,-4.3977,-4.3977,-4.396,-4.4035,-4.4429,-4.4993,-4.5618,-4.6109,-4.665,-4.7175,-4.7327,-4.6684,-4.5872,-4.5246,-4.4942,-4.5072,-4.6363,-4.6684,-4.6177,-4.7885,-4.8257,-4.8206,-4.8139,-4.8054,-4.7411,-4.7073,-4.6261,-4.528,-4.506,-4.4807,-4.4265,-4.4412,-4.4547,-4.4598,-4.4598,-4.4598,-4.4598,-4.4598,-4.4598,-4.4367,-4.3814,-4.3366,-4.3012,-4.19,-4.0694,-4.0104,-3.9174,-3.8277,-3.7549,-3.6903,-3.6211,-3.5749,-3.5567,-3.5504,-3.5504,-3.5489,-3.5489,-3.5489,-3.5489,-3.5489,-3.5489,-3.5489,-3.5489,-3.5489,-3.5489,-3.5489,-3.5489,-3.5489,-3.5489,-3.5489,-3.5489,-3.5489,-3.5489,-3.5489,-3.5489,-3.5489,-3.5489,-3.5489,-3.5489,-3.5489,-3.5489,-3.5489,-3.5489,-3.5489,-3.5489,-3.5489,-3.5489,-3.5489,-3.5489,-3.5489,-3.5489,-3.5489,-3.5489,-3.5385,-3.528,-3.4996,-3.4846,-3.444,-3.3925,-3.2957,-3.2025,-3.1061,-3.0373,-2.9962,-2.9817,-2.9573,-2.8903,-2.8252,-2.7661,-2.7196,-2.6875,-4.3562,-4.3621,-4.431,-4.4598,-4.4598,-4.4598,-4.457,-4.4598,-4.457,-4.4891,-4.5449,-4.5686,-4.6041,-4.6447,-4.6481,-4.616,-4.5466,-4.4823,-4.4666,-4.4886,-4.5872,-4.5872,-4.5906,-4.6853,-4.7953,-4.7344,-4.775,-4.8426,-4.8173,-4.7804,-4.6819,-4.6007,-4.5838,-4.5196,-4.4384,-4.4513,-4.4615,-4.4598,-4.4598,-4.4598,-4.4598,-4.4598,-4.4598,-4.457,-4.3919,-4.3621,-4.3575,-4.272,-4.1949,-4.1305,-4.0596,-3.9792,-3.8983,-3.8421,-3.76,-3.6596,-3.6034,-3.5687,-3.5504,-3.5489,-3.5489,-3.5489,-3.5489,-3.5489,-3.5489,-3.5489,-3.5489,-3.5489,-3.5489,-3.5489,-3.5489,-3.5489,-3.5489,-3.5489,-3.5489,-3.5489,-3.5489,-3.5489,-3.5489,-3.5489,-3.5489,-3.5489,-3.5489,-3.5489,-3.5489,-3.5489,-3.5489,-3.5489,-3.5489,-3.5489,-3.5489,-3.5489,-3.5489,-3.5489,-3.5489,-3.5489,-3.5489,-3.5459,-3.5429,-3.528,-3.5325,-3.5295,-3.4713,-3.4169,-3.3844,-3.2883,-3.2127,-3.1476,-3.1436,-3.0991,-2.9863,-2.9194,-2.8966,-2.8074,-2.7284,-4.444,-4.4457,-4.4542,-4.4598,-4.4598,-4.4598,-4.4598,-4.4598,-4.4598,-4.4632,-4.484,-4.5365,-4.5703,-4.5821,-4.5838,-4.5399,-4.4891,-4.4699,-4.4598,-4.4739,-4.5483,-4.5788,-4.5635,-4.6464,-4.7158,-4.6836,-4.7056,-4.7817,-4.824,-4.8041,-4.7753,-4.7124,-4.6058,-4.55,-4.5026,-4.4733,-4.4598,-4.4598,-4.4598,-4.4598,-4.4598,-4.4598,-4.4598,-4.4542,-4.4457,-4.4327,-4.4196,-4.3545,-4.3,-4.2816,-4.2093,-4.1374,-4.0801,-4.0642,-4.0196,-3.9109,-3.7742,-3.6118,-3.5842,-3.5672,-3.5624,-3.5624,-3.5549,-3.5504,-3.5489,-3.5489,-3.5489,-3.5489,-3.5489,-3.5489,-3.5489,-3.5489,-3.5489,-3.5489,-3.5489,-3.5489,-3.5489,-3.5489,-3.5489,-3.5489,-3.5489,-3.5489,-3.5489,-3.5489,-3.5489,-3.5489,-3.5489,-3.5489,-3.5489,-3.5489,-3.5489,-3.5489,-3.5489,-3.5489,-3.5489,-3.5489,-3.5489,-3.5489,-3.5489,-3.5489,-3.5489,-3.5489,-3.5489,-3.5016,-3.4768,-3.4392,-3.3551,-3.3091,-3.3112,-3.248,-3.1443,-3.0901,-3.0573,-2.9422,-2.8157,-4.4598,-4.4598,-4.4598,-4.4598,-4.4598,-4.4598,-4.4598,-4.4598,-4.4598,-4.4598,-4.4649,-4.4891,-4.506,-4.5111,-4.5077,-4.4919,-4.4632,-4.4598,-4.4598,-4.4733,-4.5246,-4.5483,-4.5427,-4.6194,-4.6769,-4.6786,-4.687,-4.7378,-4.7902,-4.7733,-4.7293,-4.7175,-4.6295,-4.5399,-4.5331,-4.4818,-4.4632,-4.4598,-4.4598,-4.4598,-4.4598,-4.4598,-4.4598,-4.4598,-4.4598,-4.4598,-4.4468,-4.4327,-4.3756,-4.3443,-4.2847,-4.2376,-4.1788,-4.1501,-4.1245,-4.0558,-3.9708,-3.8585,-3.7514,-3.663,-3.6285,-3.5956,-3.5791,-3.5504,-3.5489,-3.5549,-3.5549,-3.5489,-3.5489,-3.5534,-3.5549,-3.5489,-3.5489,-3.5519,-3.5699,-3.5654,-3.5639,-3.5504,-3.5489,-3.5489,-3.5504,-3.5549,-3.5549,-3.5489,-3.5489,-3.5489,-3.5489,-3.5489,-3.5489,-3.5489,-3.5489,-3.5489,-3.5489,-3.5489,-3.5489,-3.5489,-3.5489,-3.5489,-3.5489,-3.5489,-3.5489,-3.5489,-3.5489,-3.5489,-3.5228,-3.4884,-3.4577,-3.4454,-3.4284,-3.3679,-3.3027,-3.2372,-3.1696,-3.0867,-2.968,-4.4598,-4.4598,-4.4598,-4.4598,-4.4598,-4.4598,-4.4598,-4.4598,-4.4598,-4.4598,-4.4598,-4.4632,-4.4615,-4.4598,-4.4649,-4.4649,-4.4598,-4.4598,-4.4598,-4.479,-4.506,-4.5179,-4.528,-4.5974,-4.6363,-4.6752,-4.616,-4.6853,-4.7361,-4.7141,-4.6701,-4.7005,-4.6802,-4.6007,-4.5359,-4.5055,-4.4874,-4.4598,-4.4598,-4.4598,-4.4598,-4.4598,-4.4598,-4.4598,-4.4598,-4.4598,-4.4598,-4.457,-4.4167,-4.3844,-4.3651,-4.3317,-4.2872,-4.2792,-4.2629,-4.2127,-4.1614,-4.1004,-3.9787,-3.8698,-3.7621,-3.7166,-3.6738,-3.6609,-3.6451,-3.6182,-3.5983,-3.6133,-3.6118,-3.6073,-3.5983,-3.6043,-3.6148,-3.6178,-3.6133,-3.6028,-3.5983,-3.6058,-3.5998,-3.5923,-3.5893,-3.5669,-3.5639,-3.5534,-3.5489,-3.5489,-3.5489,-3.5489,-3.5489,-3.5489,-3.5489,-3.5489,-3.5489,-3.5489,-3.5489,-3.5489,-3.5489,-3.5489,-3.5489,-3.5489,-3.5489,-3.5489,-3.5489,-3.5489,-3.5489,-3.5355,-3.5026,-3.522,-3.5337,-3.4626,-3.3929,-3.3318,-3.2639,-3.1923,-3.1314,-4.4598,-4.4598,-4.4598,-4.4598,-4.4598,-4.4598,-4.4598,-4.4598,-4.4598,-4.4598,-4.4598,-4.4598,-4.4598,-4.4598,-4.4598,-4.4598,-4.4598,-4.4598,-4.4598,-4.4615,-4.4671,-4.501,-4.5162,-4.5263,-4.5529,-4.6295,-4.5884,-4.6329,-4.7192,-4.6836,-4.6925,-4.7551,-4.7293,-4.7107,-4.6447,-4.5585,-4.5026,-4.4716,-4.4598,-4.4598,-4.4598,-4.4598,-4.4598,-4.4598,-4.4598,-4.4598,-4.4598,-4.4598,-4.4542,-4.4338,-4.431,-4.431,-4.3989,-4.3989,-4.381,-4.3639,-4.3251,-4.2807,-4.2099,-4.0617,-3.9794,-3.9452,-3.8905,-3.813,-3.7875,-3.751,-3.7312,-3.7094,-3.6896,-3.7015,-3.7105,-3.724,-3.6971,-3.6896,-3.6776,-3.6791,-3.6806,-3.6926,-3.6821,-3.6537,-3.6342,-3.6222,-3.6118,-3.6103,-3.5639,-3.5594,-3.5504,-3.5489,-3.5489,-3.5489,-3.5489,-3.5489,-3.5489,-3.5489,-3.5489,-3.5489,-3.5489,-3.5489,-3.5489,-3.5489,-3.5489,-3.5489,-3.5489,-3.5489,-3.5489,-3.5489,-3.5489,-3.5459,-3.5379,-3.5231,-3.4791,-3.4204,-3.3671,-3.3038,-3.2623,-4.4598,-4.4598,-4.4598,-4.4598,-4.4598,-4.4598,-4.4598,-4.4598,-4.4598,-4.4598,-4.4598,-4.4598,-4.4598,-4.4598,-4.4598,-4.4598,-4.4598,-4.4598,-4.4598,-4.4598,-4.4682,-4.4801,-4.484,-4.4976,-4.5111,-4.5855,-4.5551,-4.5771,-4.6938,-4.6836,-4.7297,-4.7686,-4.7597,-4.7124,-4.6532,-4.572,-4.497,-4.475,-4.4598,-4.4598,-4.4598,-4.4598,-4.4598,-4.4598,-4.4598,-4.4598,-4.4598,-4.4598,-4.4598,-4.4598,-4.4598,-4.4598,-4.4598,-4.4598,-4.4598,-4.4598,-4.4167,-4.4064,-4.3685,-4.2021,-4.0505,-3.9993,-3.9623,-3.9346,-3.9043,-3.8396,-3.7883,-3.7632,-3.7494,-3.7584,-3.7434,-3.7389,-3.7315,-3.7389,-3.7464,-3.7539,-3.7599,-3.7689,-3.7509,-3.715,-3.7045,-3.6971,-3.6866,-3.6776,-3.6193,-3.5684,-3.5579,-3.5489,-3.5489,-3.5489,-3.5489,-3.5489,-3.5489,-3.5489,-3.5489,-3.5489,-3.5489,-3.5489,-3.5489,-3.5489,-3.5489,-3.5489,-3.5489,-3.5489,-3.5489,-3.5489,-3.5489,-3.5489,-3.5424,-3.5344,-3.5246,-3.5059,-3.4547,-3.4041,-3.3739,-4.4598,-4.4598,-4.4598,-4.4598,-4.4598,-4.4598,-4.4598,-4.4598,-4.4598,-4.4598,-4.4598,-4.4598,-4.4598,-4.4598,-4.4598,-4.4598,-4.4598,-4.4598,-4.4598,-4.4598,-4.4598,-4.4733,-4.4801,-4.4902,-4.5128,-4.5686,-4.5551,-4.5771,-4.6853,-4.7344,-4.7614,-4.7699,-4.7631,-4.7411,-4.6464,-4.5427,-4.4615,-4.4598,-4.4598,-4.4598,-4.4598,-4.4598,-4.4598,-4.4598,-4.4598,-4.4598,-4.4598,-4.4598,-4.4598,-4.4598,-4.4598,-4.4598,-4.4598,-4.4598,-4.4598,-4.4598,-4.4598,-4.4598,-4.4102,-4.3261,-4.1882,-4.1812,-4.1265,-4.0683,-3.9913,-3.943,-3.9048,-3.8242,-3.8093,-3.7988,-3.7958,-3.8167,-3.8227,-3.8347,-3.8332,-3.8362,-3.8347,-3.8377,-3.8078,-3.7764,-3.7704,-3.7614,-3.727,-3.712,-3.6731,-3.6088,-3.5654,-3.5549,-3.5489,-3.5489,-3.5489,-3.5489,-3.5489,-3.5489,-3.5489,-3.5504,-3.5504,-3.5489,-3.5489,-3.5489,-3.5489,-3.5489,-3.5489,-3.5489,-3.5489,-3.5489,-3.5489,-3.5489,-3.5489,-3.5489,-3.5392,-3.5311,-3.5213,-3.4739,-3.4624,-4.4598,-4.4598,-4.4598,-4.4598,-4.4598,-4.4598,-4.4598,-4.4598,-4.4598,-4.4598,-4.4598,-4.4598,-4.4598,-4.4598,-4.4598,-4.4598,-4.4598,-4.4598,-4.4598,-4.4598,-4.4615,-4.4976,-4.506,-4.506,-4.5077,-4.6024,-4.5771,-4.5686,-4.6786,-4.7124,-4.7445,-4.7939,-4.8206,-4.7902,-4.6752,-4.5376,-4.4666,-4.4598,-4.4598,-4.4598,-4.4598,-4.4598,-4.4598,-4.4598,-4.4598,-4.4598,-4.4598,-4.4598,-4.4598,-4.4598,-4.4598,-4.4598,-4.4598,-4.4598,-4.4598,-4.4598,-4.4598,-4.4598,-4.4508,-4.4435,-4.4108,-4.3753,-4.3011,-4.2468,-4.1837,-4.1107,-4.0211,-3.9319,-3.9122,-3.917,-3.9224,-3.926,-3.914,-3.908,-3.902,-3.899,-3.891,-3.8916,-3.8616,-3.8437,-3.8332,-3.8167,-3.7749,-3.7389,-3.7135,-3.6611,-3.5923,-3.5684,-3.5744,-3.5848,-3.5983,-3.5923,-3.5938,-3.5789,-3.5789,-3.5564,-3.5504,-3.5504,-3.5489,-3.5489,-3.5489,-3.5489,-3.5489,-3.5504,-3.5489,-3.5489,-3.5489,-3.5489,-3.5489,-3.5489,-3.5489,-3.5457,-3.5472,-3.5407,-3.5166,-4.4598,-4.4598,-4.4598,-4.4598,-4.4598,-4.4598,-4.4598,-4.4598,-4.4598,-4.4598,-4.4598,-4.4598,-4.4598,-4.4598,-4.4598,-4.4598,-4.4598,-4.4598,-4.4598,-4.4598,-4.4598,-4.4716,-4.4835,-4.484,-4.4874,-4.5213,-4.5173,-4.5652,-4.6802,-4.709,-4.7868,-4.8528,-4.8409,-4.7716,-4.6819,-4.5771,-4.5162,-4.4699,-4.4598,-4.4598,-4.4598,-4.4598,-4.4598,-4.4598,-4.4598,-4.4598,-4.4598,-4.4598,-4.4598,-4.4598,-4.4598,-4.4598,-4.4598,-4.4598,-4.4598,-4.4598,-4.4598,-4.4598,-4.4598,-4.4553,-4.4553,-4.4468,-4.4253,-4.368,-4.2909,-4.2062,-4.118,-4.0378,-3.9864,-3.9681,-3.9358,-3.9364,-3.9341,-3.932,-3.9254,-3.9269,-3.9239,-3.929,-3.917,-3.911,-3.9035,-3.8945,-3.8646,-3.8182,-3.7853,-3.7674,-3.712,-3.6746,-3.6716,-3.6806,-3.6911,-3.6731,-3.6611,-3.6327,-3.6133,-3.6028,-3.5863,-3.5833,-3.5669,-3.5489,-3.5489,-3.5714,-3.5609,-3.5684,-3.5579,-3.5489,-3.5489,-3.5489,-3.5489,-3.5489,-3.5489,-3.5489,-3.5504,-3.5472,-3.5424,-4.4598,-4.4598,-4.4598,-4.4598,-4.4598,-4.4598,-4.4598,-4.4598,-4.4598,-4.4598,-4.4598,-4.4598,-4.4598,-4.4598,-4.4598,-4.4598,-4.4598,-4.4598,-4.4598,-4.4598,-4.4598,-4.4649,-4.4632,-4.4598,-4.4666,-4.4767,-4.5038,-4.5585,-4.594,-4.7005,-4.797,-4.8578,-4.8528,-4.78,-4.6921,-4.6024,-4.5297,-4.4818,-4.4598,-4.4598,-4.4598,-4.4598,-4.4598,-4.4598,-4.4598,-4.4598,-4.4598,-4.4598,-4.4598,-4.4598,-4.4598,-4.4598,-4.4598,-4.4598,-4.4598,-4.4598,-4.4598,-4.4598,-4.4598,-4.4598,-4.4598,-4.457,-4.4598,-4.415,-4.3456,-4.2738,-4.2029,-4.128,-4.0585,-4.0378,-4.022,-4.0185,-4.0165,-4.0165,-4.02,-4.022,-4.0255,-4.0309,-4.0115,-4.001,-3.9743,-3.9702,-3.9451,-3.911,-3.8676,-3.8542,-3.8362,-3.7988,-3.7584,-3.7584,-3.7584,-3.7419,-3.7225,-3.6941,-3.6731,-3.6611,-3.6432,-3.6207,-3.6073,-3.5968,-3.6207,-3.6522,-3.6178,-3.5893,-3.5953,-3.5908,-3.5594,-3.5504,-3.5534,-3.5519,-3.5489,-3.5489,-3.5489,-3.5489,-3.5489,-4.4598,-4.4598,-4.4598,-4.4598,-4.4598,-4.4598,-4.4598,-4.4598,-4.4598,-4.4598,-4.4598,-4.4598,-4.4598,-4.4598,-4.4598,-4.4598,-4.4598,-4.4598,-4.4598,-4.4598,-4.4598,-4.4598,-4.4598,-4.4598,-4.4598,-4.4598,-4.4767,-4.4976,-4.4936,-4.6515,-4.7885,-4.8714,-4.8883,-4.8088,-4.7141,-4.6278,-4.5483,-4.4869,-4.4598,-4.4598,-4.4598,-4.4598,-4.4598,-4.4598,-4.4598,-4.4598,-4.4598,-4.4598,-4.4598,-4.4598,-4.4598,-4.4598,-4.4598,-4.4598,-4.4598,-4.4598,-4.4598,-4.4598,-4.4598,-4.4598,-4.4598,-4.4598,-4.4598,-4.4093,-4.3651,-4.3259,-4.2693,-4.2189,-4.1642,-4.1739,-4.1756,-4.1658,-4.1609,-4.1642,-4.1642,-4.1674,-4.1674,-4.1576,-4.128,-4.0995,-4.0638,-4.0343,-3.9793,-3.9429,-3.9095,-3.908,-3.8886,-3.8616,-3.8242,-3.8018,-3.8003,-3.7928,-3.7734,-3.7524,-3.7345,-3.718,-3.6971,-3.6746,-3.6926,-3.6911,-3.715,-3.7165,-3.6821,-3.6582,-3.6537,-3.6357,-3.5998,-3.5744,-3.5609,-3.5594,-3.5534,-3.5489,-3.5489,-3.5489,-3.5489,-4.4598,-4.4598,-4.4598,-4.4598,-4.4598,-4.4598,-4.4598,-4.4598,-4.4598,-4.4598,-4.4598,-4.4598,-4.4598,-4.4598,-4.4598,-4.4598,-4.4598,-4.4598,-4.4598,-4.4598,-4.4598,-4.4598,-4.4615,-4.4632,-4.4615,-4.4649,-4.4733,-4.4942,-4.5652,-4.6853,-4.7936,-4.8866,-4.9001,-4.8359,-4.7631,-4.6836,-4.5771,-4.497,-4.4682,-4.4598,-4.4598,-4.4598,-4.4598,-4.4598,-4.4598,-4.4598,-4.4598,-4.4598,-4.4598,-4.4598,-4.4598,-4.4598,-4.4598,-4.4598,-4.4598,-4.4598,-4.4598,-4.4598,-4.4598,-4.4598,-4.4598,-4.4598,-4.4598,-4.4542,-4.4121,-4.368,-4.3276,-4.2939,-4.2583,-4.2504,-4.2473,-4.2473,-4.2442,-4.2473,-4.2473,-4.2473,-4.2473,-4.241,-4.2125,-4.1739,-4.1379,-4.0622,-4.0115,-3.958,-3.929,-3.9343,-3.9356,-3.9157,-3.8998,-3.8813,-3.8497,-3.8437,-3.8512,-3.84,-3.7982,-3.7734,-3.7509,-3.7345,-3.7569,-3.7674,-3.7599,-3.7539,-3.736,-3.721,-3.706,-3.6746,-3.6357,-3.6193,-3.6133,-3.5684,-3.5564,-3.5519,-3.5504,-3.5519,-3.5504,-4.4598,-4.4598,-4.4598,-4.4598,-4.4598,-4.4598,-4.4598,-4.4598,-4.4598,-4.4598,-4.4598,-4.4598,-4.4598,-4.4598,-4.4598,-4.4598,-4.4598,-4.4598,-4.4598,-4.4598,-4.4598,-4.4869,-4.4902,-4.4801,-4.5072,-4.5122,-4.5263,-4.5466,-4.6261,-4.7208,-4.8274,-4.8934,-4.9018,-4.8562,-4.7868,-4.7056,-4.6177,-4.5331,-4.4835,-4.4649,-4.4598,-4.4598,-4.4598,-4.4598,-4.4598,-4.4598,-4.4598,-4.4598,-4.4598,-4.4598,-4.4598,-4.4598,-4.4598,-4.4598,-4.4598,-4.4598,-4.4598,-4.4598,-4.4598,-4.4598,-4.4598,-4.4598,-4.4598,-4.457,-4.4485,-4.4138,-4.396,-4.3739,-4.338,-4.3092,-4.3061,-4.3061,-4.3061,-4.3092,-4.3092,-4.3092,-4.3092,-4.3092,-4.28,-4.2379,-4.1772,-4.0979,-4.0343,-3.9829,-3.9445,-3.9517,-3.9773,-4.0004,-3.9932,-3.986,-3.941,-3.9107,-3.9254,-3.9332,-3.8897,-3.8557,-3.8407,-3.8327,-3.8437,-3.8452,-3.8197,-3.8153,-3.8197,-3.7898,-3.7539,-3.721,-3.6896,-3.6851,-3.6746,-3.6297,-3.5968,-3.5968,-3.5878,-3.5639,-3.5594,-4.4598,-4.4598,-4.4598,-4.4598,-4.4598,-4.4598,-4.4598,-4.4598,-4.4598,-4.4598,-4.4598,-4.4598,-4.4598,-4.4598,-4.4598,-4.4598,-4.4598,-4.4598,-4.4598,-4.4598,-4.4598,-4.4852,-4.4993,-4.4993,-4.5106,-4.5821,-4.6194,-4.594,-4.6786,-4.7479,-4.8037,-4.8934,-4.9018,-4.8714,-4.8156,-4.7445,-4.6633,-4.5889,-4.5196,-4.4801,-4.4632,-4.4598,-4.4598,-4.4598,-4.4598,-4.4598,-4.4598,-4.4598,-4.4598,-4.4598,-4.4598,-4.4598,-4.4598,-4.4598,-4.4598,-4.4598,-4.4598,-4.4598,-4.4598,-4.4598,-4.4598,-4.4598,-4.4598,-4.4598,-4.4514,-4.444,-4.431,-4.4281,-4.3931,-4.3885,-4.3856,-4.3856,-4.3885,-4.3885,-4.3885,-4.3885,-4.3885,-4.3873,-4.371,-4.3229,-4.2442,-4.1723,-4.1412,-4.0927,-4.0447,-4.013,-4.0255,-4.074,-4.0894,-4.0878,-4.0603,-4.0095,-4.0221,-4.0375,-4.0048,-3.9749,-3.9531,-3.9465,-3.9292,-3.9119,-3.8856,-3.8931,-3.9089,-3.8721,-3.8257,-3.7853,-3.7554,-3.7558,-3.7424,-3.706,-3.6776,-3.6596,-3.639,-3.6142,-3.5669,-4.4598,-4.4598,-4.4598,-4.4598,-4.4598,-4.4598,-4.4598,-4.4598,-4.4598,-4.4598,-4.4598,-4.4598,-4.4598,-4.4598,-4.4598,-4.4598,-4.4598,-4.4598,-4.4598,-4.4598,-4.4598,-4.4784,-4.4902,-4.4818,-4.4959,-4.5094,-4.5534,-4.6447,-4.7293,-4.753,-4.7784,-4.8866,-4.9018,-4.8815,-4.8612,-4.7902,-4.7175,-4.6532,-4.5838,-4.5145,-4.4767,-4.4649,-4.4598,-4.4598,-4.4598,-4.4598,-4.4598,-4.4598,-4.4598,-4.4598,-4.4598,-4.4598,-4.4598,-4.4598,-4.4598,-4.4598,-4.4598,-4.4598,-4.4598,-4.4598,-4.4598,-4.4598,-4.4598,-4.4598,-4.4598,-4.4598,-4.4598,-4.4598,-4.4598,-4.4598,-4.4598,-4.4598,-4.4598,-4.4598,-4.4598,-4.4598,-4.4598,-4.4542,-4.4485,-4.3902,-4.3152,-4.2707,-4.2379,-4.1965,-4.1576,-4.1412,-4.1478,-4.1739,-4.1997,-4.2062,-4.2109,-4.1707,-4.1478,-4.1447,-4.1095,-4.0585,-4.0185,-3.99,-3.9647,-3.955,-3.9424,-3.9514,-3.9566,-3.9346,-3.902,-3.8717,-3.8456,-3.8272,-3.8107,-3.8092,-3.7876,-3.7867,-3.7425,-3.7137,-3.63,-4.4598,-4.4598,-4.4598,-4.4598,-4.4598,-4.4598,-4.4598,-4.4598,-4.4598,-4.4598,-4.4598,-4.4598,-4.4598,-4.4598,-4.4598,-4.4598,-4.4598,-4.4598,-4.4598,-4.4598,-4.4649,-4.4857,-4.484,-4.4767,-4.5343,-4.55,-4.6312,-4.7225,-4.7804,-4.8122,-4.846,-4.8934,-4.9018,-4.8984,-4.89,-4.8291,-4.775,-4.7276,-4.6532,-4.5821,-4.5111,-4.4869,-4.4632,-4.4598,-4.4598,-4.4598,-4.4598,-4.4598,-4.4598,-4.4598,-4.4598,-4.4598,-4.4598,-4.4598,-4.4598,-4.4598,-4.4598,-4.4598,-4.4598,-4.4598,-4.4598,-4.4598,-4.4598,-4.4598,-4.4598,-4.4598,-4.4598,-4.4598,-4.4598,-4.4598,-4.4598,-4.4598,-4.4598,-4.4598,-4.4598,-4.4598,-4.4598,-4.457,-4.4542,-4.4355,-4.368,-4.3108,-4.2707,-4.2189,-4.1901,-4.1901,-4.2093,-4.2552,-4.2847,-4.3061,-4.3152,-4.3122,-4.2769,-4.2221,-4.1674,-4.1129,-4.0603,-4.0309,-4.015,-3.9737,-3.9574,-3.9864,-3.9975,-3.9819,-3.9788,-3.9832,-3.9573,-3.9474,-3.9835,-4.0133,-3.971,-3.9208,-3.8699,-3.8337,-3.791,-4.4598,-4.4598,-4.4598,-4.4598,-4.4598,-4.4598,-4.4598,-4.4598,-4.4598,-4.4598,-4.4649,-4.4733,-4.4688,-4.4615,-4.4598,-4.4598,-4.4598,-4.4598,-4.4598,-4.4598,-4.4598,-4.4801,-4.4891,-4.4942,-4.5517,-4.6177,-4.6904,-4.7564,-4.8142,-4.8325,-4.8511,-4.89,-4.9018,-4.9001,-4.8815,-4.8477,-4.802,-4.7716,-4.7158,-4.6566,-4.5855,-4.5128,-4.4852,-4.4682,-4.4598,-4.4598,-4.4598,-4.4598,-4.4598,-4.4598,-4.4598,-4.4598,-4.4598,-4.4598,-4.4598,-4.4598,-4.4598,-4.4598,-4.4598,-4.4598,-4.4598,-4.4598,-4.4598,-4.4598,-4.4598,-4.4598,-4.4598,-4.4598,-4.4598,-4.4598,-4.4598,-4.4598,-4.4598,-4.4598,-4.4598,-4.4598,-4.4598,-4.4598,-4.4598,-4.4587,-4.4138,-4.3562,-4.3169,-4.2629,-4.2536,-4.252,-4.2707,-4.3139,-4.3515,-4.3768,-4.3931,-4.3885,-4.3663,-4.3061,-4.2504,-4.1901,-4.1412,-4.1247,-4.1095,-4.0289,-3.99,-4.0466,-4.0706,-4.0343,-4.0332,-4.0665,-4.0935,-4.0976,-4.145,-4.1709,-4.1133,-4.0449,-4.0356,-4.0008,-3.9911,-4.4598,-4.4598,-4.4598,-4.4598,-4.4598,-4.4598,-4.4598,-4.4598,-4.4615,-4.4598,-4.4773,-4.5196,-4.5213,-4.4615,-4.4598,-4.4699,-4.4953,-4.4818,-4.4632,-4.4598,-4.4902,-4.4886,-4.4953,-4.5258,-4.5635,-4.6261,-4.6853,-4.7242,-4.8122,-4.8261,-4.843,-4.8968,-4.9001,-4.9018,-4.8984,-4.868,-4.846,-4.8139,-4.7851,-4.7344,-4.6633,-4.5906,-4.5179,-4.4874,-4.4598,-4.4598,-4.4598,-4.4598,-4.4598,-4.4598,-4.4598,-4.4598,-4.4598,-4.4598,-4.4598,-4.4598,-4.4598,-4.4598,-4.4598,-4.4598,-4.4598,-4.4598,-4.4598,-4.4598,-4.4598,-4.4598,-4.4598,-4.4598,-4.4598,-4.4598,-4.4598,-4.4598,-4.4598,-4.4598,-4.4598,-4.4598,-4.4598,-4.4598,-4.4598,-4.4598,-4.444,-4.4196,-4.4121,-4.3856,-4.3827,-4.3827,-4.3798,-4.415,-4.4093,-4.4367,-4.4598,-4.4468,-4.431,-4.4412,-4.4076,-4.3061,-4.2552,-4.2347,-4.2062,-4.1379,-4.1162,-4.1478,-4.1511,-4.1095,-4.1295,-4.1675,-4.1917,-4.2157,-4.2205,-4.2298,-4.2045,-4.1662,-4.1677,-4.1686,-4.1525]},{"header":{"parameterUnit":"m.s-1","parameterCategory":1,"la1":31.0,"la2":29.5877,"lo1":-88.7671,"lo2":-86.6584,"dy":0.0162,"dx":0.0185,"nx":115,"ny":88,"refTime":"2023-06-28T18:00:00:Z","depth":0,"parameterNumber":3,"parameterNumberName":"V-component_of_WINDS"},"data":[0.0,0.0,0.0,0.0,0.0,0.0,0.0,0.0,0.0,0.0,0.0,0.0,0.0,0.0,0.0,0.0,0.0,0.0,0.0,0.0,0.0,0.0,0.0,0.0,0.0,0.0,0.0,0.0,0.0,0.0,0.0,0.0,0.0,0.0,0.0,0.0,0.0,0.0,0.0,0.0,0.0,0.0,0.0,0.0,0.0,0.0,0.0,0.0,0.0,0.0,0.0,0.0,0.0,0.0,0.0,0.0,0.0,0.0,0.0,0.0,0.0,0.0,0.0,0.0,0.0,0.0,0.0,0.0,0.0,0.0,0.0,0.0,0.0,0.0,0.0,0.0,0.0,0.0,0.0,0.0,0.0,0.0,0.0,0.0,0.0,0.0,0.0,0.0,0.0,0.0,0.0,0.0,0.0,0.0,0.0,0.0,0.0,0.0,0.0,0.0,0.0,0.0,0.0,0.0,0.0,0.0,0.0,0.0,0.0,0.0,0.0,0.0,0.0,0.0,0.0,0.0,0.0,0.0,0.0,0.0,0.0,0.0,0.0,0.0,0.0,0.0,0.0,0.0,0.0,0.0,0.0,0.0,0.0,0.0,0.0,0.0,0.0,0.0,0.0,0.0,0.0,0.0,0.0,0.0,0.0,0.0,0.0,0.0,0.0,0.0,0.0,0.0,0.0,0.0,0.0,0.0,0.0,0.0,0.0,0.0,0.0,0.0,0.0,0.0,0.0,0.0,0.0,0.0,0.0,0.0,0.0,0.0,0.0,0.0,0.0,0.0,0.0,0.0,0.0,0.0,0.0,0.0,0.0,0.0,0.0,0.0,0.0,0.0,0.0,0.0,0.0,0.0,0.0,0.0,0.0,0.0,0.0,0.0,0.0,0.0,0.0,0.0,0.0,0.0,0.0,0.0,0.0,0.0,0.0,0.0,0.0,0.0,0.0,0.0,0.0,0.0,0.0,0.0,0.0,0.0,0.0,0.0,0.0,0.0,0.0,0.0,0.0,0.0,0.0,0.0,0.0,0.0,0.0,0.0,0.0,0.0,0.0,0.0,0.0,0.0,0.0,0.0,0.0,0.0,0.0,0.0,0.0,0.0,0.0,0.0,0.0,0.0,0.0,0.0,0.0,0.0,0.0,0.0,0.0,0.0,0.0,0.0,0.0,0.0,0.0,0.0,0.0,0.0,0.0,0.0,0.0,0.0,0.0,0.0,0.0,0.0,0.0,0.0,0.0,0.0,0.0,0.0,0.0,0.0,0.0,0.0,0.0,0.0,0.0,0.0,0.0,0.0,0.0,0.0,0.0,0.0,0.0,0.0,0.0,0.0,0.0,0.0,0.0,0.0,0.0,0.0,0.0,0.0,0.0,0.0,0.0,0.0,0.0,0.0,0.0,0.0,0.0,0.0,0.0,0.0,0.0,0.0,0.0,0.0,0.0,0.0,0.0,0.0,0.0,0.0,0.0,0.0,0.0,0.0,0.0,0.0,0.0,0.0,0.0,0.0,0.0,0.0,0.0,0.0,0.0,0.0,0.0,0.0,0.0,0.0,0.0,0.0,0.0,0.0,0.0,0.0,0.0,0.0,0.0,0.0,0.0,0.0,0.0,0.0,0.0,0.0,0.0,0.0,0.0,0.0,0.0,0.0,0.0,0.0,0.0,0.0,0.0,0.0,0.0,0.0,0.0,0.0,0.0,0.0,0.0,0.0,0.0,0.0,0.0,0.0,0.0,0.0,0.0,0.0,0.0,0.0,0.0,0.0,0.0,0.0,0.0,0.0,0.0,0.0,0.0,0.0,0.0,0.0,0.0,0.0,0.0,0.0,0.0,0.0,0.0,0.0,0.0,0.0,0.0,0.0,0.0,0.0,0.0,0.0,0.0,0.0,0.0,0.0,0.0,0.0,0.0,0.0,0.0,0.0,0.0,0.0,0.0,0.0,0.0,0.0,0.0,0.0,0.0,0.0,0.0,0.0,0.0,0.0,0.0,0.0,0.0,0.0,0.0,0.0,0.0,0.0,0.0,0.0,0.0,0.0,0.0,0.0,0.0,0.0,0.0,0.0,0.0,0.0,0.0,0.0,0.0,0.0,0.0,0.0,0.0,0.0,0.0,0.0,0.0,0.0,0.0,0.0,0.0,0.0,0.0,0.0,0.0,0.0,0.0,0.0,0.0,0.0,0.0,0.0,0.0,0.0,0.0,0.0,0.0,0.0,0.0,0.0,0.0,0.0,0.0,0.0,0.0,0.0,0.0,0.0,0.0,0.0,0.0,0.0,0.0,0.0,0.0,0.0,0.0,0.0,0.0,0.0,0.0,0.0,0.0,0.0,0.0,0.0,0.0,0.0,0.0,0.0,0.0,0.0,0.0,0.0,0.0,0.0,0.0,0.0,0.0,0.0,0.0,0.0,0.0,0.0,0.0,0.0,0.0,0.0,0.0,0.0,0.0,0.0,0.0,0.0,0.0,0.0,0.0,0.0,0.0,0.0,0.0,0.0,0.0,0.0,0.0,0.0,0.0,0.0,0.0,0.0,0.0,0.0,0.0,0.0,0.0,0.0,0.0,0.0,0.0,0.0,0.0,0.0,0.0,0.0,0.0,0.0,0.0,0.0,0.0,0.0,0.0,0.0,0.0,0.0,0.0,0.0,0.0,0.0,0.0,0.0,0.0,0.0,0.0,0.0,0.0,0.0,0.0,0.0,0.0,0.0,0.0,0.0,0.0,0.0,0.0,0.0,0.0,0.0,0.0,0.0,0.0,0.0,0.0,0.0,0.0,0.0,0.0,0.0,0.0,0.0,0.0,0.0,0.0,0.0,0.0,0.0,0.0,0.0,0.0,0.0,0.0,0.0,0.0,0.0,0.0,0.0,0.0,0.0,0.0,0.0,0.0,0.0,0.0,0.0,0.0,0.0,0.0,0.0,0.0,0.0,0.0,0.0,0.0,0.0,0.0,0.0,0.0,0.0,0.0,0.0,0.0,0.0,0.0,0.0,0.0,0.0,0.0,0.0,0.0,0.0,0.0,0.0,0.0,0.0,0.0,0.0,0.0,0.0,0.0,0.0,0.0,0.0,0.0,0.0,0.0,0.0,0.0,0.0,0.0,0.0,0.0,0.0,0.0,0.0,0.0,0.0,0.0,0.0,0.0,0.0,0.0,0.0,0.0,0.0,0.0,0.0,0.0,0.0,0.0,0.0,0.0,0.0,0.0,0.0,0.0,0.0,0.0,0.0,0.0,0.0,0.0,0.0,0.0,0.0,0.0,0.0,0.0,0.0,0.0,0.0,0.0,0.0,0.0,0.0,0.0,0.0,0.0,0.0,0.0,0.0,0.0,0.0,0.0,0.0,0.0,0.0,0.0,0.0,0.0,0.0,0.0,0.0,0.0,0.0,0.0,0.0,0.0,0.0,0.0,0.0,0.0,0.0,0.0,0.0,0.0,0.0,0.0,0.0,0.0,0.0,0.0,0.0,0.0,0.0,0.0,0.0,0.0,0.0,0.0,0.0,0.0,0.0,0.0,0.0,0.0,0.0,0.0,0.0,0.0,0.0,0.0,0.0,0.0,0.0,0.0,0.0,0.0,0.0,0.0,0.0,0.0,0.0,0.0,0.0,0.0,0.0,0.0,0.0,0.0,0.0,0.0,0.0,0.0,0.0,0.0,0.0,0.0,0.0,0.0,0.0,0.0,0.0,0.0,0.0,0.0,0.0,0.0,0.0,0.0,0.0,0.0,0.0,0.0,0.0,0.0,0.0,0.0,0.0,0.0,0.0,0.0,0.0,0.0,0.0,0.0,0.0,0.0,0.0,0.0,0.0,0.0,0.0,0.0,0.0,0.0,0.0,0.0,0.0,0.0,0.0,0.0,0.0,0.0,0.0,0.0,0.0,0.0,0.0,0.0,0.0,0.0,0.0,0.0,0.0,0.0,0.0,0.0,0.0,0.0,0.0,0.0,0.0,0.0,0.0,0.0,0.0,0.0,0.0,0.0,0.0,0.0,0.0,0.0,0.0,0.0,0.0,0.0,0.0,0.0,0.0,0.0,0.0,0.0,0.0,0.0,0.0,0.0,0.0,0.0,0.0,0.0,0.0,0.0,0.0,0.0,0.0,0.0,0.0,0.0,0.0,0.0,0.0,0.0,0.0,0.0,0.0,0.0,0.0,0.0,0.0,0.0,0.0,0.0,0.0,0.0,0.0,0.0,0.0,0.0,0.0,0.0,0.0,0.0,0.0,0.0,0.0,0.0,0.0,0.0,0.0,0.0,0.0,0.0,0.0,-1.315,0.0,0.0,0.0,0.0,0.0,0.0,0.0,0.0,0.0,0.0,0.0,0.0,0.0,0.0,0.0,0.0,0.0,0.0,0.0,0.0,0.0,0.0,0.0,0.0,0.0,0.0,0.0,0.0,0.0,0.0,0.0,0.0,0.0,0.0,0.0,0.0,0.0,0.0,0.0,0.0,0.0,0.0,0.0,0.0,0.0,0.0,0.0,0.0,0.0,0.0,0.0,0.0,0.0,0.0,0.0,0.0,0.0,0.0,0.0,0.0,0.0,0.0,0.0,0.0,0.0,0.0,0.0,0.0,0.0,0.0,0.0,0.0,0.0,0.0,0.0,0.0,0.0,0.0,0.0,0.0,0.0,0.0,0.0,0.0,0.0,0.0,0.0,0.0,0.0,0.0,0.0,0.0,0.0,0.0,0.0,0.0,0.0,0.0,0.0,0.0,0.0,0.0,0.0,0.0,0.0,0.0,0.0,0.0,0.0,0.0,-1.4965,-1.4859,-1.3896,-1.3347,-1.329,0.0,0.0,0.0,0.0,0.0,0.0,0.0,0.0,0.0,0.0,0.0,0.0,0.0,0.0,0.0,0.0,0.0,0.0,0.0,0.0,0.0,0.0,0.0,0.0,0.0,0.0,0.0,0.0,0.0,0.0,0.0,0.0,0.0,0.0,0.0,0.0,0.0,0.0,0.0,0.0,0.0,0.0,0.0,0.0,0.0,0.0,0.0,0.0,0.0,0.0,0.0,0.0,0.0,0.0,0.0,0.0,0.0,0.0,0.0,0.0,0.0,0.0,0.0,0.0,0.0,0.0,0.0,0.0,0.0,0.0,0.0,0.0,0.0,0.0,0.0,0.0,0.0,0.0,0.0,0.0,0.0,0.0,0.0,0.0,0.0,0.0,0.0,0.0,0.0,0.0,0.0,0.0,0.0,0.0,0.0,0.0,0.0,0.0,0.0,0.0,0.0,0.0,0.0,0.0,0.0,0.0,0.0,0.0,0.0,0.0,0.0,0.0,-1.3956,-1.3229,-1.2971,0.0,0.0,0.0,0.0,0.0,0.0,0.0,0.0,0.0,0.0,0.0,0.0,0.0,0.0,0.0,0.0,0.0,0.0,0.0,0.0,0.0,0.0,0.0,0.0,0.0,0.0,0.0,0.0,0.0,0.0,0.0,0.0,0.0,0.0,0.0,0.0,0.0,0.0,0.0,0.0,0.0,0.0,0.0,0.0,0.0,0.0,0.0,0.0,0.0,0.0,0.0,0.0,0.0,0.0,0.0,0.0,0.0,0.0,0.0,0.0,0.0,0.0,0.0,0.0,0.0,0.0,0.0,0.0,0.0,0.0,0.0,0.0,0.0,0.0,0.0,0.0,0.0,0.0,0.0,0.0,0.0,0.0,0.0,0.0,0.0,0.0,0.0,0.0,0.0,0.0,0.0,0.0,0.0,0.0,0.0,0.0,0.0,0.0,0.0,0.0,0.0,0.0,0.0,0.0,0.0,0.0,0.0,0.0,0.0,0.0,-1.5344,-1.5268,-1.4515,0.0,-1.2107,0.0,0.0,0.0,0.0,0.0,0.0,0.0,0.0,0.0,0.0,0.0,0.0,0.0,0.0,0.0,0.0,0.0,0.0,0.0,0.0,0.0,0.0,0.0,0.0,0.0,0.0,0.0,0.0,0.0,0.0,0.0,0.0,0.0,0.0,0.0,0.0,0.0,0.0,0.0,0.0,0.0,0.0,0.0,0.0,0.0,0.0,0.0,0.0,0.0,0.0,0.0,0.0,0.0,0.0,0.0,0.0,0.0,0.0,0.0,0.0,0.0,0.0,0.0,0.0,0.0,0.0,0.0,0.0,0.0,0.0,0.0,0.0,0.0,0.0,0.0,0.0,0.0,0.0,0.0,0.0,0.0,0.0,0.0,0.0,0.0,0.0,0.0,0.0,0.0,0.0,0.0,0.0,0.0,0.0,0.0,0.0,0.0,0.0,0.0,0.0,0.0,0.0,0.0,0.0,0.0,0.0,0.0,0.0,0.0,0.0,-1.5448,-1.5433,-1.4688,-1.3596,0.0,0.0,0.0,0.0,0.0,0.0,0.0,0.0,0.0,0.0,0.0,0.0,0.0,0.0,0.0,0.0,0.0,0.0,0.0,0.0,0.0,0.0,0.0,0.0,0.0,0.0,0.0,0.0,0.0,0.0,0.0,0.0,0.0,0.0,0.0,0.0,0.0,0.0,0.0,0.0,0.0,0.0,0.0,0.0,0.0,0.0,0.0,0.0,0.0,0.0,0.0,0.0,0.0,0.0,0.0,0.0,0.0,0.0,0.0,0.0,0.0,0.0,0.0,0.0,0.0,0.0,0.0,0.0,0.0,0.0,0.0,0.0,0.0,0.0,0.0,0.0,0.0,0.0,0.0,0.0,0.0,0.0,0.0,0.0,0.0,0.0,0.0,0.0,0.0,0.0,0.0,0.0,0.0,0.0,0.0,0.0,0.0,0.0,0.0,0.0,0.0,0.0,0.0,0.0,0.0,0.0,0.0,0.0,0.0,0.0,-1.6143,-1.5522,-1.5463,-1.4789,-1.3905,-1.2795,0.0,0.0,0.0,0.0,0.0,0.0,0.0,0.0,0.0,0.0,0.0,0.0,0.0,0.0,0.0,0.0,0.0,0.0,0.0,0.0,0.0,0.0,0.0,0.0,0.0,0.0,0.0,0.0,0.0,0.0,0.0,0.0,0.0,0.0,0.0,0.0,0.0,0.0,0.0,0.0,0.0,0.0,0.0,0.0,0.0,0.0,0.0,0.0,0.0,0.0,0.0,0.0,0.0,0.0,0.0,0.0,0.0,0.0,0.0,0.0,0.0,0.0,0.0,0.0,0.0,0.0,0.0,0.0,0.0,0.0,0.0,0.0,0.0,0.0,0.0,0.0,0.0,0.0,0.0,0.0,0.0,0.0,0.0,0.0,0.0,0.0,0.0,0.0,0.0,0.0,0.0,0.0,0.0,0.0,0.0,0.0,0.0,0.0,0.0,0.0,0.0,0.0,0.0,0.0,0.0,0.0,0.0,0.0,-1.6756,-1.5995,-1.5566,-1.5477,-1.4845,-1.4464,0.0,0.0,0.0,0.0,0.0,0.0,0.0,0.0,0.0,0.0,0.0,0.0,0.0,0.0,0.0,0.0,0.0,0.0,0.0,0.0,0.0,0.0,0.0,0.0,0.0,0.0,0.0,0.0,0.0,0.0,0.0,0.0,0.0,0.0,0.0,0.0,0.0,0.0,0.0,0.0,0.0,0.0,0.0,0.0,0.0,0.0,0.0,0.0,0.0,0.0,0.0,0.0,0.0,0.0,0.0,0.0,0.0,0.0,0.0,0.0,0.0,0.0,0.0,0.0,0.0,0.0,0.0,0.0,0.0,0.0,0.0,0.0,0.0,0.0,0.0,0.0,0.0,0.0,0.0,0.0,0.0,0.0,0.0,0.0,0.0,0.0,0.0,0.0,0.0,0.0,0.0,0.0,0.0,0.0,0.0,0.0,0.0,0.0,0.0,0.0,0.0,0.0,0.0,0.0,0.0,0.0,0.0,0.0,0.0,-1.6681,-1.6055,-1.5726,-1.5668,-1.5373,-1.5019,0.0,0.0,0.0,0.0,0.0,0.0,0.0,0.0,0.0,0.0,0.0,0.0,0.0,0.0,0.0,0.0,0.0,0.0,0.0,0.0,0.0,0.0,0.0,0.0,0.0,0.0,0.0,0.0,0.0,0.0,0.0,0.0,0.0,0.0,0.0,0.0,0.0,0.0,0.0,0.0,0.0,0.0,0.0,0.0,0.0,0.0,0.0,0.0,0.0,0.0,0.0,0.0,0.0,0.0,0.0,0.0,0.0,0.0,0.0,0.0,0.0,0.0,0.0,0.0,0.0,0.0,0.0,0.0,0.0,0.0,0.0,0.0,0.0,0.0,0.0,0.0,0.0,0.0,0.0,0.0,0.0,0.0,0.0,0.0,0.0,0.0,0.0,0.0,0.0,0.0,0.0,0.0,0.0,0.0,0.0,0.0,0.0,0.0,0.0,0.0,0.0,0.0,0.0,0.0,0.0,0.0,0.0,0.0,0.0,-1.6413,0.0,-1.5814,-1.5814,-1.5726,-1.5474,0.0,0.0,0.0,0.0,0.0,0.0,0.0,0.0,0.0,0.0,0.0,0.0,0.0,0.0,0.0,0.0,0.0,0.0,0.0,0.0,0.0,0.0,0.0,0.0,0.0,0.0,0.0,0.0,0.0,0.0,0.0,0.0,0.0,0.0,0.0,0.0,0.0,0.0,0.0,0.0,0.0,0.0,0.0,0.0,0.0,0.0,0.0,0.0,0.0,0.0,0.0,0.0,0.0,0.0,0.0,0.0,0.0,0.0,0.0,0.0,0.0,0.0,0.0,0.0,0.0,0.0,0.0,0.0,0.0,0.0,0.0,0.0,0.0,0.0,0.0,0.0,0.0,0.0,0.0,0.0,0.0,0.0,0.0,0.0,0.0,0.0,0.0,0.0,0.0,0.0,0.0,0.0,0.0,0.0,0.0,0.0,0.0,0.0,0.0,0.0,0.0,0.0,0.0,0.0,0.0,0.0,0.0,0.0,-1.6413,-1.5858,-1.5858,-1.5903,-1.5844,-1.5844,-1.5799,0.0,0.0,0.0,0.0,0.0,0.0,0.0,0.0,0.0,0.0,0.0,0.0,0.0,0.0,0.0,0.0,0.0,0.0,0.0,0.0,0.0,0.0,0.0,0.0,0.0,0.0,0.0,0.0,0.0,0.0,0.0,0.0,0.0,0.0,0.0,0.0,0.0,0.0,0.0,0.0,0.0,0.0,0.0,0.0,0.0,0.0,0.0,0.0,0.0,0.0,0.0,0.0,0.0,0.0,0.0,0.0,0.0,0.0,0.0,0.0,0.0,0.0,0.0,0.0,0.0,0.0,0.0,0.0,0.0,0.0,0.0,0.0,0.0,0.0,0.0,0.0,0.0,0.0,0.0,0.0,0.0,0.0,0.0,0.0,0.0,0.0,0.0,0.0,0.0,0.0,0.0,0.0,0.0,0.0,0.0,0.0,0.0,0.0,0.0,0.0,0.0,0.0,0.0,0.0,0.0,0.0,0.0,0.0,0.0,-1.6458,-1.6877,-1.7101,-1.7086,-1.6667,-1.6413,0.0,0.0,0.0,0.0,0.0,0.0,0.0,0.0,0.0,0.0,0.0,0.0,0.0,0.0,0.0,0.0,0.0,0.0,0.0,0.0,0.0,0.0,0.0,0.0,0.0,0.0,0.0,0.0,0.0,0.0,0.0,0.0,0.0,0.0,0.0,0.0,0.0,0.0,0.0,0.0,0.0,0.0,0.0,0.0,0.0,0.0,0.0,0.0,0.0,0.0,0.0,0.0,0.0,0.0,0.0,0.0,0.0,0.0,0.0,0.0,0.0,0.0,0.0,0.0,0.0,0.0,0.0,0.0,0.0,0.0,0.0,0.0,0.0,0.0,0.0,0.0,0.0,0.0,0.0,0.0,0.0,0.0,0.0,0.0,0.0,0.0,0.0,0.0,0.0,0.0,0.0,0.0,0.0,0.0,0.0,0.0,0.0,0.0,0.0,0.0,0.0,0.0,0.0,0.0,0.0,0.0,0.0,0.0,0.0,-1.819,-1.8356,-1.8448,-1.8463,-1.8042,-1.7473,-1.6741,0.0,0.0,0.0,0.0,0.0,0.0,0.0,0.0,0.0,0.0,0.0,0.0,0.0,0.0,0.0,0.0,0.0,0.0,0.0,0.0,0.0,0.0,0.0,0.0,0.0,0.0,0.0,0.0,0.0,0.0,0.0,0.0,0.0,0.0,0.0,0.0,0.0,0.0,0.0,0.0,0.0,0.0,0.0,0.0,0.0,0.0,0.0,0.0,0.0,0.0,0.0,0.0,0.0,0.0,0.0,0.0,0.0,0.0,0.0,0.0,0.0,0.0,0.0,0.0,0.0,0.0,0.0,0.0,0.0,0.0,0.0,0.0,0.0,0.0,0.0,0.0,0.0,0.0,0.0,0.0,0.0,0.0,0.0,0.0,0.0,0.0,0.0,0.0,0.0,0.0,0.0,0.0,0.0,0.0,0.0,0.0,0.0,0.0,0.0,0.0,0.0,0.0,0.0,0.0,0.0,0.0,0.0,0.0,-2.0872,-2.0318,-2.0037,-1.9947,-1.9813,-1.8852,0.0,0.0,0.0,0.0,0.0,0.0,0.0,0.0,0.0,0.0,0.0,0.0,0.0,0.0,0.0,0.0,0.0,0.0,0.0,0.0,0.0,0.0,0.0,0.0,0.0,0.0,0.0,0.0,0.0,0.0,0.0,0.0,0.0,0.0,0.0,0.0,0.0,0.0,0.0,0.0,0.0,0.0,0.0,0.0,0.0,0.0,0.0,0.0,0.0,0.0,0.0,0.0,0.0,0.0,0.0,0.0,0.0,0.0,0.0,0.0,0.0,0.0,0.0,0.0,0.0,0.0,0.0,0.0,0.0,0.0,0.0,0.0,0.0,0.0,0.0,0.0,0.0,0.0,0.0,0.0,0.0,0.0,0.0,0.0,0.0,0.0,0.0,0.0,0.0,0.0,0.0,0.0,0.0,0.0,0.0,0.0,0.0,0.0,0.0,0.0,0.0,0.0,0.0,0.0,0.0,0.0,0.0,0.0,0.0,-2.2787,-2.364,-2.3595,-2.2592,-2.1201,-1.9974,0.0,0.0,0.0,0.0,0.0,0.0,0.0,0.0,0.0,0.0,0.0,0.0,0.0,0.0,0.0,0.0,0.0,0.0,0.0,0.0,0.0,0.0,0.0,0.0,0.0,0.0,0.0,0.0,0.0,0.0,0.0,0.0,0.0,0.0,0.0,0.0,0.0,0.0,0.0,0.0,0.0,0.0,0.0,0.0,0.0,0.0,0.0,0.0,0.0,0.0,0.0,0.0,0.0,0.0,0.0,0.0,0.0,0.0,0.0,0.0,0.0,0.0,0.0,0.0,0.0,0.0,0.0,0.0,0.0,0.0,0.0,0.0,0.0,0.0,0.0,0.0,0.0,0.0,0.0,0.0,0.0,0.0,0.0,0.0,0.0,0.0,0.0,0.0,0.0,0.0,0.0,0.0,0.0,0.0,0.0,0.0,0.0,0.0,0.0,0.0,0.0,0.0,0.0,0.0,0.0,0.0,0.0,0.0,-2.2338,-2.3999,-2.5615,-2.6063,-2.5294,-2.3101,-2.135,0.0,0.0,0.0,0.0,0.0,0.0,0.0,0.0,0.0,0.0,0.0,0.0,0.0,0.0,0.0,0.0,0.0,0.0,0.0,0.0,0.0,0.0,0.0,0.0,0.0,0.0,0.0,0.0,0.0,0.0,0.0,0.0,0.0,0.0,0.0,0.0,0.0,0.0,0.0,0.0,0.0,0.0,0.0,0.0,0.0,0.0,0.0,0.0,0.0,0.0,0.0,0.0,0.0,0.0,0.0,0.0,0.0,0.0,0.0,0.0,0.0,0.0,0.0,0.0,0.0,0.0,0.0,0.0,0.0,0.0,0.0,0.0,0.0,0.0,0.0,0.0,0.0,0.0,0.0,0.0,0.0,0.0,0.0,0.0,0.0,0.0,0.0,0.0,0.0,0.0,0.0,0.0,0.0,0.0,0.0,0.0,0.0,0.0,0.0,0.0,0.0,0.0,0.0,0.0,0.0,0.0,0.0,0.0,-2.361,-2.4903,-2.6797,-2.7794,-2.7735,-2.5159,-2.2832,0.0,0.0,0.0,0.0,0.0,0.0,0.0,0.0,0.0,0.0,0.0,0.0,0.0,0.0,0.0,0.0,0.0,0.0,0.0,0.0,0.0,0.0,0.0,0.0,0.0,0.0,0.0,0.0,0.0,0.0,0.0,0.0,0.0,0.0,0.0,0.0,0.0,0.0,0.0,0.0,0.0,0.0,0.0,0.0,0.0,0.0,0.0,0.0,0.0,0.0,0.0,0.0,0.0,0.0,0.0,0.0,0.0,0.0,0.0,0.0,0.0,0.0,0.0,0.0,0.0,0.0,0.0,0.0,0.0,0.0,0.0,0.0,0.0,0.0,0.0,0.0,0.0,0.0,0.0,0.0,0.0,0.0,0.0,0.0,0.0,0.0,0.0,0.0,0.0,0.0,0.0,0.0,0.0,0.0,0.0,0.0,0.0,0.0,0.0,0.0,0.0,0.0,0.0,0.0,0.0,0.0,0.0,0.0,-2.5615,-2.6956,-2.8408,-2.9187,-2.9157,-2.6078,-2.3708,0.0,0.0,0.0,0.0,0.0,0.0,0.0,0.0,0.0,0.0,0.0,0.0,0.0,0.0,0.0,0.0,0.0,0.0,0.0,0.0,0.0,0.0,0.0,0.0,0.0,0.0,0.0,0.0,0.0,0.0,0.0,0.0,0.0,0.0,0.0,0.0,0.0,0.0,0.0,0.0,0.0,0.0,0.0,0.0,0.0,0.0,0.0,0.0,-1.6883,0.0,0.0,0.0,0.0,0.0,0.0,0.0,0.0,0.0,0.0,0.0,0.0,0.0,0.0,0.0,0.0,0.0,0.0,0.0,0.0,0.0,0.0,0.0,0.0,0.0,0.0,0.0,0.0,0.0,0.0,0.0,0.0,0.0,0.0,0.0,0.0,0.0,0.0,0.0,0.0,0.0,0.0,0.0,0.0,0.0,0.0,0.0,0.0,0.0,0.0,0.0,0.0,0.0,0.0,0.0,0.0,0.0,0.0,0.0,-2.6408,-2.8034,-2.9067,-2.9621,-2.952,-2.7575,-2.5561,0.0,0.0,0.0,0.0,0.0,0.0,0.0,0.0,0.0,0.0,0.0,0.0,0.0,0.0,0.0,0.0,0.0,0.0,0.0,0.0,0.0,0.0,0.0,0.0,0.0,0.0,0.0,0.0,0.0,0.0,0.0,0.0,0.0,0.0,0.0,0.0,0.0,0.0,0.0,0.0,0.0,0.0,0.0,0.0,0.0,0.0,0.0,0.0,0.0,0.0,0.0,0.0,0.0,0.0,0.0,0.0,0.0,0.0,0.0,0.0,0.0,0.0,0.0,0.0,0.0,0.0,0.0,0.0,0.0,0.0,0.0,0.0,0.0,0.0,0.0,0.0,0.0,0.0,0.0,0.0,0.0,0.0,0.0,0.0,0.0,0.0,0.0,0.0,0.0,0.0,0.0,0.0,0.0,0.0,0.0,0.0,0.0,0.0,0.0,0.0,0.0,0.0,0.0,0.0,0.0,0.0,0.0,-2.5106,-2.7036,-2.8966,-2.9594,-2.9894,-2.9864,-2.9146,-2.7484,-2.4863,0.0,0.0,0.0,0.0,0.0,0.0,0.0,0.0,0.0,0.0,0.0,0.0,0.0,0.0,0.0,0.0,0.0,0.0,0.0,0.0,0.0,0.0,0.0,0.0,0.0,0.0,0.0,0.0,0.0,0.0,0.0,0.0,0.0,0.0,0.0,0.0,0.0,0.0,-1.5242,-1.607,0.0,0.0,0.0,0.0,0.0,0.0,0.0,0.0,-1.9501,0.0,0.0,0.0,0.0,0.0,0.0,0.0,0.0,0.0,0.0,0.0,0.0,0.0,0.0,0.0,0.0,0.0,0.0,0.0,0.0,0.0,0.0,0.0,0.0,0.0,0.0,0.0,0.0,0.0,0.0,0.0,0.0,0.0,0.0,0.0,0.0,0.0,0.0,0.0,0.0,0.0,0.0,0.0,0.0,0.0,0.0,0.0,0.0,0.0,0.0,0.0,0.0,0.0,0.0,0.0,0.0,-2.5937,-2.738,-2.9071,-3.0957,-3.1122,-3.1182,-3.1152,-2.9918,-2.8244,-2.6066,0.0,0.0,0.0,0.0,0.0,0.0,0.0,0.0,0.0,0.0,0.0,0.0,0.0,0.0,0.0,0.0,0.0,0.0,0.0,0.0,0.0,0.0,0.0,0.0,0.0,0.0,0.0,0.0,0.0,0.0,0.0,0.0,0.0,0.0,0.0,0.0,0.0,0.0,0.0,-1.7479,-1.7978,0.0,0.0,0.0,0.0,0.0,0.0,0.0,0.0,-2.1757,0.0,0.0,0.0,0.0,0.0,0.0,0.0,0.0,0.0,0.0,0.0,0.0,0.0,0.0,0.0,0.0,0.0,0.0,0.0,0.0,0.0,0.0,0.0,0.0,0.0,0.0,0.0,0.0,0.0,0.0,0.0,0.0,0.0,0.0,0.0,0.0,0.0,0.0,0.0,0.0,0.0,0.0,0.0,0.0,0.0,0.0,0.0,0.0,0.0,0.0,0.0,0.0,0.0,0.0,0.0,-2.6551,-2.8248,-2.9894,-3.1436,-3.1496,-3.1496,-3.1466,-3.0157,-2.8521,0.0,0.0,0.0,0.0,0.0,0.0,0.0,0.0,0.0,0.0,0.0,0.0,0.0,0.0,0.0,0.0,0.0,0.0,0.0,0.0,0.0,0.0,0.0,0.0,0.0,0.0,0.0,0.0,0.0,0.0,0.0,0.0,0.0,0.0,0.0,0.0,0.0,0.0,0.0,0.0,-1.9119,-2.0242,-2.1666,0.0,0.0,0.0,0.0,0.0,0.0,-2.3483,-2.3109,0.0,0.0,0.0,0.0,0.0,0.0,0.0,0.0,0.0,0.0,0.0,0.0,0.0,0.0,0.0,0.0,0.0,0.0,0.0,0.0,0.0,0.0,0.0,0.0,0.0,0.0,0.0,0.0,0.0,0.0,0.0,0.0,0.0,0.0,0.0,0.0,0.0,0.0,0.0,0.0,0.0,0.0,0.0,0.0,0.0,0.0,0.0,0.0,0.0,0.0,0.0,0.0,0.0,0.0,0.0,-2.6806,-2.8768,-3.0328,-3.1436,-3.1496,-3.1496,-3.1466,-2.9952,-2.8456,0.0,0.0,0.0,0.0,0.0,0.0,0.0,0.0,0.0,0.0,0.0,0.0,0.0,0.0,0.0,0.0,0.0,0.0,0.0,0.0,0.0,0.0,0.0,0.0,0.0,0.0,0.0,0.0,0.0,0.0,0.0,0.0,0.0,0.0,0.0,0.0,0.0,0.0,0.0,0.0,0.0,-2.2254,-2.3709,-2.3219,0.0,0.0,0.0,0.0,-2.4413,-2.4863,0.0,0.0,0.0,0.0,0.0,0.0,0.0,0.0,0.0,0.0,0.0,0.0,0.0,0.0,0.0,0.0,0.0,0.0,0.0,0.0,0.0,0.0,0.0,0.0,0.0,0.0,0.0,0.0,0.0,0.0,0.0,0.0,0.0,0.0,0.0,0.0,0.0,0.0,0.0,0.0,0.0,0.0,0.0,0.0,0.0,0.0,0.0,0.0,0.0,0.0,0.0,0.0,0.0,0.0,0.0,0.0,-2.7465,-2.94,-3.0748,-3.1451,-3.1496,-3.1496,-3.1466,-2.9341,-2.7771,0.0,0.0,0.0,0.0,0.0,0.0,0.0,0.0,0.0,0.0,0.0,0.0,0.0,0.0,0.0,0.0,0.0,0.0,0.0,0.0,0.0,0.0,0.0,0.0,0.0,0.0,0.0,0.0,0.0,0.0,0.0,0.0,0.0,0.0,0.0,0.0,0.0,0.0,0.0,0.0,0.0,-2.2813,-2.5661,-2.5412,-2.4963,0.0,0.0,-2.7212,-2.7297,-2.7852,0.0,0.0,0.0,0.0,0.0,0.0,0.0,0.0,0.0,0.0,0.0,0.0,0.0,0.0,0.0,0.0,0.0,0.0,0.0,0.0,0.0,0.0,0.0,0.0,0.0,0.0,0.0,0.0,0.0,0.0,0.0,0.0,0.0,0.0,0.0,0.0,0.0,0.0,0.0,0.0,0.0,0.0,0.0,0.0,0.0,0.0,0.0,0.0,0.0,0.0,0.0,0.0,0.0,0.0,0.0,-2.5974,-2.76,-2.9879,-3.1197,-3.1496,-3.1496,-3.1292,-3.0837,-2.8793,-2.7158,0.0,0.0,0.0,0.0,0.0,0.0,0.0,0.0,0.0,0.0,0.0,0.0,0.0,0.0,0.0,0.0,0.0,0.0,0.0,0.0,0.0,0.0,0.0,0.0,0.0,0.0,0.0,0.0,0.0,0.0,0.0,0.0,0.0,0.0,0.0,0.0,0.0,0.0,0.0,0.0,0.0,0.0,-2.6127,-2.6272,0.0,0.0,0.0,-2.7789,-2.7789,0.0,0.0,0.0,0.0,0.0,0.0,0.0,0.0,0.0,0.0,0.0,0.0,0.0,0.0,0.0,0.0,0.0,0.0,0.0,0.0,0.0,0.0,0.0,0.0,0.0,0.0,0.0,0.0,0.0,0.0,0.0,0.0,0.0,0.0,0.0,0.0,0.0,0.0,0.0,0.0,0.0,0.0,0.0,0.0,0.0,0.0,0.0,0.0,0.0,0.0,0.0,0.0,0.0,0.0,0.0,0.0,0.0,-2.7615,-3.0178,-3.1496,-3.1496,-3.1292,-3.0896,-3.03,-2.8354,0.0,0.0,0.0,0.0,0.0,0.0,0.0,0.0,0.0,0.0,0.0,0.0,0.0,0.0,0.0,0.0,0.0,0.0,0.0,0.0,0.0,0.0,0.0,0.0,0.0,0.0,0.0,-1.6718,0.0,0.0,0.0,0.0,0.0,0.0,0.0,0.0,0.0,0.0,0.0,0.0,0.0,0.0,-2.5533,-2.6421,-2.692,-2.7689,0.0,0.0,-2.8162,-2.8348,-2.9025,-2.8704,0.0,0.0,0.0,0.0,0.0,0.0,0.0,0.0,0.0,0.0,0.0,0.0,0.0,0.0,0.0,0.0,0.0,0.0,0.0,0.0,0.0,0.0,0.0,0.0,0.0,0.0,0.0,0.0,0.0,0.0,0.0,0.0,0.0,0.0,0.0,0.0,0.0,0.0,0.0,0.0,0.0,0.0,0.0,0.0,0.0,0.0,0.0,0.0,0.0,0.0,0.0,0.0,0.0,0.0,-2.6258,-2.763,-3.0165,-3.1496,-3.1467,-3.0777,-3.0359,-3.0284,-2.7968,-2.6161,0.0,0.0,0.0,0.0,0.0,0.0,0.0,0.0,0.0,0.0,0.0,0.0,0.0,0.0,0.0,0.0,0.0,0.0,0.0,0.0,0.0,0.0,0.0,0.0,0.0,0.0,0.0,0.0,0.0,0.0,0.0,0.0,0.0,0.0,0.0,0.0,0.0,0.0,0.0,0.0,0.0,-2.507,-2.6965,-2.7701,-2.8489,0.0,-2.9397,-2.9162,-2.9837,-3.0548,-3.0059,-2.7114,0.0,0.0,0.0,0.0,0.0,0.0,0.0,0.0,0.0,0.0,0.0,0.0,0.0,0.0,0.0,0.0,0.0,0.0,0.0,0.0,0.0,0.0,0.0,0.0,0.0,0.0,0.0,0.0,0.0,0.0,0.0,0.0,0.0,0.0,0.0,0.0,0.0,0.0,0.0,0.0,0.0,0.0,0.0,0.0,0.0,0.0,0.0,0.0,0.0,0.0,0.0,0.0,0.0,-2.6686,-2.7615,-3.015,-3.1248,-3.0777,-3.045,-2.9782,-2.8703,-2.7579,-2.6149,0.0,0.0,0.0,0.0,0.0,0.0,0.0,0.0,0.0,0.0,0.0,0.0,0.0,0.0,0.0,0.0,0.0,0.0,0.0,0.0,0.0,0.0,0.0,0.0,0.0,0.0,0.0,0.0,-2.2467,-2.299,-2.2718,0.0,0.0,0.0,0.0,0.0,0.0,0.0,0.0,0.0,0.0,-2.5944,-2.7401,-2.8273,0.0,0.0,-2.9871,-2.9599,-2.9338,-3.0002,-2.9649,-2.7045,-2.605,0.0,0.0,0.0,0.0,0.0,0.0,0.0,0.0,0.0,0.0,0.0,0.0,0.0,0.0,0.0,0.0,0.0,0.0,0.0,0.0,0.0,0.0,0.0,0.0,0.0,0.0,0.0,0.0,0.0,0.0,0.0,0.0,0.0,0.0,0.0,0.0,0.0,0.0,0.0,0.0,0.0,0.0,0.0,0.0,0.0,0.0,0.0,0.0,0.0,0.0,0.0,0.0,-2.6803,-2.7214,-2.9801,-3.0748,-2.9905,-2.9919,-2.9192,-2.7756,-2.7438,-2.6379,0.0,0.0,0.0,0.0,0.0,0.0,0.0,0.0,0.0,0.0,0.0,0.0,0.0,0.0,0.0,0.0,0.0,0.0,0.0,0.0,0.0,0.0,0.0,0.0,0.0,0.0,0.0,0.0,-2.3655,-2.3819,-2.2538,0.0,0.0,0.0,0.0,0.0,0.0,0.0,0.0,0.0,0.0,-2.6651,-2.7485,-2.8317,-2.896,-2.9465,-2.9379,-2.9127,-2.8749,-2.9227,-2.908,-2.7478,0.0,0.0,0.0,0.0,0.0,0.0,0.0,0.0,0.0,0.0,0.0,0.0,0.0,0.0,0.0,0.0,0.0,0.0,0.0,0.0,0.0,0.0,0.0,0.0,0.0,0.0,0.0,-2.162,0.0,0.0,-2.0628,0.0,0.0,0.0,0.0,0.0,0.0,0.0,0.0,0.0,0.0,0.0,0.0,0.0,0.0,0.0,0.0,0.0,0.0,0.0,0.0,0.0,0.0,-2.6528,-2.6361,-2.9016,-2.9919,-2.9052,-2.9034,-2.8575,-2.7736,-2.7677,-2.6771,-2.484,0.0,0.0,0.0,0.0,0.0,0.0,0.0,0.0,0.0,0.0,0.0,0.0,0.0,0.0,0.0,0.0,0.0,0.0,0.0,0.0,0.0,0.0,0.0,0.0,0.0,0.0,-2.2598,-2.3236,-2.3116,0.0,0.0,0.0,0.0,0.0,0.0,0.0,0.0,0.0,-2.313,-2.5339,-2.6957,-2.7211,-2.7642,-2.8045,-2.827,-2.7772,-2.7616,-2.8315,-2.8491,-2.855,0.0,0.0,0.0,0.0,0.0,0.0,0.0,0.0,0.0,0.0,0.0,0.0,0.0,0.0,0.0,0.0,0.0,0.0,0.0,0.0,0.0,0.0,0.0,0.0,0.0,0.0,0.0,-2.1964,-2.2906,0.0,0.0,0.0,0.0,0.0,0.0,0.0,0.0,0.0,0.0,0.0,-2.6611,-2.6602,0.0,0.0,0.0,0.0,0.0,0.0,0.0,0.0,0.0,0.0,0.0,0.0,-2.7023,-2.6954,-2.913,-2.9597,-2.8168,-2.8149,-2.7723,-2.6918,-2.6918,-2.6227,-2.4858,0.0,0.0,0.0,0.0,0.0,0.0,0.0,0.0,0.0,0.0,0.0,0.0,0.0,0.0,0.0,0.0,0.0,0.0,0.0,0.0,0.0,0.0,0.0,0.0,0.0,-2.2817,0.0,0.0,0.0,0.0,0.0,0.0,0.0,0.0,0.0,0.0,0.0,-2.4878,-2.5447,-2.6294,-2.7015,-2.7471,-2.7666,-2.8088,0.0,0.0,0.0,0.0,0.0,0.0,0.0,0.0,0.0,0.0,0.0,0.0,0.0,0.0,-2.4186,-2.3281,-2.3828,-2.4391,-2.4154,0.0,0.0,0.0,0.0,0.0,0.0,0.0,0.0,0.0,0.0,0.0,0.0,0.0,0.0,-2.3842,-2.4544,-2.4619,0.0,0.0,0.0,0.0,0.0,0.0,0.0,0.0,-2.7569,-2.8192,-2.8193,-2.8472,-2.8342,-2.7868,-2.7921,-2.6135,0.0,0.0,0.0,0.0,0.0,0.0,0.0,0.0,-2.6732,-2.6608,-2.8426,-2.8703,-2.7384,-2.7584,-2.733,-2.6521,-2.6487,-2.616,-2.541,-2.4682,-2.3615,0.0,0.0,0.0,0.0,0.0,0.0,0.0,0.0,0.0,0.0,0.0,0.0,0.0,0.0,0.0,0.0,0.0,0.0,0.0,0.0,0.0,0.0,0.0,-2.4208,0.0,0.0,0.0,0.0,0.0,0.0,0.0,0.0,0.0,-2.3486,-2.5206,-2.663,-2.6954,-2.746,-2.7703,-2.7458,0.0,0.0,0.0,0.0,0.0,0.0,0.0,-2.7978,-2.8006,-2.8592,-2.8935,-2.8621,-2.7868,-2.7285,-2.7292,0.0,0.0,-2.614,-2.6528,-2.714,-2.7164,-2.6962,-2.6623,-2.6166,-2.6065,-2.6285,0.0,0.0,0.0,0.0,-2.2584,0.0,0.0,0.0,-2.6504,-2.6436,0.0,-2.653,0.0,0.0,0.0,0.0,-2.5717,-2.6792,0.0,0.0,-2.9998,-3.0646,-2.9391,-3.0026,-2.9703,-2.8369,-2.8525,-2.738,-2.5145,-2.5264,0.0,0.0,0.0,0.0,0.0,0.0,-2.5715,-2.5511,-2.6987,-2.733,-2.6555,-2.7263,-2.7284,-2.6521,-2.6487,-2.6474,-2.6449,-2.5435,-2.4825,-2.4738,-2.2259,0.0,0.0,0.0,0.0,0.0,0.0,0.0,0.0,0.0,0.0,0.0,0.0,0.0,0.0,0.0,0.0,0.0,0.0,0.0,0.0,-2.5201,0.0,0.0,0.0,0.0,0.0,0.0,0.0,0.0,0.0,-2.5435,-2.4859,-2.6432,-2.7615,-2.763,0.0,0.0,0.0,0.0,-2.8446,-2.6779,-2.6716,-2.6879,-2.6958,-2.7525,-2.8478,-2.9966,0.0,0.0,-3.0905,-2.9568,-2.8519,-2.8504,-2.9779,-3.0528,-2.9253,-2.8588,-2.8639,-2.9873,-2.9617,-2.9179,-2.9128,-2.9128,-2.9313,-2.4273,0.0,0.0,0.0,0.0,-2.2972,-2.4217,-2.6188,-2.6174,-2.6413,-2.6877,-2.7534,0.0,0.0,0.0,0.0,0.0,0.0,-2.7413,-2.7819,-2.8545,-2.8923,-2.9097,-2.9329,-2.92,-2.8817,-2.8862,-2.8512,-2.7827,-2.7281,-2.5902,-2.3858,0.0,0.0,0.0,0.0,-2.6179,-2.6251,-2.719,-2.7317,-2.6521,-2.6714,-2.6748,-2.6487,-2.6487,-2.6487,-2.6487,-2.6185,-2.5657,-2.4813,-2.4067,0.0,0.0,0.0,0.0,0.0,0.0,0.0,0.0,0.0,0.0,0.0,0.0,0.0,0.0,0.0,0.0,0.0,0.0,0.0,-2.5896,-2.6617,-2.6168,0.0,0.0,0.0,0.0,0.0,0.0,0.0,0.0,0.0,-2.7425,-2.7934,-2.8293,0.0,0.0,-2.786,-2.6956,-2.7593,-2.8132,-2.8036,-2.7871,0.0,-2.8904,-2.8947,-2.9058,-2.9518,-3.0356,-3.0979,-3.0941,-3.0737,-3.0624,-3.0594,-3.0993,-3.1486,-3.2148,-3.2062,-3.2001,-3.2362,-3.2273,-3.2138,-3.2138,-3.2138,-3.2188,-2.5992,-2.436,-2.3474,-2.354,-2.4232,-2.4245,-2.5379,-2.7182,-2.7196,-2.7234,-2.7388,-2.8549,-2.834,-2.7052,-2.7569,0.0,0.0,0.0,-2.7568,-2.7899,-2.8138,-2.8361,-2.8524,-2.883,-2.8812,-2.8524,-2.883,-2.8652,-2.8019,-2.7629,-2.6554,-2.4849,0.0,-2.4446,-2.4969,-2.556,-2.6034,-2.6349,-2.6912,-2.696,-2.6533,-2.6487,-2.6487,-2.6487,-2.6487,-2.6487,-2.6487,-2.6487,-2.6185,-2.5498,-2.5059,-2.4067,0.0,0.0,0.0,0.0,0.0,0.0,0.0,0.0,0.0,0.0,0.0,-2.0582,-2.1099,0.0,0.0,0.0,-2.5829,-2.6917,-2.7724,-2.7675,0.0,0.0,0.0,0.0,0.0,0.0,0.0,-2.5719,-2.7066,-2.8143,-2.8547,-2.8831,-2.9086,-2.9325,-2.8996,-2.8554,-2.7976,0.0,-2.8933,-2.9057,-2.8897,-2.9031,-2.9739,-2.986,-2.9935,-3.013,-3.0703,-3.1106,-3.1151,-3.1356,-3.1481,-3.1496,-3.1496,-3.1866,-3.2986,-3.317,-3.3453,-3.413,-3.4264,-3.4286,-3.4264,-3.4247,-3.4264,-2.7614,-2.6324,-2.4303,-2.446,-2.6011,-2.6038,-2.7067,-2.8784,-2.8766,-2.837,-2.7812,-2.9388,-2.934,-2.8111,-2.8039,0.0,-2.7852,-2.7769,-2.7642,-2.7571,-2.8454,-2.843,-2.7703,-2.853,-2.8511,-2.7748,-2.8544,-2.8119,-2.675,-2.7019,-2.6772,-2.6016,-2.5574,-2.5204,-2.4918,-2.5185,-2.562,-2.6202,-2.6434,-2.6575,-2.6625,-2.6625,-2.66,-2.6575,-2.6562,-2.6537,-2.6487,-2.6487,-2.6487,-2.6461,-2.5498,-2.4876,-2.4713,0.0,0.0,0.0,0.0,0.0,0.0,0.0,0.0,0.0,0.0,0.0,0.0,0.0,0.0,0.0,-2.77,0.0,-2.9609,-2.8513,0.0,0.0,0.0,-2.6033,-2.6701,-2.6811,-2.7091,-2.7675,0.0,0.0,-2.8742,-2.928,-2.9879,-3.0507,-3.0492,-3.0223,-2.9654,-3.0028,-3.0298,-2.9714,-2.9823,-2.9949,-3.0069,-3.0431,-3.0857,-3.1269,-3.1496,-3.1495,-3.148,-3.1481,-3.1496,-3.1496,-3.1496,-3.1739,-3.2465,-3.2637,-3.3172,-3.4978,-3.5317,-3.5351,-3.5238,-3.5199,-3.5182,-2.6793,-2.6508,-2.6341,-2.6317,-2.6391,-2.6391,-2.6655,-2.7082,-2.7108,-2.6984,-2.6881,-2.7854,-2.8274,-2.8142,-2.7713,-2.7129,-2.6573,-2.6938,-2.6751,-2.6205,-2.7216,-2.7566,-2.7443,-2.8049,-2.8219,-2.8005,-2.8219,-2.8112,-2.7744,-2.782,-2.7576,-2.6996,-2.6858,-2.6392,-2.5677,-2.612,-2.6565,-2.6984,-2.7087,-2.7293,-2.7695,-2.772,-2.7519,-2.7128,-2.7092,-2.6927,-2.6512,-2.6487,-2.6487,-2.6487,-2.6248,-2.5686,-2.4825,-2.3346,0.0,0.0,0.0,0.0,0.0,0.0,0.0,0.0,0.0,-2.2418,-2.3023,0.0,-2.6162,0.0,-2.8921,-3.0118,-3.0268,-2.9606,0.0,0.0,-2.763,-2.7365,-2.8053,-2.8577,-2.8963,-2.9112,-2.9669,-3.0058,-3.0058,-3.0178,-3.0537,-3.1137,-3.0417,-2.9744,-2.9636,-3.0118,-3.0447,-3.0357,-3.0702,-3.1089,-3.1074,-3.1209,-3.1345,-3.1481,-3.1496,-3.1496,-3.1496,-3.1496,-3.1496,-3.1496,-3.1496,-3.1781,-3.2437,-3.2586,-3.2922,-3.3836,-3.4062,-3.4103,-3.4078,-3.4103,-3.4103,-2.6851,-2.6864,-2.6939,-2.6763,-2.6524,-2.7014,-2.7228,-2.7216,-2.6964,-2.6864,-2.6873,-2.7481,-2.7813,-2.7945,-2.7651,-2.7045,-2.6311,-2.6588,-2.6465,-2.6059,-2.6879,-2.7329,-2.7341,-2.7846,-2.8109,-2.8109,-2.8109,-2.8109,-2.8109,-2.8109,-2.7946,-2.7657,-2.7896,-2.7618,-2.6892,-2.6725,-2.6741,-2.6952,-2.719,-2.7544,-2.8084,-2.8109,-2.7846,-2.7306,-2.7077,-2.6675,-2.6088,-2.5896,-2.5757,-2.5737,-2.5724,-2.546,-2.4813,-2.371,-2.2581,0.0,0.0,0.0,0.0,0.0,0.0,0.0,0.0,0.0,0.0,0.0,-2.7286,-2.828,-2.9661,-3.0402,-3.0118,-2.9801,-2.9549,-2.946,-2.9116,-2.9146,-2.9819,-3.0223,-3.0447,-3.0447,-3.0718,-3.0943,-3.0971,-3.0928,-3.1062,-3.1451,-3.0883,-3.0447,-3.0462,-3.0733,-3.0943,-3.0986,-3.1256,-3.1496,-3.1496,-3.1496,-3.1496,-3.1496,-3.1496,-3.1496,-3.1496,-3.1496,-3.1496,-3.1496,-3.1496,-3.1611,-3.2007,-3.212,-3.2244,-3.2516,-3.2664,-3.2891,-3.3469,-3.3608,-3.3608,-2.7394,-2.7392,-2.6977,-2.6801,-2.6876,-2.7883,-2.816,-2.7858,-2.7381,-2.7216,-2.7213,-2.7359,-2.7419,-2.7433,-2.7354,-2.6943,-2.6285,-2.6348,-2.6386,-2.6424,-2.7027,-2.7329,-2.7306,-2.7846,-2.8134,-2.821,-2.821,-2.8235,-2.8323,-2.8323,-2.8273,-2.8235,-2.865,-2.8612,-2.8097,-2.7155,-2.6713,-2.6713,-2.7329,-2.7846,-2.8298,-2.826,-2.7946,-2.7406,-2.6889,-2.6336,-2.5737,-2.5272,-2.5034,-2.5001,-2.4938,-2.4926,-2.4996,-2.3873,-2.3032,0.0,-2.1678,0.0,0.0,0.0,0.0,0.0,0.0,0.0,0.0,-2.7152,-2.8326,-2.9423,-3.0095,-3.0313,-2.9864,-2.9834,-3.0043,-3.0567,-3.0627,-3.0866,-3.1421,-3.1496,-3.1496,-3.1496,-3.1496,-3.1496,-3.1481,-3.1496,-3.1496,-3.1496,-3.1451,-3.1376,-3.1466,-3.1451,-3.1451,-3.1496,-3.1496,-3.1496,-3.1496,-3.1496,-3.1496,-3.1496,-3.1496,-3.1496,-3.1496,-3.1496,-3.1496,-3.1496,-3.1496,-3.1496,-3.1496,-3.1524,-3.1524,-3.1611,-3.1625,-3.1979,-3.2917,-3.3209,-3.3339,-2.7946,-2.7984,-2.8323,-2.8461,-2.8524,-2.9189,-2.8473,-2.6801,-2.6688,-2.665,-2.66,-2.6202,-2.6003,-2.5965,-2.5539,-2.5284,-2.5159,-2.5573,-2.5762,-2.5799,-2.6851,-2.7329,-2.7354,-2.7846,-2.8335,-2.8712,-2.8737,-2.9013,-2.9478,-2.9478,-2.9239,-2.8787,-2.885,-2.8624,-2.8122,0.0,0.0,0.0,-2.88,-2.9377,-2.9453,-2.9013,-2.8499,-2.7959,-2.7419,0.0,-2.6361,-2.6235,-2.6185,-2.6172,-2.5699,0.0,0.0,0.0,0.0,0.0,0.0,0.0,0.0,0.0,0.0,0.0,-2.5007,-2.5667,-2.621,-2.7825,-2.9207,-3.0032,-3.0363,-3.0687,-3.1092,-3.1137,-3.1182,-3.1286,-3.1316,-3.1376,-3.1496,-3.1496,-3.1496,-3.1496,-3.1496,-3.1496,-3.1496,-3.1496,-3.1496,-3.1496,-3.1496,-3.1496,-3.1496,-3.1496,-3.1496,-3.1496,-3.1496,-3.1496,-3.1496,-3.1496,-3.1496,-3.1496,-3.1496,-3.1496,-3.1496,-3.1496,-3.1496,-3.1496,-3.1496,-3.1496,-3.1496,-3.1496,-3.1496,-3.1496,-3.1496,-3.1582,-3.1838,-3.1923,-3.1894,-2.8223,-2.8511,-2.8487,-2.8487,0.0,-2.8837,-2.8323,-2.7293,-2.7557,-2.7532,-2.7256,-2.6954,-2.6829,-2.6816,-2.6565,-2.644,-2.6452,-2.6716,-2.6829,-2.6879,-2.7708,-2.8097,-2.8109,-2.8674,-2.9089,-2.934,-2.9352,-2.9515,-2.9779,-2.9779,-2.9641,-2.9327,-2.9352,-2.9214,-2.895,-2.8938,-2.8787,-2.8474,-2.9076,-2.9503,-2.9767,-2.9515,-2.9089,-2.8487,-2.7984,0.0,0.0,0.0,0.0,0.0,0.0,0.0,0.0,-2.5234,-2.4795,-2.4808,-2.4104,-2.3927,-2.4419,-2.4052,-2.4195,-2.5046,-2.5963,-2.6985,-2.8083,-2.9475,-3.0474,-3.0858,-3.0959,-3.1122,-3.1466,-3.1496,-3.1496,-3.1496,-3.1496,-3.1496,-3.1496,-3.1496,-3.1496,-3.1496,-3.1496,-3.1496,-3.1496,-3.1496,-3.1496,-3.1496,-3.1496,-3.1496,-3.1496,-3.1496,-3.1496,-3.1496,-3.1496,-3.1496,-3.1496,-3.1496,-3.1496,-3.1496,-3.1496,-3.1496,-3.1496,-3.1496,-3.1496,-3.1496,-3.1496,-3.1496,-3.1496,-3.1496,-3.1496,-3.1496,-3.1496,-3.1496,-3.1496,-3.1496,-3.1496,-2.8674,-2.9001,-2.8586,-2.8411,-2.8411,-2.8411,-2.8411,-2.8423,-2.8662,0.0,0.0,-2.8109,-2.8109,-2.8109,-2.8109,-2.8109,-2.8109,-2.8109,-2.8109,-2.8134,-2.8537,-2.875,-2.8775,-2.9277,-2.9603,-2.9779,-2.9779,-2.9892,-3.0068,-2.9993,-2.993,-2.993,-2.9854,-2.9779,-2.9779,-2.9779,-2.9566,-2.9101,-2.9038,-2.9302,-2.9767,-2.9691,-2.9415,-2.89,-2.8361,-2.7896,-2.7444,-2.7027,-2.6788,-2.6788,-2.67,-2.6461,-2.6063,-2.585,-2.5548,-2.5121,-2.4594,-2.4632,-2.5398,-2.4644,-2.4582,-2.5615,-2.6518,-2.7853,-2.9769,-3.0763,-3.1278,-3.1278,-3.1409,-3.1496,-3.1496,-3.1496,-3.1496,-3.1496,-3.1496,-3.1496,-3.1496,-3.1496,-3.1496,-3.1496,-3.1496,-3.1496,-3.1496,-3.1496,-3.1496,-3.1496,-3.1496,-3.1496,-3.1496,-3.1496,-3.1496,-3.1496,-3.1496,-3.1496,-3.1496,-3.1496,-3.1496,-3.1496,-3.1496,-3.1496,-3.1496,-3.1496,-3.1496,-3.1496,-3.1496,-3.1496,-3.1496,-3.1496,-3.1496,-3.1496,-3.1496,-3.1496,-3.1496,-3.1496,-3.1496,-2.9591,-2.9666,-2.9591,-2.9553,-2.9553,-2.9553,-2.9553,-2.9478,-2.8612,-2.8172,-2.8109,-2.8109,-2.8109,-2.8109,-2.8109,-2.8109,-2.8109,-2.8109,-2.8109,-2.8109,-2.8197,-2.8222,-2.8222,-2.8298,-2.885,-2.9741,-2.9792,-3.0269,-3.1022,-3.0708,-3.0495,-3.0444,-3.003,-2.9792,-2.9779,-2.9779,-2.9754,-2.9679,-2.9666,-2.9704,-2.9779,-2.9302,-2.8976,-2.8875,-2.8398,-2.8072,-2.7996,-2.7921,-2.7871,-2.7871,-2.7431,-2.7344,-2.7682,-2.6889,-2.6336,-2.6248,-2.5686,-2.5247,-2.4926,-2.475,-2.5065,-2.5978,-2.6972,-2.8015,-2.9066,-2.9968,-3.0464,-3.0494,-3.1087,-3.1496,-3.1496,-3.1496,-3.1496,-3.1496,-3.1496,-3.1496,-3.1496,-3.1496,-3.1496,-3.1496,-3.1496,-3.1496,-3.1496,-3.1496,-3.1496,-3.1496,-3.1496,-3.1496,-3.1496,-3.1496,-3.1496,-3.1496,-3.1496,-3.1496,-3.1496,-3.1496,-3.1496,-3.1496,-3.1496,-3.1496,-3.1496,-3.1496,-3.1496,-3.1496,-3.1496,-3.1496,-3.1496,-3.1496,-3.1496,-3.1496,-3.1496,-3.1496,-3.1496,-3.1496,-3.1496,-2.9779,-2.9779,-2.9779,-2.9779,-2.9779,-2.9779,-2.9779,-2.9741,-2.9252,-2.9013,-2.9026,-2.9026,-2.9026,-2.9026,-2.9026,-2.9026,-2.9026,-2.9026,-2.9026,-2.9013,-2.9026,-2.9026,-2.9013,-2.9026,-2.9453,-3.0206,-3.0244,-3.0633,-3.1311,-3.1135,-3.1035,-3.0997,-3.0495,-3.0093,-2.9804,-2.9779,-2.9779,-2.9779,-2.9779,-2.9779,-2.9779,-2.9541,-2.9402,-2.939,-2.9139,-2.9026,-2.9013,-2.9026,-2.9013,-2.9026,-2.8787,-2.8612,-2.8524,-2.7795,-2.7253,-2.6892,-2.5812,-2.5197,-2.5247,-2.4695,-2.4545,-2.4939,-2.5402,-2.5987,-2.669,-2.894,-3.014,-2.9883,-3.0822,-3.1496,-3.1496,-3.1496,-3.1496,-3.1496,-3.1496,-3.1496,-3.1496,-3.1496,-3.1496,-3.1496,-3.1496,-3.1496,-3.1496,-3.1496,-3.1496,-3.1496,-3.1496,-3.1496,-3.1496,-3.1496,-3.1496,-3.1496,-3.1496,-3.1496,-3.1496,-3.1496,-3.1496,-3.1496,-3.1496,-3.1496,-3.1496,-3.1496,-3.1496,-3.1496,-3.1496,-3.1496,-3.1496,-3.1496,-3.1496,-3.1496,-3.1496,-3.1496,-3.1496,-3.1496,-3.1496,-3.0143,-3.0156,-3.0156,-3.008,-2.9967,-2.9842,-2.9779,-2.9779,-2.9779,-2.9779,-2.9779,-2.9779,-2.9779,-2.9779,-2.9779,-2.9779,-2.9779,-2.9779,-2.9779,-2.9779,-2.9779,-2.9779,-2.9779,-2.9779,-3.008,-3.057,-3.062,-3.0884,-3.1336,-3.1386,-3.1386,-3.1323,-3.0871,-3.0394,-2.998,-2.9854,-2.9779,-2.9779,-2.9779,-2.9779,-2.9779,-2.9779,-2.9779,-2.9779,-2.9779,-2.9779,-2.9779,-2.9779,-2.9779,-2.9779,-2.9779,-2.9528,-2.8925,-2.8536,-2.7934,-2.7105,-2.59,-2.5247,-2.536,-2.4782,-2.4243,-2.4029,-2.423,-2.4381,-2.4653,-2.7437,-2.9243,-2.9049,-2.9928,-3.072,-3.0852,-3.1117,-3.1219,-3.1204,-3.1409,-3.1496,-3.1496,-3.1496,-3.1496,-3.1496,-3.1496,-3.1496,-3.1496,-3.1496,-3.1496,-3.1496,-3.1496,-3.1496,-3.1496,-3.1496,-3.1496,-3.1496,-3.1496,-3.1496,-3.1496,-3.1496,-3.1496,-3.1496,-3.1496,-3.1496,-3.1496,-3.1496,-3.1496,-3.1496,-3.1496,-3.1496,-3.1496,-3.1496,-3.1496,-3.1496,-3.1496,-3.1496,-3.1496,-3.1496,-3.1496,-3.1223,-3.1248,-3.1198,-3.0972,-3.0507,-3.003,-2.9829,-2.9829,-2.9792,-2.9779,-2.9817,-2.9792,-2.9804,-2.9779,-2.9779,-2.9779,-2.9779,-2.9779,-2.9779,-2.9779,-2.9779,-2.9779,-2.9779,-2.9779,-3.008,-3.057,-3.062,-3.0884,-3.1373,-3.1411,-3.1399,-3.1323,-3.0871,-3.0633,-3.0495,-3.0055,-2.9792,-2.9792,-2.9779,-2.9779,-2.9779,-2.9779,-2.9779,-2.9779,-2.9779,-2.9779,-2.9779,-2.9779,-2.9779,-2.9779,-2.9779,-2.9528,-2.8963,-2.8825,-2.8147,-2.6725,-2.6411,-2.5959,-2.5046,-2.5234,-2.4983,-2.4192,-2.487,-2.4795,-2.3615,-2.5271,-2.6703,-2.7207,-2.7992,-2.8851,-2.9202,-2.9936,-3.0448,-3.0627,-3.1132,-3.1496,-3.1585,-3.1496,-3.1496,-3.1496,-3.1615,-3.1511,-3.157,-3.154,-3.1496,-3.1496,-3.1496,-3.1496,-3.1496,-3.1496,-3.1496,-3.1496,-3.1496,-3.1496,-3.1496,-3.1496,-3.1496,-3.1496,-3.1496,-3.1496,-3.1496,-3.1496,-3.1496,-3.1496,-3.1496,-3.1496,-3.1496,-3.1496,-3.1496,-3.1496,-3.1496,-3.1496,-3.1496,-3.1496,-3.1496,-3.1386,-3.1386,-3.1386,-3.1273,-3.1047,-3.0821,-3.0746,-3.0746,-3.0733,-3.057,-3.0294,-3.0281,-3.0105,-2.9792,-2.9779,-2.9779,-2.9779,-2.9779,-2.9779,-2.9779,-2.9779,-2.9779,-2.9779,-2.9779,-3.0093,-3.057,-3.062,-3.0884,-3.1361,-3.1712,-3.1725,-3.1461,-3.1474,-3.1399,-3.106,-3.0545,-3.0281,-3.0269,-2.9955,-2.9779,-2.9779,-2.9779,-2.9779,-2.9779,-2.9779,-2.9779,-2.9779,-2.9779,-2.9779,-2.9779,-2.9779,-2.9528,-2.8925,-2.8587,-2.7996,-2.7027,-2.6336,-2.5624,-2.485,-2.5021,-2.4926,-2.4474,-2.487,-2.4775,-2.4199,-2.4893,-2.5557,-2.6181,-2.7391,-2.8307,-2.8553,-2.9139,-2.9862,-3.0639,-3.1152,-3.1646,-3.2587,-3.2647,-3.2691,-3.2677,-3.2318,-3.2079,-3.2019,-3.175,-3.1525,-3.1496,-3.1496,-3.1496,-3.1496,-3.1496,-3.1496,-3.1496,-3.1496,-3.1496,-3.1496,-3.1496,-3.1496,-3.1496,-3.1496,-3.1496,-3.1496,-3.1496,-3.1496,-3.1496,-3.1496,-3.1496,-3.1496,-3.1496,-3.1496,-3.1496,-3.1496,-3.1496,-3.1496,-3.1496,-3.1496,-3.1892,-3.1825,-3.17,-3.1625,-3.1599,-3.1449,-3.1386,-3.1386,-3.1386,-3.1173,-3.0846,-3.0821,-3.0608,-3.0218,-2.9942,-2.9779,-2.9779,-2.9779,-2.9779,-2.9779,-2.9779,-2.9779,-2.9779,-2.9792,-2.9993,-3.0331,-3.0382,-3.0658,-3.121,-3.1901,-3.2014,-3.1738,-3.2014,-3.2001,-3.1599,-3.1085,-3.0758,-3.0583,-3.0206,-2.9955,-2.9817,-2.9779,-2.9779,-2.9779,-2.9779,-2.9779,-2.9779,-2.9779,-2.9779,-2.9779,-2.9779,-2.9528,-2.8925,-2.8549,-2.8021,-2.7293,-2.6411,-2.5674,-2.5297,-2.5272,-2.5209,-2.5059,-2.5034,-2.4926,-2.4825,-2.48,-2.4951,-2.5408,-2.6809,-2.7732,-2.8012,-2.866,-2.96,-3.0586,-3.0853,-3.1605,-3.2842,-3.3115,-3.3133,-3.3378,-3.3036,-3.2781,-3.2706,-3.2258,-3.1824,-3.1809,-3.163,-3.1496,-3.1496,-3.1496,-3.1496,-3.1496,-3.1496,-3.1496,-3.1496,-3.1496,-3.1496,-3.1496,-3.1496,-3.1496,-3.1496,-3.1496,-3.1496,-3.1496,-3.1496,-3.1496,-3.1496,-3.1496,-3.1496,-3.1496,-3.1496,-3.1496,-3.1496,-3.1496,-3.1496,-3.3048,-3.2905,-3.239,-3.2177,-3.2139,-3.1662,-3.1424,-3.1512,-3.1449,-3.1399,-3.1373,-3.1348,-3.1336,-3.1198,-3.0294,-2.9804,-2.9804,-2.9792,-2.9779,-2.9779,-2.9779,-2.9779,-2.9779,-2.9779,-2.9817,-2.9967,-2.9917,-3.0168,-3.0721,-3.17,-3.2202,-3.2164,-3.2227,-3.2215,-3.2102,-3.1637,-3.1122,-3.0758,-3.0583,-3.0319,-2.988,-2.9804,-2.9779,-2.9779,-2.9779,-2.9779,-2.9779,-2.9779,-2.9779,-2.9779,-2.9779,-2.9528,-2.8963,-2.8825,-2.8323,-2.7369,-2.6763,-2.6424,-2.6361,-2.6323,-2.6135,-2.5674,-2.5573,-2.5372,-2.5034,-2.4983,-2.4988,-2.4888,-2.6139,-2.6998,-2.7449,-2.8499,-2.9393,-2.9755,-3.0263,-3.1099,-3.2198,-3.2486,-3.2645,-3.3281,-3.3406,-3.3318,-3.3364,-3.2871,-3.2542,-3.2333,-3.1929,-3.1585,-3.16,-3.1555,-3.1555,-3.1511,-3.1496,-3.1496,-3.1496,-3.1496,-3.1496,-3.1496,-3.1496,-3.1496,-3.1496,-3.1496,-3.1496,-3.1496,-3.1496,-3.1496,-3.1496,-3.1496,-3.1496,-3.1496,-3.1496,-3.1496,-3.1496,-3.1496,-3.1496,-3.3124,-3.3111,-3.2855,-3.2767,-3.2742,-3.2596,-3.2466,-3.2478,-3.2466,-3.2252,-3.1964,-3.1913,-3.1725,-3.1361,-3.0997,-3.0633,-3.0306,-2.9955,-2.9779,-2.9779,-2.9779,-2.9779,-2.9779,-2.9792,-2.9993,-3.0231,-2.9955,-3.008,-3.0683,-3.17,-3.2202,-3.229,-3.2591,-3.2767,-3.2667,-3.2202,-3.1825,-3.1587,-3.0957,-3.052,-3.0294,-2.998,-2.9779,-2.9779,-2.9779,-2.9779,-2.9779,-2.9779,-2.9779,-2.9779,-2.9779,-2.9528,-2.8913,-2.8247,-2.772,-2.7293,-2.6813,-2.6487,-2.6487,-2.6487,-2.6411,-2.6235,-2.6185,-2.6097,-2.5912,-2.5862,-2.5896,-2.6084,-2.6866,-2.7482,-2.744,-2.8081,-2.9233,-3.0583,-3.0678,-3.1454,-3.3297,-3.3231,-3.2798,-3.3506,-3.3536,-3.3319,-3.3419,-3.3275,-3.314,-3.3125,-3.2916,-3.2572,-3.2228,-3.2123,-3.2019,-3.163,-3.1496,-3.1496,-3.1496,-3.1496,-3.1496,-3.1496,-3.1496,-3.1496,-3.1496,-3.1496,-3.1496,-3.1496,-3.1496,-3.1496,-3.1496,-3.1496,-3.1496,-3.1496,-3.1496,-3.1496,-3.1496,-3.1496,-3.1496,-3.3124,-3.3124,-3.3124,-3.3124,-3.3124,-3.3124,-3.3124,-3.3124,-3.3124,-3.2855,-3.2528,-3.2491,-3.2277,-3.1938,-3.1738,-3.1486,-3.106,-3.0407,-3.0068,-3.0043,-2.9867,-2.9779,-2.9779,-2.9779,-2.9993,-3.0319,-3.0357,-3.052,-3.0947,-3.1964,-3.2378,-3.2265,-3.2792,-3.3124,-3.3048,-3.2679,-3.2428,-3.2114,-3.1486,-3.0957,-3.0645,-3.0256,-2.9955,-2.9817,-2.9779,-2.9779,-2.9779,-2.9779,-2.9779,-2.9779,-2.9779,-2.9528,-2.8888,-2.8222,-2.7645,-2.7293,-2.6977,-2.6663,-2.6524,-2.6487,-2.6487,-2.6487,-2.6487,-2.6487,-2.6487,-2.6487,-2.6575,-2.6889,-2.7555,-2.7959,-2.8009,-2.8335,-2.9279,-3.0587,-3.0471,-3.1244,-3.3628,-3.2876,-3.2686,-3.3198,-3.3149,-3.314,-3.351,-3.3463,-3.3502,-3.3737,-3.3649,-3.329,-3.2946,-3.2811,-3.2691,-3.2213,-3.2004,-3.1914,-3.1809,-3.1735,-3.1555,-3.1511,-3.1496,-3.1496,-3.1496,-3.1496,-3.1496,-3.1496,-3.1496,-3.1496,-3.1496,-3.1496,-3.1496,-3.1496,-3.1496,-3.1496,-3.1496,-3.1496,-3.1496,-3.3124,-3.3124,-3.3124,-3.3124,-3.3124,-3.3124,-3.3124,-3.3124,-3.3124,-3.3086,-3.3011,-3.3074,-3.2998,-3.288,-3.2416,-3.2148,-3.181,-3.0932,-3.0501,-3.0468,-2.999,-2.97,-2.9624,-2.9456,-2.9466,-2.964,-3.076,-3.121,-3.1121,-3.2162,-3.2559,-3.2331,-3.2775,-3.3025,-3.3038,-3.2907,-3.2712,-3.2226,-3.2001,-3.165,-3.0783,-3.0645,-3.0382,-2.9917,-2.9854,-2.9842,-2.9792,-2.9779,-2.9779,-2.9779,-2.9779,-2.9528,-2.9051,-2.8837,-2.8411,-2.7582,-2.7306,-2.704,-2.6612,-2.6512,-2.6487,-2.6487,-2.6487,-2.6487,-2.6487,-2.6499,-2.6675,-2.7067,-2.7695,-2.8235,-2.8687,-2.9239,-2.9606,-2.9177,-2.9694,-3.0417,-3.1278,-3.1352,-3.1573,-3.2379,-3.2524,-3.2968,-3.3548,-3.3432,-3.338,-3.3972,-3.3897,-3.3555,-3.3514,-3.3499,-3.3499,-3.3275,-3.2856,-3.2467,-3.2228,-3.1974,-3.172,-3.1525,-3.1511,-3.1496,-3.1496,-3.1496,-3.1496,-3.1496,-3.1496,-3.1496,-3.1496,-3.1496,-3.1496,-3.1496,-3.1496,-3.1496,-3.1496,-3.1496,-3.1496,-3.3124,-3.3124,-3.3124,-3.3124,-3.3124,-3.3124,-3.3124,-3.3124,-3.3124,-3.3124,-3.3124,-3.3124,-3.3124,-3.3056,-3.2867,-3.2296,-3.1494,-3.0785,-3.0506,-3.0415,-2.9625,-2.8975,-2.8562,-2.7891,-2.765,-2.8131,-2.9369,-2.9822,-2.9858,-3.1033,-3.1668,-3.1726,-3.2556,-3.2612,-3.1865,-3.2599,-3.263,-3.1685,-3.1955,-3.2014,-3.1687,-3.1348,-3.0896,-3.0419,-3.0357,-3.0206,-2.9829,-2.9779,-2.9779,-2.9779,-2.9779,-2.9704,-2.949,-2.9139,-2.8737,-2.8398,-2.767,-2.7266,-2.7065,-2.6713,-2.6537,-2.6499,-2.6499,-2.6487,-2.6487,-2.6512,-2.66,-2.6876,-2.7532,-2.8084,-2.8059,-2.9038,-2.9872,-3.0412,-3.0101,-3.0394,-3.1536,-3.1499,-3.1389,-3.1536,-3.1646,-3.2069,-3.277,-3.2779,-3.3103,-3.3931,-3.3926,-3.3885,-3.4074,-3.4126,-3.3918,-3.3574,-3.3245,-3.296,-3.257,-3.2213,-3.1916,-3.1603,-3.1469,-3.1511,-3.1496,-3.1496,-3.1496,-3.1496,-3.1496,-3.1496,-3.1496,-3.1496,-3.1496,-3.1496,-3.1496,-3.1496,-3.1496,-3.1496,-3.1496,-3.3124,-3.3124,-3.3124,-3.3124,-3.3124,-3.3124,-3.3124,-3.3124,-3.3124,-3.3124,-3.3025,-3.2556,-3.2426,-3.2283,-3.1965,-3.1323,-3.0551,-3.0136,-3.0032,-2.9881,-2.8799,-2.8103,-2.7904,-2.7292,-2.7182,-2.7707,-2.8634,-2.9026,-2.897,-2.9963,-3.0541,-3.0721,-3.1323,-3.1323,-3.0631,-3.1279,-3.1424,-3.1264,-3.1624,-3.1967,-3.2093,-3.1876,-3.1436,-3.0959,-3.0721,-3.0444,-3.0105,-2.9917,-2.9779,-2.9779,-2.9779,-2.9779,-2.9754,-2.9453,-2.9126,-2.8787,-2.8323,-2.7821,-2.7595,-2.7306,-2.6989,-2.6864,-2.6801,-2.6801,-2.6801,-2.6801,-2.6851,-2.7203,-2.7908,-2.826,-2.8197,-2.8976,-3.0037,-3.0558,-3.0139,-3.0368,-3.1267,-3.1044,-3.0696,-3.0696,-3.0658,-3.1156,-3.1779,-3.2105,-3.2464,-3.3241,-3.3774,-3.4023,-3.4342,-3.4639,-3.4422,-3.4218,-3.4023,-3.3584,-3.2873,-3.2477,-3.2154,-3.1768,-3.1427,-3.1454,-3.1496,-3.1496,-3.1496,-3.1496,-3.1496,-3.1496,-3.1496,-3.1496,-3.1496,-3.1496,-3.1496,-3.1496,-3.1496,-3.1496,-3.1496,-3.3124,-3.3124,-3.3124,-3.3124,-3.3081,-3.2927,-3.284,-3.2939,-3.2754,-3.2667,-3.2469,-3.1545,-3.1169,-3.0902,-3.0296,-2.9794,-2.9405,-2.9336,-2.9152,-2.8731,-2.7734,-2.7129,-2.7228,-2.7195,-2.739,-2.793,-2.8195,-2.855,-2.8664,-2.9109,-2.9315,-2.9315,-2.9579,-2.9407,-2.9407,-2.9361,-3.0045,-3.0586,-3.092,-3.13,-3.1838,-3.1873,-3.1726,-3.1203,-3.0792,-3.0573,-3.0507,-3.0068,-2.9779,-2.9779,-2.9779,-2.9779,-2.9779,-2.9779,-2.949,-2.9063,-2.8925,-2.8586,-2.826,-2.7971,-2.7783,-2.7404,-2.7291,-2.7329,-2.7241,-2.7228,-2.7366,-2.7745,-2.8448,-2.8825,-2.8875,-2.9402,-2.978,-2.983,-2.9818,-2.9934,-2.9818,-2.9895,-2.996,-2.9921,-2.9856,-3.0113,-3.1044,-3.1119,-3.1573,-3.2393,-3.3241,-3.3716,-3.4225,-3.4662,-3.5252,-3.5049,-3.4505,-3.3718,-3.2875,-3.2794,-3.2301,-3.1096,-3.0929,-3.1145,-3.138,-3.1467,-3.1496,-3.1496,-3.1496,-3.1496,-3.1496,-3.1496,-3.1496,-3.1496,-3.1496,-3.1496,-3.1496,-3.1496,-3.1496,-3.3124,-3.3124,-3.3124,-3.3124,-3.2982,-3.214,-3.1689,-3.1589,-3.0777,-3.0553,-3.0328,-3.0045,-3.0034,-3.0225,-2.9958,-2.9558,-2.8935,-2.8631,-2.8157,-2.7487,-2.657,-2.5943,-2.5918,-2.6141,-2.6219,-2.6221,-2.6539,-2.6547,-2.6744,-2.7673,-2.8038,-2.8132,-2.8808,-2.8855,-2.8319,-2.8855,-2.8993,-2.8762,-2.9498,-2.9954,-3.0131,-3.0219,-3.0352,-3.0627,-3.0519,-3.0489,-3.0551,-3.008,-2.9792,-2.9779,-2.9779,-2.9779,-2.9779,-2.9779,-2.9704,-2.9515,-2.9113,-2.8863,-2.865,-2.836,-2.8072,-2.7883,-2.7595,-2.7329,-2.7329,-2.7293,-2.7404,-2.767,-2.8323,-2.89,-2.8988,-2.9453,-2.9741,-2.9779,-2.9779,-2.9779,-2.9779,-2.9779,-2.9779,-2.9779,-2.9779,-2.996,-3.0139,-3.0305,-3.0595,-3.1476,-3.2357,-3.3122,-3.3636,-3.4442,-3.4953,-3.4791,-3.4317,-3.3547,-3.2978,-3.2937,-3.2231,-3.0582,-3.0288,-3.0637,-3.1027,-3.1467,-3.1467,-3.1496,-3.1496,-3.1496,-3.1496,-3.1496,-3.1496,-3.1496,-3.1496,-3.1496,-3.1496,-3.1496,-3.1496,-3.3124,-3.3124,-3.3124,-3.3124,-3.2939,-3.1721,-3.1178,-3.0956,-2.9943,-2.9396,-2.9315,-2.8808,-2.8776,-2.8943,-2.8625,-2.8241,-2.78,-2.773,-2.7563,-2.7393,-2.7055,-2.6486,-2.5947,-2.5918,-2.5869,-2.5654,-2.5635,-2.5713,-2.5878,-2.6476,-2.6754,-2.6897,-2.7484,-2.7437,-2.6897,-2.74,-2.7851,-2.772,-2.8366,-2.8855,-2.935,-2.9396,-2.9557,-2.9987,-3.0208,-3.0453,-3.0521,-3.0306,-3.0043,-2.9854,-2.9779,-2.9779,-2.9779,-2.9779,-2.9779,-2.9767,-2.9453,-2.9302,-2.9252,-2.8976,-2.8699,-2.8473,-2.8122,-2.8009,-2.8009,-2.7971,-2.7971,-2.8134,-2.8787,-2.9051,-2.9038,-2.9453,-2.9741,-2.9779,-2.9779,-2.9779,-2.9779,-2.9779,-2.9779,-2.9779,-2.9779,-2.9779,-2.9779,-2.9779,-3.0062,-3.0595,-3.1439,-3.2069,-3.2664,-3.3685,-3.424,-3.3925,-3.3705,-3.2967,-3.2354,-3.2207,-3.1692,-3.016,-2.9836,-3.015,-3.0553,-3.1146,-3.1467,-3.1496,-3.1496,-3.1496,-3.1496,-3.1496,-3.1496,-3.1496,-3.1496,-3.1496,-3.1496,-3.1496,-3.1496,-3.2884,-3.2896,-3.2896,-3.2884,-3.2655,-3.1533,-3.0855,-3.0721,-2.935,-2.8852,-2.8686,-2.7899,-2.7681,-2.7544,-2.741,-2.6673,-2.6712,-2.7058,-2.7253,-2.7461,-2.7666,-2.751,-2.6652,-2.6562,-2.6455,-2.626,-2.5947,-2.5762,-2.5762,-2.5781,-2.5781,-2.5917,-2.5917,-2.582,-2.5917,-2.5917,-2.638,-2.7078,-2.7258,-2.7757,-2.8402,-2.8577,-2.8729,-2.9192,-3.0071,-3.0404,-3.0544,-3.0498,-3.0369,-2.9905,-2.9842,-2.9792,-2.9779,-2.9779,-2.9779,-2.9779,-2.9729,-2.9716,-2.9767,-2.9654,-2.9528,-2.9089,-2.8888,-2.8888,-2.875,-2.8737,-2.8737,-2.8712,-2.944,-2.9465,-2.9277,-2.9541,-2.9741,-2.9779,-2.9779,-2.9779,-2.9779,-2.9779,-2.9779,-2.9779,-2.9779,-2.9779,-2.9779,-2.9779,-2.9818,-3.0139,-3.0884,-3.1499,-3.2019,-3.2749,-3.2925,-3.2642,-3.2464,-3.2285,-3.178,-3.1384,-3.0673,-2.9729,-2.9605,-2.975,-3.0023,-3.0547,-3.1205,-3.1496,-3.1496,-3.1496,-3.1496,-3.1496,-3.1496,-3.1496,-3.1496,-3.1496,-3.1496,-3.1496,-3.1496,-3.1633,-3.1601,-3.1633,-3.1589,-3.14,-3.0316,-2.9772,-2.9624,-2.7484,-2.6889,-2.6978,-2.6764,-2.7073,-2.7619,-2.7432,-2.7444,-2.7236,-2.709,-2.6924,-2.6787,-2.7851,-2.7939,-2.7493,-2.7314,-2.7002,-2.6572,-2.6318,-2.6074,-2.5791,-2.5732,-2.5684,-2.5693,-2.5684,-2.5684,-2.5684,-2.5684,-2.5781,-2.61,-2.6149,-2.6332,-2.661,-2.6791,-2.7163,-2.8089,-2.9542,-3.0304,-3.0459,-3.0548,-3.053,-3.0369,-3.0055,-2.9854,-2.9792,-2.9779,-2.9779,-2.9779,-2.9779,-2.9779,-2.9779,-2.9779,-2.9754,-2.9553,-2.9164,-2.8888,-2.8888,-2.8963,-2.8913,-2.8988,-2.9428,-2.9679,-2.9591,-2.9691,-2.9779,-2.9779,-2.9779,-2.9779,-2.9779,-2.9779,-2.9779,-2.9779,-2.9779,-2.9779,-2.9779,-2.9779,-2.9818,-2.9934,-3.0394,-3.1031,-3.1462,-3.1852,-3.1742,-3.1536,-3.1646,-3.1536,-3.0976,-3.0592,-3.01,-2.9572,-2.9462,-2.9433,-2.967,-3.0267,-3.0992,-3.1353,-3.1496,-3.1467,-3.1409,-3.1496,-3.1496,-3.1496,-3.1496,-3.1496,-3.1496,-3.1496,-3.1496,-3.1178,-3.1134,-3.0586,-3.0361,-3.0124,-2.9085,-2.8552,-2.8179,-2.6562,-2.5977,-2.6318,-2.6387,-2.6758,-2.7363,-2.7601,-2.7611,-2.7344,-2.7129,-2.6787,-2.6719,-2.7461,-2.7627,-2.7363,-2.7627,-2.7598,-2.7031,-2.6768,-2.6445,-2.6143,-2.5966,-2.5898,-2.5703,-2.5684,-2.5684,-2.5684,-2.5684,-2.5684,-2.5732,-2.5684,-2.5684,-2.5684,-2.5732,-2.6294,-2.7568,-2.9093,-3.0052,-3.0367,-3.1065,-3.1138,-3.0934,-3.0482,-3.0043,-2.9829,-2.9779,-2.9779,-2.9779,-2.9779,-2.9779,-2.9779,-2.9779,-2.9779,-2.9779,-2.949,-2.9402,-2.9327,-2.9327,-2.934,-2.939,-2.9591,-2.9779,-2.9779,-2.9779,-2.9779,-2.9779,-2.9779,-2.9779,-2.9779,-2.9779,-2.9779,-2.9779,-2.9779,-2.9779,-2.9779,-2.9779,-2.9779,-2.9856,-2.9856,-3.0444,-3.0406,-3.0733,-3.0733,-3.0709,-3.0908,-3.0782,-3.0203,-2.9847,-2.959,-2.934,-2.9261,-2.9268,-2.9429,-3.0141,-3.0924,-3.1019,-3.0998,-3.1278,-3.1278,-3.1365,-3.138,-3.1438,-3.1438,-3.1467,-3.1496,-3.1467,-3.1467,-3.0676,-3.0574,-2.9533,-2.9143,-2.8947,-2.8085,-2.7683,-2.7447,-2.6245,-2.5986,-2.6357,-2.6445,-2.6807,-2.7158,-2.7562,-2.7383,-2.7021,-2.6885,-2.6621,-2.6396,-2.7275,-2.7275,-2.706,-2.7607,-2.8066,-2.7734,-2.7324,-2.6894,-2.6572,-2.6396,-2.6172,-2.584,-2.5693,-2.5693,-2.5684,-2.5684,-2.5684,-2.5684,-2.5684,-2.5684,-2.5684,-2.5732,-2.6294,-2.7105,-2.8369,-2.9228,-2.9873,-3.0802,-3.1593,-3.1265,-3.0888,-3.0482,-3.0055,-2.9804,-2.9779,-2.9779,-2.9779,-2.9779,-2.9779,-2.9779,-2.9779,-2.9779,-2.9767,-2.9767,-2.9741,-2.9716,-2.9704,-2.9716,-2.9779,-2.9779,-2.9779,-2.9779,-2.9779,-2.9779,-2.9779,-2.9779,-2.9779,-2.9779,-2.9779,-2.9779,-2.9779,-2.9779,-2.9779,-2.9779,-2.9779,-2.9779,-2.9779,-2.9779,-2.9779,-2.9818,-3.0037,-3.0101,-3.0355,-3.0457,-2.9947,-2.9768,-2.9479,-2.9339,-2.9261,-2.9174,-2.919,-2.9348,-2.9904,-3.0301,-3.0436,-3.0667,-3.0731,-3.0554,-3.0688,-3.1131,-3.1219,-3.1058,-3.1146,-3.1394,-3.1467,-2.8179,-2.8179,-2.8002,-2.7908,-2.7861,-2.7683,-2.7494,-2.7363,-2.6197,-2.5986,-2.6396,-2.6748,-2.708,-2.7451,-2.765,-2.7288,-2.668,-2.6504,-2.6279,-2.6162,-2.7002,-2.7256,-2.7002,-2.7764,-2.8164,-2.8105,-2.7764,-2.7344,-2.6924,-2.6572,-2.6396,-2.6221,-2.5947,-2.5732,-2.5654,-2.5684,-2.5684,-2.5684,-2.5684,-2.5684,-2.5684,-2.5732,-2.5781,-2.6332,-2.7437,-2.8068,-2.853,-2.9741,-3.0661,-3.0615,-3.103,-3.0913,-3.0583,-3.0143,-2.9905,-2.9779,-2.9779,-2.9779,-2.9779,-2.9779,-2.9779,-2.9779,-2.9779,-2.9779,-2.9779,-2.9779,-2.9779,-2.9779,-2.9779,-2.9779,-2.9779,-2.9779,-2.9779,-2.9779,-2.9779,-2.9779,-2.9779,-2.9779,-2.9779,-2.9779,-2.9779,-2.9779,-2.9779,-2.9779,-2.9779,-2.9779,-2.9779,-2.9779,-2.9779,-2.9779,-2.9856,-2.9856,-2.9856,-2.9882,-2.9805,-2.9805,-2.9654,-2.9554,-2.9403,-2.9162,-2.9007,-2.8566,-2.875,-2.9477,-2.9822,-2.9991,-2.9936,-2.9896,-2.9876,-3.0252,-3.0352,-3.0553,-3.0807,-3.1087,-3.1467,-2.7589,-2.7552,-2.6897,-2.662,-2.662,-2.662,-2.661,-2.6524,-2.5975,-2.5977,-2.6338,-2.6621,-2.6934,-2.7236,-2.7324,-2.6953,-2.6484,-2.6123,-2.5947,-2.5957,-2.6768,-2.6953,-2.666,-2.7646,-2.7861,-2.7832,-2.7793,-2.7744,-2.7373,-2.7178,-2.6709,-2.6143,-2.6016,-2.5869,-2.5557,-2.5577,-2.5654,-2.5684,-2.5684,-2.5684,-2.5684,-2.5684,-2.5684,-2.6004,-2.6849,-2.7494,-2.7866,-2.9,-3.018,-3.0703,-3.0882,-3.1065,-3.1091,-3.0829,-3.0317,-2.9864,-2.9778,-2.9792,-2.9792,-2.9779,-2.9779,-2.9779,-2.9779,-2.9779,-2.9779,-2.9779,-2.9779,-2.9779,-2.9779,-2.9779,-2.9779,-2.9779,-2.9779,-2.9779,-2.9779,-2.9779,-2.9779,-2.9779,-2.9779,-2.9779,-2.9779,-2.9779,-2.9779,-2.9779,-2.9779,-2.9779,-2.9779,-2.9779,-2.9779,-2.9779,-2.9779,-2.9779,-2.9779,-2.9779,-2.9779,-2.9779,-2.9779,-2.9691,-2.9603,-2.9365,-2.9239,-2.8963,-2.8847,-2.9158,-2.9346,-2.9605,-2.9978,-3.0224,-2.9817,-2.9509,-3.0192,-3.0697,-3.0654,-3.0807,-3.1397,-2.722,-2.7125,-2.61,-2.5684,-2.5684,-2.5684,-2.5732,-2.5684,-2.5732,-2.5918,-2.624,-2.6377,-2.6582,-2.6816,-2.6836,-2.665,-2.625,-2.5879,-2.5723,-2.5849,-2.6484,-2.6484,-2.6504,-2.7051,-2.7685,-2.7334,-2.7568,-2.7959,-2.7812,-2.7669,-2.7031,-2.6562,-2.6465,-2.6094,-2.5625,-2.5635,-2.5693,-2.5684,-2.5684,-2.5684,-2.5684,-2.5684,-2.5684,-2.5732,-2.6716,-2.7125,-2.7163,-2.8276,-2.9305,-2.9941,-3.0246,-3.0533,-3.1217,-3.1043,-3.038,-2.9635,-2.9704,-2.9878,-2.9792,-2.9779,-2.9779,-2.9779,-2.9779,-2.9779,-2.9779,-2.9779,-2.9779,-2.9779,-2.9779,-2.9779,-2.9779,-2.9779,-2.9779,-2.9779,-2.9779,-2.9779,-2.9779,-2.9779,-2.9779,-2.9779,-2.9779,-2.9779,-2.9779,-2.9779,-2.9779,-2.9779,-2.9779,-2.9779,-2.9779,-2.9779,-2.9779,-2.9779,-2.9779,-2.9779,-2.9779,-2.9779,-2.9779,-2.9754,-2.9729,-2.9603,-2.9641,-2.9616,-2.9517,-2.9312,-2.942,-2.9738,-3.0156,-3.0132,-2.9379,-2.9282,-3.0322,-3.0832,-3.0725,-3.1385,-3.2229,-2.5917,-2.5927,-2.5781,-2.5684,-2.5684,-2.5684,-2.5684,-2.5684,-2.5684,-2.5703,-2.5889,-2.6191,-2.6387,-2.6455,-2.6465,-2.6211,-2.5918,-2.5742,-2.5684,-2.583,-2.626,-2.6435,-2.6348,-2.6826,-2.7226,-2.7041,-2.7168,-2.7607,-2.7851,-2.7806,-2.764,-2.7207,-2.6592,-2.6269,-2.5996,-2.5762,-2.5684,-2.5684,-2.5684,-2.5684,-2.5684,-2.5684,-2.5684,-2.5781,-2.5927,-2.611,-2.6294,-2.721,-2.7992,-2.8272,-2.9133,-2.9308,-2.9103,-2.899,-2.8606,-2.8676,-2.9289,-3.0306,-2.9875,-2.9866,-2.9892,-2.9892,-2.9829,-2.9792,-2.9779,-2.9779,-2.9779,-2.9779,-2.9779,-2.9779,-2.9779,-2.9779,-2.9779,-2.9779,-2.9779,-2.9779,-2.9779,-2.9779,-2.9779,-2.9779,-2.9779,-2.9779,-2.9779,-2.9779,-2.9779,-2.9779,-2.9779,-2.9779,-2.9779,-2.9779,-2.9779,-2.9779,-2.9779,-2.9779,-2.9779,-2.9779,-2.9779,-2.9779,-2.9779,-2.9779,-2.9779,-2.9779,-2.9779,-2.9643,-2.9694,-2.9503,-2.9488,-2.9212,-2.8594,-2.8989,-2.9969,-3.0499,-3.0774,-3.169,-3.2535,-2.5684,-2.5684,-2.5684,-2.5684,-2.5684,-2.5684,-2.5684,-2.5684,-2.5684,-2.5684,-2.5713,-2.5918,-2.6016,-2.6045,-2.6025,-2.5869,-2.5703,-2.5684,-2.5684,-2.5762,-2.6123,-2.626,-2.6161,-2.667,-2.7002,-2.7012,-2.706,-2.7353,-2.7656,-2.7559,-2.7305,-2.7236,-2.6728,-2.6211,-2.6172,-2.581,-2.5703,-2.5684,-2.5684,-2.5684,-2.5684,-2.5684,-2.5684,-2.5684,-2.5684,-2.5684,-2.5868,-2.611,-2.6945,-2.741,-2.8226,-2.865,-2.8922,-2.906,-2.8813,-2.8399,-2.8916,-2.9474,-2.9706,-2.9995,-3.0044,-3.0104,-2.9966,-2.9792,-2.9779,-2.9829,-2.9829,-2.9779,-2.9779,-2.9817,-2.9829,-2.9779,-2.9779,-2.9804,-2.9955,-2.9917,-2.9905,-2.9792,-2.9779,-2.9779,-2.9792,-2.9829,-2.9829,-2.9779,-2.9779,-2.9779,-2.9779,-2.9779,-2.9779,-2.9779,-2.9779,-2.9779,-2.9779,-2.9779,-2.9779,-2.9779,-2.9779,-2.9779,-2.9779,-2.9779,-2.9779,-2.9779,-2.9779,-2.9779,-2.9756,-2.9467,-2.9013,-2.9038,-2.9088,-2.9342,-2.9608,-3.0122,-3.0608,-3.0867,-3.1689,-2.5684,-2.5684,-2.5684,-2.5684,-2.5684,-2.5684,-2.5684,-2.5684,-2.5684,-2.5684,-2.5684,-2.5703,-2.5693,-2.5684,-2.5713,-2.5713,-2.5684,-2.5684,-2.5684,-2.5859,-2.6016,-2.6084,-2.6143,-2.6543,-2.6768,-2.6992,-2.665,-2.7051,-2.7344,-2.7217,-2.6963,-2.7139,-2.7021,-2.6562,-2.6122,-2.5947,-2.5908,-2.5684,-2.5684,-2.5684,-2.5684,-2.5684,-2.5684,-2.5684,-2.5684,-2.5684,-2.5684,-2.5732,-2.6342,-2.6802,-2.7078,-2.7463,-2.7974,-2.7989,-2.7882,-2.7685,-2.8069,-2.8578,-2.8907,-2.9294,-2.9791,-2.9829,-3.0016,-2.9711,-2.9782,-2.9893,-3.0193,-3.0319,-3.0306,-3.0269,-3.0193,-3.0244,-3.0331,-3.0357,-3.0319,-3.0231,-3.0193,-3.0256,-3.0206,-3.0143,-3.0118,-2.993,-2.9905,-2.9817,-2.9779,-2.9779,-2.9779,-2.9779,-2.9779,-2.9779,-2.9779,-2.9779,-2.9779,-2.9779,-2.9779,-2.9779,-2.9779,-2.9779,-2.9779,-2.9779,-2.9779,-2.9779,-2.9779,-2.9779,-2.9779,-2.9666,-2.939,-2.9553,-2.9717,-2.977,-2.9886,-3.0131,-3.0437,-3.0626,-3.111,-2.5684,-2.5684,-2.5684,-2.5684,-2.5684,-2.5684,-2.5684,-2.5684,-2.5684,-2.5684,-2.5684,-2.5684,-2.5684,-2.5684,-2.5684,-2.5684,-2.5684,-2.5684,-2.5684,-2.5693,-2.5791,-2.5986,-2.6074,-2.6133,-2.622,-2.6728,-2.6425,-2.6748,-2.7246,-2.7041,-2.7161,-2.7523,-2.7305,-2.7197,-2.6816,-2.6318,-2.5996,-2.5752,-2.5684,-2.5684,-2.5684,-2.5684,-2.5684,-2.5684,-2.5684,-2.5684,-2.5684,-2.5684,-2.5781,-2.6052,-2.61,-2.61,-2.6562,-2.6562,-2.6519,-2.6611,-2.7092,-2.7535,-2.7799,-2.8177,-2.8059,-2.8271,-2.8788,-2.9457,-2.9658,-3.0647,-3.1101,-3.1057,-3.0959,-3.106,-3.1135,-3.1248,-3.1022,-3.0959,-3.0859,-3.0871,-3.0884,-3.0984,-3.0896,-3.0658,-3.0495,-3.0394,-3.0306,-3.0294,-2.9905,-2.9867,-2.9792,-2.9779,-2.9779,-2.9779,-2.9779,-2.9779,-2.9779,-2.9779,-2.9779,-2.9779,-2.9779,-2.9779,-2.9779,-2.9779,-2.9779,-2.9779,-2.9779,-2.9779,-2.9779,-2.9779,-2.9779,-2.9754,-2.9819,-3.0024,-3.0177,-3.0195,-3.0585,-3.1011,-3.1504,-2.5684,-2.5684,-2.5684,-2.5684,-2.5684,-2.5684,-2.5684,-2.5684,-2.5684,-2.5684,-2.5684,-2.5684,-2.5684,-2.5684,-2.5684,-2.5684,-2.5684,-2.5684,-2.5684,-2.5684,-2.5732,-2.5801,-2.5889,-2.5967,-2.6045,-2.6475,-2.6299,-2.6426,-2.71,-2.7041,-2.7376,-2.7601,-2.748,-2.7207,-2.6865,-2.6396,-2.5898,-2.5771,-2.5684,-2.5684,-2.5684,-2.5684,-2.5684,-2.5684,-2.5684,-2.5684,-2.5684,-2.5684,-2.5684,-2.5684,-2.5684,-2.5684,-2.5684,-2.5684,-2.5684,-2.5684,-2.6342,-2.6476,-2.6836,-2.7419,-2.8099,-2.7809,-2.8198,-2.8783,-2.9421,-3.0133,-3.0745,-3.1021,-3.1461,-3.1537,-3.1411,-3.1373,-3.1311,-3.1373,-3.1436,-3.1499,-3.1549,-3.1625,-3.1474,-3.1173,-3.1085,-3.1022,-3.0934,-3.0859,-3.0369,-2.9942,-2.9854,-2.9779,-2.9779,-2.9779,-2.9779,-2.9779,-2.9779,-2.9779,-2.9779,-2.9779,-2.9779,-2.9779,-2.9779,-2.9779,-2.9779,-2.9779,-2.9779,-2.9779,-2.9779,-2.9779,-2.9779,-2.9779,-2.9856,-2.9921,-3.0037,-3.0075,-3.0632,-3.1193,-3.1462,-2.5684,-2.5684,-2.5684,-2.5684,-2.5684,-2.5684,-2.5684,-2.5684,-2.5684,-2.5684,-2.5684,-2.5684,-2.5684,-2.5684,-2.5684,-2.5684,-2.5684,-2.5684,-2.5684,-2.5684,-2.5684,-2.5762,-2.5801,-2.5859,-2.6055,-2.6377,-2.6299,-2.6426,-2.7051,-2.7334,-2.749,-2.7539,-2.75,-2.7373,-2.6826,-2.6161,-2.5693,-2.5684,-2.5684,-2.5684,-2.5684,-2.5684,-2.5684,-2.5684,-2.5684,-2.5684,-2.5684,-2.5684,-2.5684,-2.5684,-2.5684,-2.5684,-2.5684,-2.5684,-2.5684,-2.5684,-2.5684,-2.5684,-2.6108,-2.6705,-2.7525,-2.7024,-2.7572,-2.8355,-2.9199,-2.9848,-3.0852,-3.1876,-3.1964,-3.1876,-3.1851,-3.2026,-3.2077,-3.2177,-3.2164,-3.219,-3.2177,-3.2202,-3.1951,-3.1687,-3.1637,-3.1562,-3.1273,-3.1148,-3.0821,-3.0281,-2.9917,-2.9829,-2.9779,-2.9779,-2.9779,-2.9779,-2.9779,-2.9779,-2.9779,-2.9792,-2.9792,-2.9779,-2.9779,-2.9779,-2.9779,-2.9779,-2.9779,-2.9779,-2.9779,-2.9779,-2.9779,-2.9779,-2.9779,-2.9779,-2.9895,-2.996,-3.0075,-3.0533,-3.0633,-2.5684,-2.5684,-2.5684,-2.5684,-2.5684,-2.5684,-2.5684,-2.5684,-2.5684,-2.5684,-2.5684,-2.5684,-2.5684,-2.5684,-2.5684,-2.5684,-2.5684,-2.5684,-2.5684,-2.5684,-2.5693,-2.5967,-2.6016,-2.6016,-2.6025,-2.6572,-2.6426,-2.6377,-2.7012,-2.7207,-2.7393,-2.7748,-2.7832,-2.7656,-2.6992,-2.6132,-2.5723,-2.5684,-2.5684,-2.5684,-2.5684,-2.5684,-2.5684,-2.5684,-2.5684,-2.5684,-2.5684,-2.5684,-2.5684,-2.5684,-2.5684,-2.5684,-2.5684,-2.5684,-2.5684,-2.5684,-2.5684,-2.5684,-2.5761,-2.5849,-2.5982,-2.6159,-2.6811,-2.7843,-2.9159,-3.0279,-3.1205,-3.1982,-3.2682,-3.2867,-3.2986,-3.2943,-3.2842,-3.2792,-3.2742,-3.2717,-3.2722,-3.2654,-3.2403,-3.2252,-3.2164,-3.2026,-3.1675,-3.1373,-3.116,-3.0721,-3.0143,-2.9942,-2.9993,-3.008,-3.0193,-3.0143,-3.0156,-3.003,-3.003,-2.9842,-2.9792,-2.9792,-2.9779,-2.9779,-2.9779,-2.9779,-2.9779,-2.9792,-2.9779,-2.9779,-2.9779,-2.9779,-2.9779,-2.9779,-2.9779,-2.9818,-2.983,-2.9908,-3.0101,-2.5684,-2.5684,-2.5684,-2.5684,-2.5684,-2.5684,-2.5684,-2.5684,-2.5684,-2.5684,-2.5684,-2.5684,-2.5684,-2.5684,-2.5684,-2.5684,-2.5684,-2.5684,-2.5684,-2.5684,-2.5684,-2.5752,-2.582,-2.5889,-2.5908,-2.6103,-2.6015,-2.6357,-2.7021,-2.7187,-2.7637,-2.8018,-2.7949,-2.7549,-2.7031,-2.6426,-2.6074,-2.5742,-2.5684,-2.5684,-2.5684,-2.5684,-2.5684,-2.5684,-2.5684,-2.5684,-2.5684,-2.5684,-2.5684,-2.5684,-2.5684,-2.5684,-2.5684,-2.5684,-2.5684,-2.5684,-2.5684,-2.5684,-2.5684,-2.5723,-2.5723,-2.5868,-2.6197,-2.703,-2.8132,-2.9315,-3.0541,-3.1689,-3.2426,-3.2711,-3.3099,-3.3031,-3.2938,-3.2993,-3.3011,-3.3023,-3.2998,-3.2968,-3.2867,-3.2817,-3.2754,-3.2679,-3.2428,-3.2039,-3.1763,-3.1612,-3.1148,-3.0834,-3.0809,-3.0884,-3.0972,-3.0821,-3.0721,-3.0482,-3.0319,-3.0231,-3.0093,-3.0068,-2.993,-2.9779,-2.9779,-2.9967,-2.988,-2.9942,-2.9854,-2.9779,-2.9779,-2.9779,-2.9779,-2.9779,-2.9779,-2.9779,-2.9792,-2.983,-2.9856,-2.5684,-2.5684,-2.5684,-2.5684,-2.5684,-2.5684,-2.5684,-2.5684,-2.5684,-2.5684,-2.5684,-2.5684,-2.5684,-2.5684,-2.5684,-2.5684,-2.5684,-2.5684,-2.5684,-2.5684,-2.5684,-2.5713,-2.5703,-2.5684,-2.5723,-2.5781,-2.5937,-2.6318,-2.6523,-2.7139,-2.7695,-2.8047,-2.8018,-2.7598,-2.709,-2.6572,-2.6152,-2.581,-2.5684,-2.5684,-2.5684,-2.5684,-2.5684,-2.5684,-2.5684,-2.5684,-2.5684,-2.5684,-2.5684,-2.5684,-2.5684,-2.5684,-2.5684,-2.5684,-2.5684,-2.5684,-2.5684,-2.5684,-2.5684,-2.5684,-2.5684,-2.5732,-2.5684,-2.6332,-2.7352,-2.8355,-2.9361,-3.0406,-3.1424,-3.1689,-3.1921,-3.1965,-3.2021,-3.2021,-3.1977,-3.1921,-3.1877,-3.1777,-3.2052,-3.2183,-3.2544,-3.2655,-3.2957,-3.2817,-3.2453,-3.234,-3.219,-3.1876,-3.1537,-3.1537,-3.1537,-3.1399,-3.1235,-3.0997,-3.0821,-3.0721,-3.057,-3.0382,-3.0269,-3.0181,-3.0382,-3.0645,-3.0357,-3.0118,-3.0168,-3.0131,-2.9867,-2.9792,-2.9817,-2.9804,-2.9779,-2.9779,-2.9779,-2.9779,-2.9779,-2.5684,-2.5684,-2.5684,-2.5684,-2.5684,-2.5684,-2.5684,-2.5684,-2.5684,-2.5684,-2.5684,-2.5684,-2.5684,-2.5684,-2.5684,-2.5684,-2.5684,-2.5684,-2.5684,-2.5684,-2.5684,-2.5684,-2.5684,-2.5684,-2.5684,-2.5684,-2.5781,-2.5967,-2.5879,-2.6855,-2.7646,-2.8125,-2.8223,-2.7764,-2.7217,-2.6719,-2.626,-2.584,-2.5684,-2.5684,-2.5684,-2.5684,-2.5684,-2.5684,-2.5684,-2.5684,-2.5684,-2.5684,-2.5684,-2.5684,-2.5684,-2.5684,-2.5684,-2.5684,-2.5684,-2.5684,-2.5684,-2.5684,-2.5684,-2.5684,-2.5684,-2.5684,-2.5684,-2.6428,-2.7078,-2.7626,-2.8459,-2.9131,-2.9909,-2.9772,-2.9715,-2.9852,-2.9954,-2.9909,-2.9909,-2.9863,-2.9863,-3.0,-3.0406,-3.0822,-3.1323,-3.1733,-3.2513,-3.2648,-3.2805,-3.2792,-3.2629,-3.2403,-3.2089,-3.1901,-3.1888,-3.1825,-3.1662,-3.1486,-3.1336,-3.1198,-3.1022,-3.0834,-3.0984,-3.0972,-3.1173,-3.1185,-3.0896,-3.0696,-3.0658,-3.0507,-3.0206,-2.9993,-2.988,-2.9867,-2.9817,-2.9779,-2.9779,-2.9779,-2.9779,-2.5684,-2.5684,-2.5684,-2.5684,-2.5684,-2.5684,-2.5684,-2.5684,-2.5684,-2.5684,-2.5684,-2.5684,-2.5684,-2.5684,-2.5684,-2.5684,-2.5684,-2.5684,-2.5684,-2.5684,-2.5684,-2.5684,-2.5693,-2.5703,-2.5693,-2.5713,-2.5762,-2.5947,-2.6357,-2.7051,-2.7676,-2.8213,-2.8291,-2.792,-2.75,-2.7041,-2.6426,-2.5898,-2.5732,-2.5684,-2.5684,-2.5684,-2.5684,-2.5684,-2.5684,-2.5684,-2.5684,-2.5684,-2.5684,-2.5684,-2.5684,-2.5684,-2.5684,-2.5684,-2.5684,-2.5684,-2.5684,-2.5684,-2.5684,-2.5684,-2.5684,-2.5684,-2.5684,-2.5781,-2.638,-2.703,-2.7636,-2.8085,-2.8588,-2.8669,-2.8716,-2.8716,-2.8762,-2.8716,-2.8716,-2.8716,-2.8716,-2.8808,-2.9223,-2.9772,-3.0271,-3.1311,-3.2052,-3.2772,-3.2968,-3.3086,-3.295,-3.2639,-3.2434,-3.2137,-3.2303,-3.2252,-3.1888,-3.1655,-3.173,-3.1662,-3.1474,-3.1336,-3.1524,-3.1612,-3.1549,-3.1499,-3.1348,-3.1223,-3.1097,-3.0834,-3.0507,-3.0369,-3.0319,-2.9942,-2.9842,-2.9804,-2.9792,-2.9804,-2.9792,-2.5684,-2.5684,-2.5684,-2.5684,-2.5684,-2.5684,-2.5684,-2.5684,-2.5684,-2.5684,-2.5684,-2.5684,-2.5684,-2.5684,-2.5684,-2.5684,-2.5684,-2.5684,-2.5684,-2.5684,-2.5684,-2.584,-2.5859,-2.5801,-2.5957,-2.5986,-2.6133,-2.625,-2.6709,-2.7256,-2.7871,-2.8252,-2.8301,-2.8037,-2.7637,-2.7168,-2.666,-2.6172,-2.582,-2.5713,-2.5684,-2.5684,-2.5684,-2.5684,-2.5684,-2.5684,-2.5684,-2.5684,-2.5684,-2.5684,-2.5684,-2.5684,-2.5684,-2.5684,-2.5684,-2.5684,-2.5684,-2.5684,-2.5684,-2.5684,-2.5684,-2.5684,-2.5684,-2.5732,-2.5878,-2.639,-2.661,-2.6935,-2.7437,-2.7851,-2.7898,-2.7898,-2.7898,-2.7851,-2.7851,-2.7851,-2.7851,-2.7851,-2.8262,-2.8855,-2.9727,-3.081,-3.1733,-3.2469,-3.3025,-3.2939,-3.2568,-3.2035,-3.1906,-3.1777,-3.2271,-3.2669,-3.2215,-3.178,-3.1851,-3.1925,-3.2014,-3.2018,-3.2252,-3.2265,-3.2051,-3.2014,-3.2051,-3.18,-3.1499,-3.1223,-3.0959,-3.0922,-3.0834,-3.0457,-3.0181,-3.0181,-3.0105,-2.9905,-2.9867,-2.5684,-2.5684,-2.5684,-2.5684,-2.5684,-2.5684,-2.5684,-2.5684,-2.5684,-2.5684,-2.5684,-2.5684,-2.5684,-2.5684,-2.5684,-2.5684,-2.5684,-2.5684,-2.5684,-2.5684,-2.5684,-2.583,-2.5977,-2.5977,-2.5976,-2.6455,-2.667,-2.6523,-2.7012,-2.7412,-2.7734,-2.8252,-2.8301,-2.8125,-2.7803,-2.7393,-2.6924,-2.6494,-2.6094,-2.5801,-2.5703,-2.5684,-2.5684,-2.5684,-2.5684,-2.5684,-2.5684,-2.5684,-2.5684,-2.5684,-2.5684,-2.5684,-2.5684,-2.5684,-2.5684,-2.5684,-2.5684,-2.5684,-2.5684,-2.5684,-2.5684,-2.5684,-2.5684,-2.5684,-2.583,-2.5917,-2.61,-2.6149,-2.6658,-2.6696,-2.6744,-2.6744,-2.6696,-2.6696,-2.6696,-2.6696,-2.6696,-2.6754,-2.6982,-2.7673,-2.8762,-2.9761,-3.0226,-3.0911,-3.1601,-3.2064,-3.1877,-3.119,-3.0956,-3.0944,-3.1368,-3.2108,-3.1636,-3.1121,-3.1571,-3.176,-3.237,-3.2605,-3.2752,-3.2898,-3.2604,-3.2667,-3.2872,-3.2491,-3.2102,-3.1763,-3.1512,-3.1446,-3.1333,-3.1097,-3.0859,-3.0708,-3.0468,-3.0125,-2.993,-2.5684,-2.5684,-2.5684,-2.5684,-2.5684,-2.5684,-2.5684,-2.5684,-2.5684,-2.5684,-2.5684,-2.5684,-2.5684,-2.5684,-2.5684,-2.5684,-2.5684,-2.5684,-2.5684,-2.5684,-2.5684,-2.5791,-2.5859,-2.581,-2.5957,-2.6035,-2.6289,-2.6816,-2.7305,-2.7441,-2.7588,-2.8213,-2.8301,-2.8184,-2.8066,-2.7656,-2.7236,-2.6865,-2.6465,-2.6064,-2.5781,-2.5713,-2.5684,-2.5684,-2.5684,-2.5684,-2.5684,-2.5684,-2.5684,-2.5684,-2.5684,-2.5684,-2.5684,-2.5684,-2.5684,-2.5684,-2.5684,-2.5684,-2.5684,-2.5684,-2.5684,-2.5684,-2.5684,-2.5684,-2.5684,-2.5684,-2.5684,-2.5684,-2.5684,-2.5684,-2.5684,-2.5684,-2.5684,-2.5684,-2.5684,-2.5684,-2.5684,-2.5781,-2.5878,-2.6706,-2.7757,-2.8402,-2.8855,-2.9453,-3.0,-3.0226,-3.0135,-2.9772,-2.9407,-2.9315,-2.9212,-2.9818,-3.0135,-3.0044,-3.0687,-3.1424,-3.1965,-3.2382,-3.2537,-3.2747,-3.3081,-3.2791,-3.2543,-3.287,-3.2742,-3.2129,-3.1771,-3.1901,-3.1764,-3.1261,-3.0877,-3.0391,-3.0441,-3.0207,-3.0057,-2.5684,-2.5684,-2.5684,-2.5684,-2.5684,-2.5684,-2.5684,-2.5684,-2.5684,-2.5684,-2.5684,-2.5684,-2.5684,-2.5684,-2.5684,-2.5684,-2.5684,-2.5684,-2.5684,-2.5684,-2.5713,-2.5898,-2.5889,-2.5781,-2.6113,-2.6269,-2.6738,-2.7266,-2.7669,-2.7783,-2.7978,-2.8252,-2.8301,-2.8281,-2.8232,-2.7881,-2.7568,-2.7295,-2.6865,-2.6455,-2.6045,-2.584,-2.5703,-2.5684,-2.5684,-2.5684,-2.5684,-2.5684,-2.5684,-2.5684,-2.5684,-2.5684,-2.5684,-2.5684,-2.5684,-2.5684,-2.5684,-2.5684,-2.5684,-2.5684,-2.5684,-2.5684,-2.5684,-2.5684,-2.5684,-2.5684,-2.5684,-2.5684,-2.5684,-2.5684,-2.5684,-2.5684,-2.5684,-2.5684,-2.5684,-2.5684,-2.5684,-2.5732,-2.5781,-2.6062,-2.703,-2.7861,-2.8402,-2.9131,-2.9544,-2.9544,-2.9269,-2.8634,-2.8226,-2.7898,-2.7757,-2.7804,-2.8308,-2.9085,-2.9863,-3.0643,-3.1368,-3.1777,-3.2008,-3.2612,-3.284,-3.2426,-3.2227,-3.2389,-3.2364,-3.1968,-3.1761,-3.154,-3.1052,-3.0311,-3.006,-2.9882,-3.0031,-3.0019,-2.9486,-2.5684,-2.5684,-2.5684,-2.5684,-2.5684,-2.5684,-2.5684,-2.5684,-2.5684,-2.5684,-2.5713,-2.5762,-2.5801,-2.5693,-2.5684,-2.5684,-2.5684,-2.5684,-2.5684,-2.5684,-2.5684,-2.5801,-2.5918,-2.5947,-2.6279,-2.666,-2.708,-2.7461,-2.7865,-2.79,-2.8008,-2.8232,-2.8301,-2.8291,-2.8184,-2.7988,-2.7725,-2.7549,-2.7226,-2.6885,-2.6475,-2.6055,-2.583,-2.5732,-2.5684,-2.5684,-2.5684,-2.5684,-2.5684,-2.5684,-2.5684,-2.5684,-2.5684,-2.5684,-2.5684,-2.5684,-2.5684,-2.5684,-2.5684,-2.5684,-2.5684,-2.5684,-2.5684,-2.5684,-2.5684,-2.5684,-2.5684,-2.5684,-2.5684,-2.5684,-2.5684,-2.5684,-2.5684,-2.5684,-2.5684,-2.5684,-2.5684,-2.5684,-2.5684,-2.5742,-2.639,-2.722,-2.7767,-2.8484,-2.8623,-2.868,-2.8402,-2.7814,-2.7258,-2.6887,-2.6658,-2.6696,-2.702,-2.7898,-2.8669,-2.9544,-3.0226,-3.0451,-3.0687,-3.1833,-3.2382,-3.1545,-3.1235,-3.1733,-3.1653,-3.1063,-3.0707,-3.039,-2.984,-2.9409,-2.9612,-2.9591,-2.9387,-2.9268,-2.8534,-2.5684,-2.5684,-2.5684,-2.5684,-2.5684,-2.5684,-2.5684,-2.5684,-2.5693,-2.5684,-2.585,-2.6094,-2.6103,-2.5693,-2.5684,-2.5742,-2.5888,-2.581,-2.5703,-2.5684,-2.5859,-2.5849,-2.5888,-2.6064,-2.6348,-2.6709,-2.7051,-2.7275,-2.7783,-2.7933,-2.8031,-2.8271,-2.8291,-2.8301,-2.8281,-2.8105,-2.7978,-2.7793,-2.7627,-2.7334,-2.6924,-2.6504,-2.6084,-2.5908,-2.5684,-2.5684,-2.5684,-2.5684,-2.5684,-2.5684,-2.5684,-2.5684,-2.5684,-2.5684,-2.5684,-2.5684,-2.5684,-2.5684,-2.5684,-2.5684,-2.5684,-2.5684,-2.5684,-2.5684,-2.5684,-2.5684,-2.5684,-2.5684,-2.5684,-2.5684,-2.5684,-2.5684,-2.5684,-2.5684,-2.5684,-2.5684,-2.5684,-2.5684,-2.5684,-2.5684,-2.5917,-2.6294,-2.638,-2.6744,-2.6791,-2.6791,-2.6839,-2.6332,-2.6428,-2.6004,-2.5684,-2.5868,-2.61,-2.5965,-2.6418,-2.7898,-2.8634,-2.8901,-2.9315,-3.0271,-3.0598,-3.0135,-3.009,-3.0687,-3.0418,-2.9795,-2.9487,-2.9177,-2.9074,-2.88,-2.9236,-2.9375,-2.8979,-2.8449,-2.7746]}]]